[[{"header":{"parameterUnit":"m.s-1","parameterCategory":1,"la1":30.6,"la2":29.2853,"lo1":-89.7004,"lo2":-87.6739,"dy":0.0162,"dx":0.0183,"nx":112,"ny":82,"refTime":"2023-05-01T12:00:00:Z","depth":0,"parameterNumber":2,"parameterNumberName":"U-component_of_WINDS"},"data":[0.0,0.0,0.0,0.0,0.0,0.0,0.0,0.0,0.0,0.0,0.0,0.0,0.0,0.0,0.0,0.0,0.0,0.0,0.0,0.0,0.0,0.0,0.0,0.0,0.0,0.0,0.0,0.0,0.0,0.0,0.0,0.0,0.0,0.0,0.0,0.0,0.0,0.0,0.0,0.0,0.0,0.0,0.0,0.0,0.0,0.0,0.0,0.0,0.0,0.0,0.0,0.0,0.0,0.0,0.0,0.0,0.0,0.0,0.0,0.0,0.0,0.0,0.0,0.0,0.0,0.0,0.0,0.0,0.0,0.0,0.0,0.0,0.0,0.0,0.0,0.0,0.0,0.0,0.0,0.0,0.0,0.0,0.0,0.0,0.0,0.0,0.0,0.0,0.0,0.0,0.0,1.9037,2.1444,2.2614,2.1851,2.0741,1.9173,1.7037,0.0,0.0,0.0,0.0,0.0,0.0,0.0,0.0,0.0,0.0,0.0,0.0,0.0,0.0,0.0,0.0,0.0,0.0,0.0,0.0,0.0,0.0,0.0,0.0,0.0,0.0,0.0,0.0,0.0,0.0,0.0,0.0,0.0,0.0,0.0,0.0,0.0,0.0,0.0,0.0,0.0,0.0,0.0,0.0,0.0,0.0,0.0,0.0,0.0,0.0,0.0,0.0,0.0,0.0,0.0,0.0,0.0,0.0,0.0,0.0,0.0,0.0,0.0,0.0,0.0,0.0,0.0,0.0,0.0,0.0,0.0,0.0,0.0,0.0,0.0,0.0,0.0,0.0,0.0,0.0,0.0,0.0,0.0,0.0,0.0,0.0,0.0,0.0,0.0,0.0,0.0,0.0,0.0,0.0,0.0,0.0,0.0,0.0,0.0,0.0,0.0,0.0,0.0,0.0,1.7345,2.0063,2.1385,2.2006,2.1815,1.9648,1.8416,1.8686,0.0,0.0,0.0,0.0,0.0,0.0,0.0,0.0,0.0,0.0,0.0,0.0,0.0,0.0,0.0,0.0,0.0,0.0,0.0,0.0,0.0,0.0,0.0,0.0,0.0,0.0,0.0,0.0,0.0,0.0,0.0,0.0,0.0,0.0,0.0,0.0,0.0,0.0,0.0,0.0,0.0,0.0,0.0,0.0,0.0,0.0,0.0,0.0,0.0,0.0,0.0,0.0,0.0,0.0,0.0,0.0,0.0,0.0,0.0,0.0,0.0,0.0,0.0,0.0,0.0,0.0,0.0,0.0,0.0,0.0,0.0,0.0,0.0,0.0,0.0,0.0,0.0,0.0,0.0,0.0,0.0,0.0,0.0,0.0,0.0,0.0,0.0,0.0,0.0,0.0,0.0,0.0,0.0,0.0,0.0,0.0,0.0,0.0,0.0,0.0,0.0,0.0,0.0,1.7669,1.9434,2.171,2.1914,2.2042,2.2415,2.0056,1.8707,1.9092,1.7864,0.0,0.0,0.0,0.0,0.0,0.0,0.0,0.0,0.0,0.0,0.0,0.0,0.0,0.0,0.0,0.0,0.0,0.0,0.0,0.0,0.0,0.0,0.0,0.0,0.0,0.0,0.0,0.0,0.0,0.0,0.0,0.0,0.0,0.0,0.0,0.0,0.0,0.0,0.0,0.0,0.0,0.0,0.0,0.0,0.0,0.0,0.0,0.0,0.0,0.0,0.0,0.0,0.0,0.0,0.0,0.0,0.0,0.0,0.0,0.0,0.0,0.0,0.0,0.0,0.0,0.0,0.0,0.0,0.0,0.0,0.0,0.0,0.0,0.0,0.0,0.0,0.0,0.0,0.0,0.0,0.0,0.0,0.0,0.0,0.0,0.0,0.0,0.0,0.0,0.0,0.0,0.0,0.0,0.0,0.0,0.0,0.0,0.0,0.0,0.0,0.0,0.0,1.9498,2.1094,2.2648,2.2617,2.2546,2.2695,2.0702,1.943,1.9413,1.8345,0.0,0.0,0.0,0.0,0.0,0.0,0.0,0.0,0.0,0.0,0.0,0.0,0.0,0.0,0.0,0.0,0.0,0.0,0.0,0.0,0.0,0.0,0.0,0.0,0.0,0.0,0.0,0.0,0.0,0.0,0.0,0.0,0.0,0.0,0.0,0.0,0.0,0.0,0.0,0.0,0.0,0.0,0.0,0.0,0.0,0.0,0.0,0.0,0.0,0.0,0.0,0.0,0.0,0.0,0.0,0.0,0.0,0.0,0.0,0.0,0.0,0.0,0.0,0.0,0.0,0.0,0.0,0.0,0.0,0.0,0.0,0.0,0.0,0.0,0.0,0.0,0.0,0.0,0.0,0.0,0.0,0.0,0.0,0.0,0.0,0.0,0.0,0.0,0.0,0.0,0.0,0.0,0.0,0.0,0.0,0.0,0.0,0.0,0.0,0.0,0.0,0.0,1.9844,2.0884,2.1874,2.3338,2.3583,2.2023,2.0967,2.0385,2.0313,1.8725,0.0,0.0,0.0,0.0,0.0,0.0,0.0,0.0,0.0,0.0,0.0,0.0,0.0,0.0,0.0,0.0,0.0,0.0,0.0,0.0,0.0,0.0,0.0,0.0,0.0,0.0,0.0,0.0,0.0,0.0,0.0,0.0,0.0,0.0,0.0,0.0,0.0,0.0,0.0,0.0,0.0,0.0,0.0,0.0,0.0,0.0,0.0,0.0,0.0,0.0,0.0,0.0,0.0,0.0,0.0,0.0,0.0,0.0,0.0,0.0,0.0,0.0,0.0,0.0,0.0,0.0,0.0,0.0,0.0,0.0,0.0,0.0,0.0,0.0,0.0,0.0,0.0,0.0,0.0,0.0,0.0,0.0,0.0,0.0,0.0,0.0,0.0,0.0,0.0,0.0,0.0,0.0,0.0,0.0,0.0,0.0,0.0,0.0,0.0,0.0,0.0,0.0,2.0305,2.1308,0.0,2.3545,2.3322,2.2669,2.1776,2.0963,2.0308,0.0,0.0,0.0,0.0,0.0,0.0,0.0,0.0,0.0,0.0,0.0,0.0,0.0,0.0,0.0,0.0,0.0,0.0,0.0,0.0,0.0,0.0,0.0,0.0,0.0,0.0,0.0,0.0,0.0,0.0,0.0,0.0,0.0,0.0,0.0,0.0,0.0,0.0,0.0,0.0,0.0,0.0,0.0,0.0,0.0,0.0,0.0,0.0,0.0,0.0,0.0,0.0,0.0,0.0,0.0,0.0,0.0,0.0,0.0,0.0,0.0,0.0,0.0,0.0,0.0,0.0,0.0,0.0,0.0,0.0,0.0,0.0,0.0,0.0,0.0,0.0,0.0,0.0,0.0,0.0,0.0,0.0,0.0,0.0,0.0,0.0,0.0,0.0,0.0,0.0,0.0,0.0,0.0,0.0,0.0,0.0,0.0,0.0,0.0,0.0,0.0,0.0,2.0627,2.071,2.1582,0.0,2.4126,2.3706,2.3157,2.2496,2.1574,2.0287,0.0,0.0,0.0,0.0,0.0,0.0,0.0,0.0,0.0,0.0,0.0,0.0,0.0,0.0,0.0,0.0,0.0,0.0,0.0,0.0,0.0,0.0,0.0,0.0,0.0,0.0,0.0,0.0,0.0,0.0,0.0,0.0,0.0,0.0,0.0,0.0,0.0,0.0,0.0,0.0,0.0,0.0,0.0,0.0,0.0,0.0,0.0,0.0,0.0,0.0,0.0,0.0,0.0,0.0,0.0,0.0,0.0,0.0,0.0,0.0,0.0,0.0,0.0,0.0,0.0,0.0,0.0,0.0,0.0,0.0,0.0,0.0,0.0,0.0,0.0,0.0,0.0,0.0,0.0,0.0,0.0,0.0,0.0,0.0,0.0,0.0,0.0,0.0,0.0,0.0,0.0,0.0,0.0,0.0,0.0,0.0,0.0,0.0,0.0,0.0,0.0,0.0,2.1398,2.1073,2.1588,2.4137,2.5185,2.4996,2.3254,2.3046,2.2189,0.0,0.0,0.0,0.0,0.0,0.0,0.0,0.0,0.0,0.0,0.0,0.0,0.0,0.0,0.0,0.0,0.0,0.0,0.0,0.0,0.0,0.0,0.0,0.0,0.0,0.0,0.0,0.0,0.0,0.0,0.0,0.0,0.0,0.0,0.0,0.0,0.0,0.0,0.0,0.0,0.0,0.0,0.0,0.0,0.0,0.0,0.0,0.0,0.0,0.0,0.0,0.0,0.0,0.0,0.0,0.0,0.0,0.0,0.0,0.0,0.0,0.0,0.0,0.0,0.0,0.0,0.0,0.0,0.0,0.0,0.0,0.0,0.0,0.0,0.0,0.0,0.0,0.0,0.0,0.0,0.0,0.0,0.0,0.0,0.0,0.0,0.0,0.0,0.0,0.0,0.0,0.0,0.0,0.0,0.0,0.0,0.0,0.0,0.0,0.0,0.0,0.0,0.0,2.2341,2.1992,2.2483,2.5047,2.5492,2.4943,2.3231,2.3009,2.21,2.0169,0.0,0.0,0.0,0.0,0.0,0.0,0.0,0.0,0.0,0.0,0.0,0.0,0.0,0.0,0.0,0.0,0.0,0.0,0.0,0.0,0.0,0.0,0.0,0.0,0.0,0.0,0.0,0.0,0.0,0.0,0.0,0.0,0.0,0.0,0.0,0.0,0.0,0.0,0.0,0.0,0.0,0.0,0.0,0.0,0.0,0.0,0.0,0.0,0.0,0.0,0.0,0.0,0.0,0.0,0.0,0.0,0.0,0.0,0.0,0.0,0.0,0.0,0.0,0.0,0.0,0.0,0.0,0.0,0.0,0.0,0.0,0.0,0.0,0.0,0.0,0.0,0.0,0.0,0.0,0.0,0.0,0.0,0.0,0.0,0.0,0.0,0.0,0.0,0.0,0.0,0.0,0.0,0.0,0.0,0.0,0.0,0.0,0.0,0.0,0.0,0.0,0.0,2.2756,2.2402,2.2875,2.5439,2.5648,2.5035,2.3655,2.3463,2.2589,2.0594,0.0,0.0,0.0,0.0,0.0,0.0,0.0,0.0,0.0,0.0,0.0,0.0,0.0,0.0,0.0,0.0,0.0,0.0,0.0,0.0,0.0,0.0,0.0,0.0,0.0,0.0,0.0,0.0,0.0,0.0,0.0,0.0,0.0,0.0,0.0,0.0,0.0,0.0,0.0,0.0,0.0,0.0,0.0,0.0,0.0,0.0,0.0,0.0,0.0,0.0,0.0,0.0,0.0,0.0,0.0,0.0,0.0,0.0,0.0,0.0,0.0,0.0,0.0,0.0,0.0,0.0,0.0,0.0,0.0,0.0,0.0,0.0,0.0,0.0,0.0,0.0,0.0,0.0,0.0,0.0,0.0,0.0,0.0,0.0,0.0,0.0,0.0,0.0,0.0,0.0,0.0,0.0,0.0,0.0,0.0,0.0,0.0,0.0,0.0,0.0,0.0,0.0,2.2775,2.2461,2.2955,2.543,2.5636,2.5216,2.4284,2.4184,2.3339,2.1328,0.0,0.0,0.0,0.0,0.0,0.0,0.0,0.0,0.0,0.0,0.0,0.0,0.0,0.0,0.0,0.0,0.0,0.0,0.0,0.0,0.0,0.0,0.0,0.0,0.0,0.0,0.0,0.0,0.0,0.0,0.0,0.0,0.0,0.0,0.0,0.0,0.0,0.0,0.0,0.0,0.0,0.0,0.0,0.0,0.0,0.0,0.0,0.0,0.0,0.0,0.0,0.0,0.0,0.0,0.0,0.0,0.0,0.0,0.0,0.0,1.568,0.0,0.0,0.0,0.0,0.0,0.0,0.0,0.0,0.0,0.0,0.0,0.0,0.0,0.0,0.0,0.0,0.0,0.0,0.0,0.0,0.0,0.0,0.0,0.0,0.0,0.0,0.0,0.0,0.0,0.0,0.0,0.0,0.0,0.0,0.0,0.0,0.0,0.0,0.0,0.0,0.0,2.2849,2.2949,2.3552,2.5414,2.5561,2.5162,2.4268,2.4141,2.3285,2.1316,1.996,0.0,0.0,0.0,0.0,0.0,0.0,0.0,0.0,0.0,0.0,0.0,0.0,0.0,0.0,0.0,0.0,0.0,0.0,0.0,0.0,0.0,0.0,0.0,0.0,0.0,0.0,0.0,0.0,0.0,0.0,0.0,0.0,0.0,0.0,0.0,0.0,0.0,0.0,0.0,0.0,0.0,0.0,0.0,0.0,0.0,0.0,0.0,0.0,0.0,0.0,0.0,0.0,0.0,0.0,0.0,0.0,0.0,0.0,0.0,0.0,1.7118,0.0,0.0,0.0,0.0,0.0,0.0,0.0,0.0,0.0,0.0,0.0,0.0,0.0,0.0,0.0,0.0,0.0,0.0,0.0,0.0,0.0,0.0,0.0,0.0,0.0,0.0,0.0,0.0,0.0,0.0,0.0,0.0,0.0,0.0,0.0,0.0,0.0,0.0,0.0,0.0,2.2885,2.3078,2.3852,2.595,2.5744,2.5425,2.5365,2.488,2.3798,2.1935,2.0918,0.0,0.0,0.0,0.0,0.0,0.0,0.0,0.0,0.0,0.0,0.0,0.0,0.0,0.0,0.0,0.0,0.0,0.0,0.0,0.0,0.0,0.0,0.0,0.0,0.0,0.0,0.0,0.0,0.0,0.0,0.0,0.0,0.0,0.0,0.0,0.0,0.0,0.0,0.0,0.0,0.0,0.0,0.0,0.0,0.0,0.0,0.0,0.0,0.0,0.0,0.0,0.0,0.0,2.1564,2.1902,2.256,2.2419,2.219,2.1795,1.9427,1.8326,1.8241,0.0,0.0,0.0,0.0,0.0,0.0,0.0,0.0,0.0,0.0,0.0,0.0,0.0,0.0,0.0,0.0,0.0,0.0,0.0,0.0,0.0,0.0,0.0,0.0,0.0,2.0371,2.0249,0.0,0.0,0.0,0.0,0.0,0.0,0.0,0.0,0.0,0.0,0.0,0.0,2.2908,2.3319,2.4307,2.6533,2.6079,2.5884,2.6535,2.5691,2.4419,2.2809,2.2262,2.1302,0.0,0.0,0.0,0.0,0.0,0.0,0.0,0.0,0.0,0.0,0.0,0.0,0.0,0.0,0.0,0.0,0.0,0.0,0.0,0.0,0.0,0.0,0.0,0.0,0.0,0.0,0.0,0.0,0.0,0.0,0.0,0.0,1.8815,1.8061,0.0,0.0,0.0,0.0,0.0,0.0,0.0,0.0,0.0,0.0,0.0,0.0,0.0,2.1474,2.2139,2.2209,2.1961,2.1425,2.1425,2.1482,2.156,2.0851,2.1694,2.3562,2.1596,0.0,1.9973,1.9973,0.0,0.0,0.0,0.0,0.0,0.0,0.0,0.0,0.0,0.0,0.0,0.0,0.0,0.0,0.0,0.0,0.0,0.0,0.0,0.0,0.0,0.0,2.0249,2.0308,2.0302,2.0494,0.0,2.0731,2.0279,2.04,2.0418,0.0,0.0,0.0,0.0,0.0,0.0,0.0,2.3062,2.4354,2.5626,2.6621,2.6606,2.6539,2.6592,2.568,2.4648,2.3613,2.2048,2.0979,2.0551,1.8836,0.0,0.0,0.0,0.0,0.0,0.0,0.0,0.0,0.0,0.0,0.0,0.0,0.0,0.0,0.0,0.0,0.0,0.0,0.0,0.0,0.0,0.0,0.0,0.0,0.0,0.0,0.0,0.0,0.0,2.0183,2.0352,1.9983,2.0976,2.1377,0.0,0.0,0.0,0.0,0.0,0.0,0.0,0.0,0.0,2.2218,2.2661,2.3084,2.3458,2.3448,2.3675,2.4156,2.4156,2.435,2.4696,2.436,2.4797,2.5798,2.495,2.4168,2.3396,2.1999,2.0868,2.0116,0.0,0.0,0.0,0.0,2.1414,2.1154,2.1645,2.1807,0.0,2.2258,0.0,0.0,0.0,0.0,0.0,0.0,0.0,0.0,0.0,0.0,0.0,2.2447,2.245,2.2549,2.2915,2.2346,2.1617,0.0,2.1066,2.1104,2.1158,0.0,0.0,0.0,0.0,0.0,2.3718,2.4774,2.6001,2.7295,2.74,2.7354,2.7343,2.635,2.5146,2.379,2.2769,2.1984,2.1401,2.0252,1.9726,0.0,0.0,0.0,0.0,0.0,0.0,0.0,0.0,0.0,0.0,0.0,0.0,0.0,0.0,0.0,0.0,0.0,0.0,0.0,0.0,0.0,0.0,0.0,0.0,0.0,0.0,0.0,0.0,2.0858,2.1278,2.1265,2.2177,2.2393,0.0,0.0,0.0,0.0,0.0,0.0,2.2476,2.3852,2.4321,2.3628,2.4238,2.4645,2.4851,2.4827,2.5514,2.6854,2.6859,2.7312,2.8202,2.7997,2.7997,2.8183,2.7633,2.7109,2.6373,2.3912,2.2054,2.0834,2.1976,2.2194,2.195,2.2653,2.3056,2.3335,2.4017,2.4258,2.4258,2.4288,0.0,2.294,2.2324,0.0,0.0,0.0,0.0,2.2105,2.2979,2.3653,2.4158,2.436,2.4409,2.4409,2.4409,2.3889,2.3146,0.0,2.1905,2.1939,2.2003,0.0,0.0,0.0,0.0,2.4038,2.4521,2.5631,2.6869,2.8162,2.826,2.8228,2.8198,2.716,2.5896,2.4435,2.4027,2.3371,2.2286,2.1671,2.1213,2.088,0.0,0.0,0.0,0.0,0.0,0.0,0.0,0.0,0.0,0.0,0.0,0.0,0.0,0.0,0.0,0.0,0.0,0.0,0.0,0.0,0.0,0.0,0.0,0.0,0.0,0.0,0.0,0.0,0.0,2.0381,2.182,0.0,0.0,0.0,0.0,2.2677,2.4197,2.5101,2.51,2.5915,2.629,2.6117,2.611,2.6441,2.7119,2.7078,2.7478,2.8378,2.8308,2.9156,3.0678,2.987,2.9908,3.0527,2.8801,2.8071,2.7923,2.5552,2.4034,2.314,2.2491,2.2706,2.3399,2.345,2.3992,2.4719,2.4892,2.4949,2.4962,2.5024,2.4465,2.3763,2.385,2.3276,0.0,0.0,2.2735,2.2929,2.3802,2.4072,2.4283,2.5063,2.5245,2.5245,2.5245,2.5207,2.4697,0.0,2.2744,2.275,2.282,0.0,2.3811,2.3029,2.4962,2.6231,2.5449,2.7488,2.9042,2.9137,2.9145,2.9115,2.9055,2.7987,2.6982,2.6124,2.5766,2.4854,2.3206,2.3095,2.2706,2.193,1.9489,0.0,0.0,0.0,0.0,0.0,0.0,0.0,0.0,0.0,0.0,0.0,0.0,0.0,0.0,0.0,0.0,0.0,0.0,0.0,0.0,0.0,0.0,0.0,0.0,0.0,0.0,0.0,0.0,2.3391,2.4005,0.0,2.2786,2.3679,2.4139,2.3602,2.5137,2.6025,2.5944,2.7191,2.7852,2.7717,2.8674,2.9284,2.955,3.0039,3.0413,3.0615,3.0594,3.0868,3.1336,3.1021,3.1039,3.1299,3.0572,3.0286,3.0216,2.8836,2.6858,2.4779,2.5089,2.5103,2.5061,2.6195,2.6808,2.7196,2.7756,2.7619,2.6997,2.5952,2.5494,2.5158,2.4159,2.3722,2.3544,2.3563,2.3573,2.3774,2.4649,2.5253,2.5578,2.5301,2.5655,2.5924,2.5358,2.5243,2.507,2.4514,2.3995,2.3638,2.3664,2.3923,2.4394,2.5164,2.6062,2.6728,2.6988,2.825,2.9154,2.9203,2.9663,2.9748,2.9151,2.8578,2.7631,2.6228,2.5809,2.5116,2.3969,2.3414,2.2989,2.2659,2.0243,1.9538,0.0,0.0,0.0,0.0,0.0,0.0,0.0,0.0,0.0,0.0,0.0,0.0,0.0,0.0,0.0,0.0,0.0,0.0,0.0,0.0,0.0,0.0,0.0,0.0,0.0,0.0,2.4094,2.5466,2.5793,2.5603,2.4859,2.5528,2.5662,2.4798,2.63,2.7185,2.7034,2.8566,2.9372,2.9213,3.0207,3.084,3.1078,3.1318,3.1663,3.2131,3.2108,3.2205,3.2361,3.2361,3.2232,3.1931,3.19,3.1709,3.1415,3.084,2.937,2.7488,2.7574,2.7449,2.7397,2.8553,2.919,2.953,2.985,2.9233,2.8165,2.709,2.6629,2.6239,2.4999,2.4669,2.4752,2.4828,2.4847,2.5048,2.5924,2.6546,2.6803,2.6209,2.6515,2.6784,2.6209,2.6074,2.6085,2.6126,2.5264,2.4591,2.4889,2.4937,2.5409,2.6832,2.7274,2.7651,2.8219,2.9036,2.9555,2.9605,3.0094,3.0148,2.9552,2.9017,2.8066,2.6616,2.6204,2.5523,2.4376,2.4098,2.3839,2.3508,2.1105,2.0289,2.1112,0.0,0.0,0.0,0.0,0.0,0.0,0.0,0.0,0.0,0.0,0.0,0.0,0.0,0.0,0.0,0.0,0.0,0.0,0.0,0.0,0.0,0.0,0.0,2.2763,2.4154,2.5393,2.6237,2.6896,2.7056,2.6401,2.7113,2.7252,2.6365,2.7818,2.8654,2.8498,3.002,3.0807,3.0621,3.0658,3.0962,3.1634,3.0807,3.1212,3.2835,3.2778,3.314,3.3895,3.3895,3.3437,3.2651,3.2651,3.221,3.1458,3.1458,3.1458,3.1311,2.9714,2.9596,3.0323,3.0323,3.0904,3.1547,3.0953,2.9694,2.8314,2.8445,2.7865,2.6969,2.6473,2.628,2.6317,2.6477,2.6558,2.6756,2.7616,2.7857,2.7846,2.7838,2.7838,2.7807,2.78,2.78,2.78,2.7796,2.6491,2.5638,2.6495,2.664,2.6948,2.7813,2.8602,0.0,2.914,2.989,3.0398,3.0398,3.0398,3.0367,3.0304,2.9346,2.8335,2.7399,2.7099,2.6191,2.4523,2.5244,2.5317,2.4518,2.2142,2.0517,1.9724,0.0,0.0,0.0,0.0,0.0,0.0,0.0,0.0,0.0,0.0,0.0,0.0,0.0,0.0,0.0,0.0,0.0,0.0,0.0,0.0,0.0,0.0,2.4281,2.4514,2.4812,2.5525,2.693,2.7182,2.7144,2.6895,2.7608,2.8229,2.8572,2.9058,2.9795,3.0798,3.0691,3.0814,3.1246,3.1776,3.2133,3.2316,3.2658,3.3062,3.3511,3.3503,3.3613,3.3834,3.3834,3.3705,3.3476,3.3476,3.3348,3.3128,3.3128,3.3128,3.2981,3.1366,3.0895,3.1097,3.1097,3.1642,3.2373,3.2207,3.1473,3.0604,3.065,2.9752,2.8648,2.854,2.8179,2.7711,2.7333,2.766,2.8174,2.8581,2.9025,2.9275,2.8714,2.8521,2.8322,2.7829,2.7727,2.7739,2.7726,2.7362,2.7148,2.7475,2.7544,2.7813,2.864,2.8948,0.0,2.9967,3.0256,3.0379,3.0336,3.0336,3.0323,3.0305,2.9909,2.9213,2.8234,2.8014,2.7103,2.5338,2.5486,2.5245,2.4448,2.3762,2.3033,0.0,0.0,0.0,0.0,0.0,0.0,0.0,0.0,0.0,0.0,0.0,0.0,0.0,0.0,0.0,0.0,0.0,0.0,0.0,0.0,0.0,0.0,2.4941,2.6047,2.7352,2.7199,2.7406,2.857,2.8896,2.9042,2.9063,2.9493,2.996,3.0406,3.0463,3.0831,3.1584,3.1477,3.1575,3.1955,3.239,3.2768,3.3109,3.3238,3.3476,3.3807,3.3807,3.3807,3.3807,3.3807,3.3807,0.0,3.4174,3.4119,3.3825,3.4174,3.41,0.0,0.0,0.0,0.0,0.0,3.2291,3.2213,3.2562,3.2139,3.1403,3.1114,3.0651,3.0117,2.9516,2.908,2.8726,2.8509,2.8552,2.8791,2.9363,2.9794,2.9984,2.956,2.9384,2.9208,2.8746,2.8712,2.8733,2.8681,2.8708,0.0,2.8902,2.8595,2.8633,2.949,2.9598,2.9802,3.029,3.0367,3.0348,3.0304,3.0292,3.0286,3.0266,2.9794,0.0,0.0,0.0,2.7793,2.6692,2.6005,0.0,0.0,0.0,2.4273,2.3892,0.0,0.0,0.0,2.3611,2.3485,0.0,0.0,0.0,0.0,0.0,0.0,0.0,0.0,0.0,0.0,0.0,0.0,0.0,0.0,0.0,0.0,2.6299,2.7525,3.0487,3.0433,3.0188,3.0578,3.1205,3.1626,3.1727,3.1842,3.1875,3.1807,3.1807,3.1755,3.1685,0.0,0.0,0.0,0.0,3.3101,3.3935,3.3238,3.3238,3.3935,3.4027,3.4027,3.3935,3.3908,3.3908,3.3972,3.4587,3.4523,3.399,3.4605,3.4504,3.3935,3.3844,3.3733,3.3678,3.377,3.2834,3.1666,3.2525,0.0,0.0,3.0888,3.1035,3.1262,3.0035,2.9622,2.9617,2.9924,2.9595,2.9339,3.0308,3.0547,3.0528,3.0448,3.0352,3.0232,3.0155,3.0156,3.0176,3.0175,3.0271,3.0374,3.042,2.9704,2.9398,3.0177,3.0299,3.0304,3.0304,3.0304,3.0304,3.0292,0.0,0.0,3.0207,2.9417,2.8848,2.8659,2.8407,2.8203,2.8106,2.6656,2.5801,2.5745,2.5096,2.4843,2.4994,2.512,2.5291,2.5436,2.3822,2.3486,0.0,0.0,0.0,0.0,0.0,0.0,0.0,0.0,0.0,0.0,0.0,0.0,0.0,0.0,0.0,2.6572,2.7975,2.9457,3.1284,3.1953,3.2087,3.1518,3.151,3.1501,3.1483,3.2072,3.2433,3.2426,3.2426,3.2684,3.3301,3.2826,0.0,3.4495,3.3854,3.3863,3.4678,3.4605,3.4605,3.4696,0.0,0.0,3.4678,3.4696,3.4696,3.4659,3.422,3.4321,3.4715,3.4247,3.4321,3.4697,3.4064,3.3403,3.2926,3.3568,3.3201,3.2485,3.3293,3.3036,3.2449,3.297,3.2346,3.1483,3.1931,3.1605,0.0,3.1331,3.185,3.2383,3.2693,3.275,3.2561,3.2014,3.1261,3.0734,3.0926,3.0478,3.0278,3.1073,3.1236,3.125,3.1193,3.056,3.012,3.0273,3.0292,3.0305,3.0305,3.0305,3.0292,3.0234,3.0221,3.0207,3.0199,2.9927,2.9712,2.9563,2.8652,2.8125,2.8106,2.7195,2.6656,2.6656,2.6507,2.656,2.6792,2.682,2.6968,2.7185,2.5508,2.4849,0.0,0.0,0.0,0.0,0.0,0.0,0.0,0.0,0.0,0.0,0.0,2.3737,0.0,0.0,2.7046,2.9037,3.0355,3.1492,3.2507,3.3729,3.4068,3.2884,3.3066,3.3246,3.3201,3.3972,3.4449,3.4449,3.4037,3.4083,3.4917,3.3735,3.3779,3.5465,3.4692,3.4637,3.5451,3.548,3.548,3.5469,3.5871,3.5853,3.5451,3.544,3.544,3.5451,3.548,3.5509,3.553,3.5174,3.5293,3.5624,3.522,3.4541,3.3835,3.4266,3.4156,3.3853,3.4266,3.4156,3.3807,3.3807,3.3256,3.2596,3.264,3.239,3.2109,3.2293,3.2385,3.2493,3.2705,3.2726,3.2611,3.2317,3.1883,3.1524,3.1582,3.1407,3.1377,3.1811,3.2003,3.2095,3.2076,3.1762,3.1355,3.0967,3.0904,3.0745,3.0324,3.0247,3.0234,3.0188,3.0194,3.0199,3.0204,3.0022,2.9842,2.9701,2.9099,2.8756,2.8756,2.7957,2.7511,2.7511,2.712,2.7027,2.7299,2.7296,2.7433,2.7676,2.684,2.6504,0.0,0.0,0.0,0.0,0.0,0.0,0.0,0.0,2.3557,2.5004,2.5356,2.6005,2.8034,2.8538,2.9332,3.1444,3.2293,3.2989,3.3752,3.4867,3.5143,3.3899,3.4623,3.5155,3.5009,3.5907,3.6337,3.6025,3.5593,3.5575,3.6051,3.4783,3.472,3.6177,3.5448,3.5417,3.6219,3.6249,3.6231,3.6219,3.6364,3.6364,3.6224,3.6212,3.6224,3.6255,3.6973,3.6833,3.6142,3.6256,3.6376,3.6523,3.6523,3.6211,3.5669,3.5357,3.5247,3.5247,3.5247,3.5247,3.5165,3.4504,3.4284,3.4156,3.3532,3.333,3.3338,3.3506,3.3099,3.2669,3.2873,3.2959,3.2906,3.2629,3.2555,3.2518,3.2283,3.2335,3.2428,3.2543,3.2759,3.2924,3.294,3.3073,3.286,3.1885,3.1742,3.1412,3.0571,3.0456,3.0398,3.0226,3.0199,3.0171,3.0128,2.9907,2.9737,2.9569,2.9448,2.9386,2.9407,2.8717,2.8346,2.8346,2.7696,2.7512,2.7754,2.7789,2.7915,2.8198,2.8198,2.8026,2.0488,2.0936,0.0,2.2447,2.3327,2.4358,0.0,0.0,2.7469,2.8305,2.8489,2.858,2.8792,2.9362,3.038,3.2107,3.2428,3.3004,3.454,3.4246,3.3834,3.3651,3.5023,3.5721,3.4989,3.6236,3.6517,3.5093,3.6193,3.665,3.6035,3.5793,3.6069,3.7033,3.624,3.6163,3.6962,3.7028,3.704,3.6984,3.7708,3.7649,3.6993,3.6985,3.7011,3.707,3.7351,3.7019,3.6285,3.6285,3.6707,3.7349,3.7349,3.7734,3.812,3.6688,3.6156,3.6156,3.6156,3.6156,3.6138,3.6046,3.6009,3.5991,3.5899,3.5881,3.5881,3.5891,3.5892,3.5874,3.5901,3.6009,3.5718,3.4166,3.3889,3.3827,3.3209,3.2526,3.2351,3.3354,3.3577,3.3629,3.3818,3.4445,3.4388,3.2787,3.2573,3.2267,3.1465,3.135,3.1064,3.0294,3.0185,3.0098,2.9857,2.9825,2.9701,2.9448,2.9365,2.9344,2.9407,2.9251,2.9175,2.9175,2.9142,2.9211,2.9435,2.9489,2.9658,2.9917,2.9917,2.9129,2.165,0.0,0.0,0.0,2.5736,2.7204,2.8388,2.9263,2.9905,3.0209,3.0282,3.0428,3.0859,3.1563,3.2302,0.0,3.424,3.4866,3.412,3.4939,3.5296,3.435,3.5271,3.5866,3.5579,3.6553,3.7106,3.69,3.7046,3.7192,3.7338,3.639,3.6439,3.7739,3.6957,3.6935,3.7733,3.7762,3.7794,3.7729,3.8056,3.8059,3.7739,3.7742,3.7757,3.7798,3.794,3.782,3.7484,3.7638,3.7851,3.8096,3.8163,3.8395,3.856,3.7422,3.7294,3.7624,3.7147,3.6982,3.6982,3.6982,3.667,3.6303,3.6303,3.6303,3.6303,3.6303,3.6332,3.6342,3.6398,3.6426,3.6297,3.5615,3.5502,3.5469,3.5187,3.4915,3.489,3.5346,3.5639,3.5818,3.5913,3.6326,3.626,3.5095,3.4082,3.3146,3.2325,3.221,3.2057,3.1694,3.0777,3.0304,3.0587,3.0124,2.9701,2.9471,2.9347,2.9302,2.9283,2.9262,2.924,2.924,2.9262,2.939,2.957,2.9681,2.9874,3.0083,3.0157,2.9817,2.298,0.0,0.0,2.6348,2.8076,2.9737,3.0505,3.1345,3.1952,3.2055,3.2055,3.2145,3.2536,3.3092,3.3666,3.3984,3.5374,3.5877,3.4292,3.5429,3.5895,3.4497,3.4842,3.5399,3.5915,3.668,3.7294,3.7666,3.7512,3.7681,3.8245,3.7138,3.6985,3.8156,3.7612,3.7594,3.8174,3.8192,3.8192,3.8192,3.8192,3.8192,3.8192,3.821,3.8244,3.8259,3.8368,3.8401,3.8354,3.8564,3.8609,3.851,3.8578,3.8658,3.8634,3.7998,3.8163,3.8615,3.8028,3.7826,3.7826,3.7826,3.7441,3.6964,3.6964,3.6964,3.6964,3.6964,3.6964,3.6993,3.7022,3.7032,3.7006,3.6813,3.6814,3.6759,3.6519,3.6554,3.6649,3.6682,3.6958,3.7165,3.723,3.7432,3.7412,3.6859,3.5577,3.4292,3.3203,3.2844,3.2691,3.2691,3.1618,3.1077,3.1523,3.0688,3.0057,2.9868,2.95,2.9262,2.924,2.9178,2.9156,2.9156,2.9218,2.9328,2.9531,2.9663,2.9971,3.043,3.0505,3.0682,0.0,0.0,2.6685,2.8011,2.9878,3.159,3.2287,3.3133,3.3919,3.4245,3.4195,3.3912,3.3224,3.3238,3.387,3.5231,3.502,3.4945,3.5726,3.5175,3.4371,3.3538,3.3465,3.4081,0.0,3.6508,3.6699,3.5945,3.7297,3.8189,3.8207,3.8138,3.8138,3.8192,3.8174,3.8174,3.8192,3.8192,3.8192,3.8192,3.8192,3.8192,3.8192,3.828,3.8295,3.8289,3.8446,3.8478,3.8382,3.8478,3.8491,3.8491,3.8415,3.8546,3.8689,3.8523,3.8572,3.8707,3.867,3.867,3.867,3.867,3.8652,3.8634,3.8634,3.8634,3.8634,3.8634,3.8634,3.8634,3.8634,3.8676,3.8516,3.7654,3.7558,3.7423,3.6592,3.6454,3.6545,3.6656,3.6708,3.6808,3.7047,3.7227,3.7353,3.7451,3.6861,3.584,3.4159,3.3223,3.2691,3.2691,3.2653,3.2584,3.2471,3.1538,3.0903,3.077,2.9779,2.924,2.9302,2.9175,2.9089,2.9089,2.9218,2.939,2.9608,2.9736,3.036,3.1465,3.1465,3.1885,2.5658,0.0,2.8762,3.0231,3.2056,3.3706,3.457,3.5012,3.5119,3.4798,3.3595,3.2527,3.2289,3.2283,3.2733,3.3918,3.5137,3.5732,3.5126,3.5706,3.5494,3.3628,3.3882,0.0,0.0,0.0,0.0,3.7319,3.7899,3.8192,3.8192,3.8192,3.8192,3.8192,3.8192,3.8192,3.8192,3.8192,3.8192,3.8192,3.8192,3.8192,3.8192,3.821,3.8225,3.8241,3.8322,3.8354,3.8354,3.8446,3.8478,3.8446,3.8446,3.8478,3.8496,3.851,3.851,3.859,3.8658,3.8707,3.8707,3.8707,3.8707,3.8707,3.8707,3.8707,3.8707,3.8707,3.8707,3.8707,3.8707,3.8738,3.8646,3.8358,3.8315,3.8272,3.7985,3.7941,3.8,3.8079,3.8201,3.8319,3.8476,3.8633,3.8633,3.8279,3.7243,3.6088,3.4942,3.4063,3.3777,3.4312,3.336,3.2921,3.3443,3.1915,3.1148,3.1693,3.0113,2.9374,2.995,2.9361,2.904,2.904,2.9085,2.9203,2.9415,2.957,2.9938,3.044,3.1119,3.1599,2.7503,2.9172,3.0839,3.2346,3.3869,3.5201,3.5802,3.5737,3.5308,3.4497,3.2786,3.1381,3.1129,3.0784,3.1094,3.2786,3.4177,3.5015,3.5028,3.591,3.6001,3.4443,3.4715,0.0,0.0,0.0,0.0,3.77,3.8062,3.8192,3.8192,3.8192,3.8192,3.8192,3.8192,3.8192,3.8192,3.8192,3.8192,3.8192,3.8192,3.8192,3.8192,3.8192,3.8192,3.8192,3.8274,3.8274,3.8274,3.8368,3.8401,3.8368,3.8401,3.8401,3.8382,3.8415,3.8446,3.8478,3.8658,3.8707,3.8707,3.8707,3.8707,3.8707,3.8707,3.8707,3.8707,3.8707,3.8707,3.8707,3.8707,3.8707,3.8707,3.8707,3.8707,3.8707,3.8707,3.8707,3.8689,3.875,3.8881,3.8979,3.9064,3.9245,3.9201,3.8672,3.7566,3.6517,3.5766,3.4942,3.4636,3.5152,3.4254,3.37,3.3968,3.2653,3.1921,3.2165,3.0801,3.024,3.0757,3.0207,2.9885,2.9885,2.9609,2.9584,2.9844,2.9701,2.9921,3.0494,3.1424,3.2057,2.9816,3.1404,3.2927,3.4244,3.5256,3.5958,3.5924,3.5326,3.4459,3.341,3.1846,3.0438,0.0,0.0,2.9151,3.2057,3.2419,3.3164,3.5548,3.591,3.5892,0.0,0.0,0.0,0.0,0.0,0.0,3.708,0.0,3.8192,3.8192,3.8192,3.8192,3.8192,3.8192,3.8192,3.8192,3.8246,3.8264,3.828,3.828,3.8262,3.8192,3.8192,3.8192,3.8192,3.8274,3.8241,3.8225,3.8274,3.8307,3.8307,3.8225,3.8289,3.8401,3.8322,3.8354,3.8433,3.8627,3.8707,3.8707,3.8707,3.8707,3.8707,3.8707,3.8707,3.8707,3.8707,3.8707,3.8707,3.8707,3.8707,3.8707,3.8707,3.8707,3.8707,3.8707,3.8707,3.8707,3.8707,3.8707,3.8719,3.8792,3.9036,3.9063,3.8685,3.7898,3.7166,3.657,3.5744,3.5209,3.5209,3.5209,3.4885,3.412,3.3657,3.3088,3.2316,3.1812,3.156,3.1597,3.1513,3.1446,3.1483,3.0746,3.0528,3.0845,3.0152,3.0421,3.1565,3.2386,3.3223,3.2019,3.3279,3.4193,3.5098,3.5514,3.5559,3.5129,3.4023,3.2912,3.2115,2.9955,2.831,0.0,0.0,0.0,3.2325,3.3654,0.0,3.6476,3.7196,0.0,0.0,0.0,3.6761,3.6993,3.7011,0.0,0.0,3.8065,3.8192,3.8192,3.8192,3.8192,3.8192,3.8192,3.8192,3.8192,3.878,3.9103,3.9088,3.9088,3.8782,3.8192,3.8192,3.8192,3.8192,3.8225,3.8241,3.8274,3.8307,3.8307,3.8307,3.8274,3.8274,3.8274,3.8307,3.8354,3.8415,3.8528,3.8559,3.8559,3.8658,3.8707,3.8707,3.8707,3.8707,3.8707,3.8707,3.8707,3.8707,3.8707,3.8707,3.8707,3.8707,3.8707,3.8707,3.8707,3.8707,3.8719,3.8762,3.8762,3.8762,3.8719,3.895,3.9082,3.8992,3.8568,3.7849,3.6646,3.5744,3.5209,3.5209,3.5196,3.5119,3.4923,3.4072,3.3488,3.3337,3.1778,3.1129,3.1714,3.0978,3.0803,3.1391,3.128,3.1307,3.1551,3.1559,3.1769,3.2191,3.3198,3.3796,3.3863,3.4675,3.5165,3.5943,3.5622,3.4972,3.4372,3.2768,3.1155,3.0219,2.8152,0.0,0.0,0.0,0.0,0.0,0.0,0.0,3.5939,3.6717,3.7022,0.0,3.6876,0.0,3.737,3.7266,3.7446,0.0,3.8158,3.8192,3.8192,3.8192,3.8192,3.8192,3.8549,3.8873,3.9197,3.9319,3.957,3.9877,3.957,3.9317,3.9204,3.9224,3.9208,3.9206,0.0,3.924,3.9275,3.9275,3.9075,3.8767,3.8767,3.8534,3.8192,3.8241,3.8274,3.8322,3.8415,3.8446,3.8433,3.8627,3.8707,3.8707,3.8707,3.8707,3.8707,3.8707,3.8707,3.8707,3.8707,3.8707,3.8707,3.8707,3.8707,3.8707,3.8707,3.8707,3.8707,3.875,3.875,3.875,3.8707,3.8822,3.8979,3.9073,3.8621,3.8045,3.7432,3.6422,3.5596,3.5217,3.5164,3.5011,3.4609,3.3959,3.3412,3.3053,3.1877,3.1555,3.2298,3.1755,3.1765,3.2482,3.2151,3.209,3.2325,3.2212,3.226,3.2462,3.3522,3.3987,3.5402,3.5774,3.5943,3.662,3.5622,3.4295,3.3464,3.1574,2.9536,2.8084,0.0,2.5609,2.5688,0.0,2.7175,2.9471,0.0,3.2279,3.5029,3.5595,3.6266,3.7684,3.7283,3.715,3.7775,3.7577,3.7523,3.781,3.7951,3.8072,3.8106,3.8104,3.8174,3.8352,3.9039,3.9797,4.0662,4.0004,4.0034,4.0668,4.0016,4.0003,4.0508,4.051,4.0492,4.051,0.0,0.0,4.0365,4.0256,3.9822,3.9224,3.9224,3.8808,3.8192,3.8192,3.8225,3.8241,3.8336,3.8336,3.8354,3.8596,3.8658,3.8658,3.8658,3.8658,3.8658,3.8707,3.8707,3.8707,3.8707,3.8707,3.8707,3.8707,3.8707,3.8707,3.8707,3.8707,3.8707,3.8707,3.8707,3.8707,3.8707,3.8707,3.878,3.8989,3.8414,3.8082,3.8426,3.7222,3.6062,3.534,3.5169,3.4788,3.4063,3.3828,3.3317,3.2449,3.2255,3.2422,3.2966,3.2956,3.3235,3.3876,3.3136,3.2896,3.3125,3.2636,3.2542,3.2803,3.3699,3.4124,3.6332,3.6586,3.662,3.6755,3.5622,3.3981,3.2076,3.0366,0.0,0.0,0.0,2.5609,2.5688,2.679,0.0,3.1062,0.0,0.0,0.0,0.0,3.6133,0.0,0.0,0.0,0.0,0.0,0.0,0.0,0.0,3.7226,3.7522,3.7575,3.8101,3.9143,3.9337,4.0056,4.1487,4.1339,4.1355,4.1501,4.1337,4.0996,4.051,4.051,4.0492,4.0474,3.9858,0.0,3.9532,3.8862,3.8518,3.8391,3.8391,3.8301,3.8192,3.8192,3.8259,3.8274,3.8307,3.8354,3.8401,3.851,3.8496,3.8465,3.8528,3.8541,3.8559,3.8658,3.8707,3.8707,3.8707,3.8707,3.8707,3.8707,3.8707,3.8707,3.8707,3.8707,3.8707,3.8707,3.8707,3.8707,3.8707,3.8707,3.8738,3.875,3.882,3.8691,3.8228,3.6952,3.6064,3.6083,3.5456,3.5018,3.4954,3.4883,3.4395,3.3431,3.3181,3.3047,3.2913,3.2766,3.3033,3.3815,3.3713,3.3692,3.3751,3.3868,3.4027,3.424,3.4586,3.4827,3.705,3.703,3.6874,3.7263,3.5334,3.2865,3.1038,0.0,0.0,0.0,0.0,2.5079,2.5079,0.0,0.0,0.0,0.0,0.0,0.0,0.0,0.0,0.0,0.0,0.0,0.0,0.0,0.0,0.0,0.0,3.6759,3.7129,3.7184,3.7654,3.8676,3.8921,3.9806,4.1393,4.1193,4.1501,4.23,4.1486,4.1088,4.1107,4.0709,4.051,4.0492,4.013,0.0,3.9948,3.9568,3.917,3.8808,3.8808,3.8554,3.8192,3.8192,3.8225,3.8241,3.8274,3.8289,3.8322,3.8368,3.8401,3.8415,3.8478,3.851,3.851,3.8658,3.8707,3.8707,3.8707,3.8707,3.8707,3.8707,3.8707,3.8707,3.8707,3.8707,3.8707,3.8707,3.8707,3.8707,3.8707,3.8707,3.8707,3.8707,3.881,3.8802,3.8608,3.7567,3.6873,3.6881,3.6502,3.6122,3.5816,3.5341,3.4659,3.375,3.3091,3.2835,3.3063,3.2847,3.3103,3.3788,3.3815,3.3868,3.3895,3.4124,3.4321,3.4502,3.4772,3.4964,3.7494,3.7371,3.7127,3.755,3.4945,3.1816,3.0023,2.7537,0.0,0.0,2.382,2.4411,2.4503,0.0,0.0,0.0,0.0,0.0,0.0,0.0,0.0,0.0,0.0,0.0,0.0,0.0,0.0,0.0,0.0,0.0,3.6742,3.6799,3.722,3.8115,3.8438,3.9355,4.0853,4.0545,4.107,4.2376,4.1107,4.0818,4.1415,4.0782,4.051,4.051,4.0347,0.0,0.0,4.0093,3.9677,3.9134,3.9134,3.8753,3.8192,3.8192,3.8192,3.8225,3.8241,3.8241,3.8225,3.8241,3.8322,3.8368,3.8446,3.8478,3.851,3.8658,3.8707,3.8707,3.8707,3.8707,3.8707,3.8707,3.8707,3.8707,3.8707,3.8707,3.8707,3.8707,3.8707,3.8707,3.8707,3.8707,3.8707,3.8707,3.8707,3.878,3.896,3.8396,3.7917,3.7807,3.7494,3.6967,3.6273,3.559,3.4832,3.3997,3.3167,3.2874,3.3314,3.3178,3.332,3.3788,3.3807,3.3834,3.3868,3.4049,3.4197,3.4363,3.4672,3.487,3.7542,3.7759,3.7652,3.7043,3.4556,3.1529,2.8687,0.0,0.0,2.292,2.3085,2.3828,2.4552,0.0,0.0,0.0,0.0,0.0,0.0,0.0,0.0,0.0,0.0,0.0,0.0,0.0,0.0,0.0,0.0,0.0,3.6348,3.642,3.7024,3.8234,3.8303,3.8919,4.0175,4.0029,4.0197,4.0708,4.0563,4.0527,4.0619,4.0546,4.051,4.0474,3.9786,0.0,0.0,3.8699,3.8355,3.8301,3.8301,3.8264,3.8192,3.8192,3.8192,3.8192,3.8225,3.8225,3.8192,3.8225,3.8225,3.8241,3.8368,3.8415,3.8465,3.8658,3.8707,3.8707,3.8707,3.8707,3.8707,3.8707,3.8707,3.8707,3.8707,3.8707,3.8707,3.8707,3.8707,3.8707,3.8707,3.8707,3.8707,3.8707,3.8707,3.878,3.896,3.8915,3.8934,3.91,3.7754,3.6616,3.5975,3.5864,3.5426,3.4486,3.4352,3.413,3.3758,3.375,3.3742,3.3807,3.3807,3.3788,3.3807,3.3834,3.3972,3.4221,3.4439,3.4674,3.6047,3.6797,3.7043,3.6282,3.3508,3.0429,2.8298,0.0,2.39,2.2609,2.3311,2.4258,2.4547,0.0,0.0,0.0,0.0,0.0,0.0,0.0,0.0,0.0,0.0,0.0,0.0,0.0,0.0,0.0,0.0,0.0,3.587,3.5887,3.6151,3.6672,3.6939,3.7532,3.8508,3.9427,4.0167,4.0753,4.1033,4.0853,4.0329,4.0329,4.0077,3.9644,3.9409,0.0,0.0,3.9009,3.8627,3.8246,3.8717,3.8627,3.8192,3.8192,3.8192,3.8192,3.8192,3.8192,3.8192,3.8192,3.8192,3.8225,3.8368,3.8415,3.8478,3.8658,3.8707,3.8707,3.8707,3.8707,3.8707,3.8707,3.8707,3.8707,3.8707,3.8707,3.8707,3.8707,3.8707,3.8707,3.8707,3.8707,3.8707,3.8707,3.8707,3.8719,3.8792,3.8822,3.8851,3.8921,3.8561,3.8047,3.7461,3.7451,3.6927,3.5664,3.5383,3.4959,3.424,3.3947,3.3807,3.3807,3.3807,3.3807,3.3807,3.3807,3.3868,3.4023,3.4353,3.4572,3.4145,3.5279,3.5876,3.4878,3.2188,2.9313,0.0,0.0,2.3289,2.2474,2.3266,2.4091,2.4211,2.5314,0.0,0.0,0.0,2.7334,0.0,0.0,0.0,0.0,0.0,0.0,0.0,0.0,0.0,0.0,0.0,0.0,0.0,3.5622,3.561,3.5677,3.6002,3.6473,3.7171,3.8297,3.9284,4.021,4.0321,4.02,3.9913,3.9643,3.9193,3.8654,0.0,0.0,0.0,3.9138,3.8829,3.8194,3.8755,3.8681,3.8192,3.8192,3.8337,3.85,3.8264,3.8355,3.85,3.8264,3.8225,3.8241,3.8336,3.8401,3.8465,3.8578,3.8627,3.8658,3.8658,3.8658,3.8707,3.8707,3.8707,3.8707,3.8707,3.8707,3.8707,3.8707,3.8707,3.8707,3.8707,3.8707,3.8707,3.8707,3.8707,3.8707,3.8707,3.8707,3.8707,3.8707,3.895,3.8883,3.8252,3.8249,3.7627,3.6174,3.5894,3.5342,3.4423,3.4074,3.3895,3.3815,3.3807,3.3807,3.3815,3.3815,3.3842,3.3921,3.433,3.4614,3.1999,3.3322,3.4167,3.2679,3.0649,2.8399,0.0,0.0,2.3526,2.2586,2.2623,2.2953,2.3431,2.4109,2.4842,2.5507,0.0,0.0,0.0,0.0,0.0,0.0,0.0,0.0,0.0,0.0,0.0,0.0,0.0,0.0,0.0,3.5622,3.5673,3.5802,3.5802,3.6,3.6412,3.6361,3.7119,3.8611,3.7824,3.806,3.9175,3.833,3.7775,0.0,0.0,0.0,0.0,3.8635,3.8671,3.7984,3.8002,3.8088,3.8192,3.8192,3.8699,3.926,3.8464,3.8717,3.926,3.8445,3.8241,3.8307,3.8307,3.8307,3.834,3.8401,3.8446,3.851,3.851,3.8609,3.8707,3.8707,3.8707,3.8707,3.8707,3.8707,3.8707,3.8707,3.8707,3.8707,3.8707,3.8707,3.8707,3.8707,3.8707,3.8707,3.8707,3.8707,3.8707,3.8707,3.8707,3.8431,3.7776,3.7701,3.7124,3.5707,3.5666,3.5221,3.4161,3.4173,3.4099,3.3895,3.3815,3.3815,3.3895,3.3895,3.3895,3.3921,3.4375,3.4813,2.9158,3.016,3.0653,2.9519,2.7943,2.6353,2.5118,0.0,2.2961,2.2657,2.3215,2.3789,2.3954,2.5021,2.587,2.5887,2.7158,0.0,0.0,0.0,0.0,0.0,0.0,0.0,0.0,0.0,0.0,0.0,0.0,0.0,0.0,3.5622,3.5639,3.5673,3.5673,3.5707,3.5853,3.6679,3.7318,3.7711,3.8281,3.8461,3.8272,3.8531,0.0,0.0,0.0,0.0,0.0,3.9571,3.9121,3.7811,3.9175,3.9081,3.8264,3.8808,3.917,3.9441,3.9695,3.9604,3.9351,3.9097,3.866,3.8225,3.8225,3.8289,3.8368,3.8382,3.8446,3.851,3.851,3.8609,3.8707,3.8707,3.8707,3.8707,3.8707,3.8707,3.8707,3.8707,3.8707,3.8707,3.8707,3.8707,3.8707,3.8707,3.8707,3.8707,3.8707,3.8707,3.8707,3.8707,3.8707,3.867,3.8571,3.8782,3.8297,3.6784,3.6785,3.6101,3.4442,3.4269,3.4074,3.386,3.386,3.3868,3.3895,3.3947,3.4105,3.4375,3.4529,3.4813,0.0,2.7851,2.8404,2.745,2.6339,0.0,0.0,0.0,2.2977,2.2876,2.342,2.3904,2.3804,2.5041,2.602,2.5791,2.6951,0.0,0.0,0.0,0.0,0.0,0.0,0.0,0.0,0.0,0.0,0.0,0.0,0.0,0.0,3.5622,3.5622,3.5622,3.5622,3.5622,3.5622,3.6368,3.6964,3.7317,3.7733,3.792,3.7847,3.8014,0.0,0.0,0.0,0.0,0.0,3.9149,3.8832,3.7612,3.8995,3.899,3.8282,3.9097,3.9568,3.9876,4.0347,4.0202,3.9767,3.9478,3.8844,3.8192,3.8225,3.8274,3.8336,3.8336,3.8433,3.8551,3.8912,3.8847,3.8781,3.9061,3.8847,3.8609,3.8609,3.8609,3.8658,3.8707,3.8707,3.8707,3.8707,3.8707,3.8707,3.8707,3.8707,3.8707,3.8707,3.8707,3.8707,3.8707,3.8707,3.875,3.8862,3.9165,3.8821,3.7633,3.7438,3.6644,3.5023,3.4535,3.4179,3.3868,3.3895,3.3921,3.3972,3.4023,3.4232,3.4632,3.4632,3.4832,0.0,0.0,0.0,0.0,0.0,0.0,0.0,0.0,0.0,0.0,2.3348,2.3458,2.3259,2.4461,2.5473,2.5499,2.6591,0.0,0.0,0.0,0.0,0.0,0.0,0.0,0.0,0.0,0.0,0.0,0.0,0.0,0.0,3.5622,3.5622,3.5622,3.5622,3.5622,3.5622,3.5622,3.6123,3.7153,3.6423,3.6628,3.7707,3.6887,0.0,0.0,0.0,0.0,0.0,3.7782,3.8011,3.7413,3.7899,3.8142,3.8282,3.9152,3.9912,4.0528,4.0582,4.0564,4.0383,3.9568,3.879,3.8225,3.8274,3.8241,3.8225,3.8307,3.8354,3.8597,3.9465,3.9213,3.886,3.9566,3.9095,3.851,3.851,3.851,3.8559,3.8676,3.8707,3.8707,3.8707,3.8707,3.8707,3.8707,3.8707,3.8707,3.8707,3.8707,3.8707,3.8707,3.8707,3.8707,3.8707,3.895,3.8811,3.8134,3.763,3.6904,3.5829,3.4989,3.4423,3.4072,3.3983,3.3972,3.4099,3.4099,3.4321,3.4694,3.4694,3.4889,2.3283,0.0,2.4438,2.4098,2.3897,0.0,0.0,0.0,0.0,0.0,0.0,2.3909,2.4437,2.5355,2.6164,2.6569,2.8379,0.0,0.0,0.0,0.0,0.0,0.0,0.0,0.0,0.0,0.0,0.0,0.0,0.0,0.0,3.5622,3.5622,3.5622,3.569,3.569,3.5622,3.5622,3.5735,3.5994,3.5824,3.5885,3.611,3.5956,0.0,0.0,0.0,0.0,3.6395,3.798,3.7993,3.7164,3.8528,3.8717,3.8355,3.9749,4.0365,4.06,4.1216,4.1035,4.0293,3.8916,3.8404,3.8274,3.8307,3.8307,3.8307,3.8336,3.8415,3.8515,3.8766,3.8755,3.8744,3.8915,3.8805,3.8658,3.8658,3.8658,3.8658,3.8707,3.8707,3.8707,3.8707,3.8707,3.8707,3.8707,3.8707,3.8707,3.8707,3.875,3.8762,3.8762,3.8762,3.8762,3.8762,3.9017,3.8811,3.8,3.8013,3.7573,3.6503,3.5634,3.5082,3.4833,3.4312,3.4099,3.4173,3.4173,3.4367,3.4694,3.4753,3.4963,2.2228,2.3085,2.384,2.3699,2.3723,2.3785,0.0,0.0,0.0,0.0,0.0,0.0,2.4375,0.0,0.0,0.0,0.0,0.0,0.0,0.0,0.0,0.0,0.0,0.0,0.0,0.0,0.0,0.0,0.0,0.0,0.0,3.5622,3.5622,3.5622,3.5718,3.5718,3.5622,3.5673,3.5673,3.5622,3.5667,3.5667,3.5667,3.5756,3.5915,0.0,0.0,0.0,3.6251,3.7218,3.7404,3.7087,3.8187,3.8451,3.8337,3.955,4.0003,4.0111,4.089,4.0655,3.9855,3.8655,3.8322,3.8354,3.8368,3.8401,3.8401,3.8446,3.8478,3.8601,3.9048,3.8915,3.8799,3.9122,3.8902,3.8609,3.8609,3.8609,3.8609,3.8707,3.8707,3.8707,3.8707,3.8707,3.8707,3.8707,3.8707,3.8707,3.875,3.8762,3.8822,3.8833,3.8851,3.8851,3.8851,3.9007,3.8943,3.8532,3.8402,3.7868,3.6845,3.5957,3.5219,3.4637,3.4321,3.4173,3.4197,3.4221,3.4386,3.467,3.4792,3.4963,2.1578,2.292,2.4063,2.4008,2.4209,2.4424,0.0,0.0,0.0,0.0,0.0,0.0,0.0,0.0,0.0,0.0,0.0,0.0,0.0,0.0,0.0,0.0,0.0,0.0,0.0,0.0,0.0,0.0,0.0,0.0,0.0,3.5667,3.5667,3.5667,3.5817,3.5817,3.5667,3.5779,3.5796,3.5639,3.5773,3.5817,3.5817,3.5932,3.6019,0.0,0.0,0.0,3.6019,3.6308,3.6678,3.7052,3.7468,3.7792,3.8162,3.901,3.9299,3.9319,3.995,3.9787,3.913,3.847,3.8285,3.835,3.8415,3.8478,3.8541,3.8541,3.8541,3.8706,3.9515,3.9203,3.8841,3.9475,3.9058,3.8541,3.8541,3.8541,3.8559,3.8658,3.8707,3.8738,3.8738,3.8719,3.8719,3.8719,3.8719,3.875,3.8822,3.8822,3.8833,3.891,3.8939,3.8939,3.8939,3.8968,3.9036,3.9156,3.8727,3.8051,3.7069,3.6317,3.5423,3.4328,3.4377,3.4426,3.4426,3.4498,3.467,3.498,3.5209,3.5381,2.1662,2.2731,2.3584,2.3454,2.4036,2.462,0.0,0.0,0.0,0.0,0.0,0.0,0.0,0.0,0.0,0.0,0.0,0.0,0.0,0.0,0.0,0.0,0.0,0.0,0.0,0.0,0.0,0.0,0.0,0.0,0.0,3.5932,3.5932,3.5932,3.6085,3.6085,3.5932,3.5941,3.5975,3.5946,3.5966,3.5975,3.5975,3.5975,3.6019,3.6019,0.0,3.5975,3.6019,3.6409,3.6615,3.6696,3.7111,3.7301,3.7465,3.8636,3.885,3.8584,3.8691,3.8454,3.7989,3.7667,3.7792,3.8086,3.8135,3.8401,3.8658,3.8658,3.8658,3.8695,3.8854,3.8799,3.8744,3.8823,3.8768,3.8658,3.8658,3.8658,3.8676,3.8707,3.875,3.8792,3.8792,3.8822,3.8881,3.8881,3.8881,3.8881,3.8862,3.8921,3.8979,3.8979,3.8979,3.8979,3.8979,3.8979,3.9007,3.9036,3.8934,3.8507,3.7627,3.7488,3.6782,3.5312,3.5343,3.5416,3.5464,3.5464,3.5918,3.6738,3.6971,3.7167,2.0514,2.139,2.2284,2.268,2.3851,0.0,0.0,0.0,0.0,0.0,0.0,0.0,0.0,0.0,0.0,0.0,0.0,0.0,0.0,0.0,0.0,0.0,0.0,0.0,0.0,0.0,0.0,0.0,0.0,0.0,0.0,0.0,3.6019,3.6019,3.6104,3.6182,3.6104,3.6131,3.6088,3.6,3.6053,3.6096,3.6122,3.6148,3.6174,3.6174,0.0,3.6105,3.6174,3.6318,3.6509,3.6736,3.6917,3.7073,3.7261,3.7804,3.7947,3.7871,3.7909,3.7826,3.7756,3.7845,3.8002,3.8171,3.8368,3.8546,3.8707,3.8707,3.8707,3.8707,3.8707,3.8707,3.8707,3.875,3.8732,3.8762,3.881,3.881,3.881,3.881,3.8822,3.8833,3.8833,3.8881,3.891,3.891,3.891,3.8892,3.895,3.8979,3.9036,3.912,3.9092,3.9064,3.9101,3.912,3.9073,3.9064,3.8656,3.8248,3.7877,3.7458,3.6942,3.6273,3.6279,3.6304,3.6352,3.6376,3.6635,3.7042,3.7286,3.747,1.9763,2.0455,2.1317,0.0,0.0,0.0,0.0,0.0,0.0,0.0,0.0,0.0,0.0,0.0,0.0,0.0,0.0,0.0,0.0,0.0,0.0,0.0,0.0,0.0,0.0,0.0,0.0,0.0,0.0,0.0,0.0,0.0,3.6062,3.6062,3.6208,3.626,3.626,3.6362,3.6268,3.6062,3.6182,3.6225,3.6208,3.6276,3.6301,3.6301,3.6251,3.6276,3.6343,3.6293,3.6444,3.6753,3.6753,3.6935,3.7188,3.7129,3.7281,3.7504,3.7339,3.7413,3.7613,3.7863,3.8002,3.8104,3.8401,3.8578,3.8658,3.8719,3.875,3.875,3.8719,3.8719,3.875,3.8822,3.8822,3.8851,3.891,3.891,3.891,3.891,3.8892,3.8921,3.8921,3.8921,3.895,3.895,3.895,3.8979,3.9036,3.9036,3.9166,3.949,3.9481,3.9481,3.9535,3.9535,3.9434,3.9202,3.8579,3.8271,3.8342,3.7746,3.7349,3.7242,3.7242,3.7242,3.7272,3.7338,3.7432,3.7643,3.7829,3.802,2.0513,2.0928,2.1396,2.218,0.0,0.0,0.0,0.0,0.0,0.0,0.0,0.0,0.0,0.0,0.0,0.0,0.0,0.0,0.0,0.0,0.0,0.0,0.0,0.0,0.0,0.0,0.0,0.0,0.0,0.0,0.0,0.0,0.0,3.6301,3.6402,3.6496,3.6498,3.6627,3.6533,3.6301,3.6301,3.6301,3.6301,3.6301,3.6301,3.6301,3.6301,3.636,3.6502,3.6502,3.6561,3.6702,3.6702,3.693,3.715,3.6869,3.7185,3.7667,3.697,3.697,3.7188,3.6992,3.7069,3.7358,3.7808,3.8183,3.8496,3.8803,3.8881,3.8881,3.8822,3.8792,3.8822,3.8881,3.8892,3.8892,3.891,3.891,3.891,3.891,3.895,3.8979,3.8979,3.9045,3.9073,3.9073,3.9073,3.9101,3.9183,3.9183,3.9508,4.0419,4.0493,4.0493,4.0512,4.0512,4.0184,3.9432,3.9324,3.9298,3.9298,3.9242,3.8883,3.8201,3.8182,3.8254,3.8369,3.8388,3.8784,3.9519,3.97,3.9888,2.0055,2.064,2.1271,2.1578,0.0,0.0,0.0,0.0,0.0,0.0,0.0,0.0,0.0,0.0,0.0,0.0,0.0,0.0,0.0,0.0,0.0,0.0,0.0,0.0,0.0,0.0,0.0,0.0,0.0,0.0,0.0,0.0,0.0,3.6544,3.6602,3.662,3.6613,3.6689,3.6643,3.6533,3.6533,3.6561,3.6554,3.6561,3.6544,3.6544,3.6544,3.6602,3.6643,3.6643,3.6643,3.6702,3.6702,3.6766,3.6851,3.6725,3.6948,3.7261,3.6987,3.7066,3.7261,3.7337,3.7431,3.7577,3.7913,3.8117,3.8234,3.8382,3.8396,3.846,3.8773,3.8862,3.8881,3.8968,3.895,3.8979,3.9036,3.9017,3.9017,3.9017,3.9045,3.9045,3.9045,3.9575,3.977,3.9175,3.9602,3.9779,3.9258,3.921,3.9368,3.9855,3.9937,3.9937,3.9937,3.9937,3.9813,3.9602,3.9464,3.9439,3.9514,3.9514,3.9414,3.9166,3.9171,3.9213,3.926,3.926,3.941,3.9689,3.9781,3.9916,1.9741,2.0337,2.0948,0.0,0.0,0.0,0.0,0.0,0.0,0.0,0.0,0.0,0.0,0.0,0.0,0.0,0.0,0.0,0.0,0.0,0.0,0.0,0.0,0.0,0.0,0.0,0.0,0.0,0.0,0.0,0.0,0.0,0.0,0.0,3.6255,3.6354,3.6383,3.6441,3.6596,3.6847,3.6811,3.676,3.6713,3.6719,3.6702,3.6725,3.6702,3.6603,3.6417,3.662,3.6766,3.6829,3.6886,3.6886,3.6886,3.6886,3.6965,3.7105,3.7105,3.7182,3.7334,3.7503,3.7595,3.7667,3.7966,3.8068,3.8135,3.8252,3.8267,3.8364,3.8844,3.8921,3.8844,3.895,3.9054,3.9138,3.9175,3.9202,3.9202,3.9202,3.9202,3.9202,3.9202,3.9713,3.9927,3.9295,3.9759,3.9935,3.9357,3.9283,3.9447,3.9877,4.0164,4.0227,3.9958,3.9946,3.9908,3.9741,3.9594,3.9551,3.9642,3.9642,3.9665,3.9735,3.9735,3.9735,3.9758,3.9758,3.9758,3.9781,3.9781,3.9895,1.9792,2.0101,0.0,0.0,0.0,0.0,0.0,0.0,0.0,0.0,0.0,0.0,0.0,0.0,0.0,0.0,0.0,0.0,0.0,0.0,0.0,0.0,0.0,0.0,0.0,0.0,0.0,0.0,0.0,0.0,0.0,0.0,0.0,0.0,3.5252,3.5702,3.5694,3.5871,3.6344,3.7079,3.7079,3.6961,3.6702,3.6702,3.6725,3.6788,3.6725,3.6369,3.5861,3.6536,3.693,3.7108,3.7259,3.7297,3.7297,3.7297,3.7297,3.7297,3.7297,3.7297,3.7314,3.7297,3.7354,3.7485,3.788,3.8052,3.8168,3.8596,3.867,3.8676,3.8998,3.8894,3.8748,3.8892,3.9166,3.9418,3.9418,3.9418,3.9418,3.9418,3.9418,3.9418,3.9418,3.9418,3.9418,3.9418,3.9418,3.9436,3.9495,3.9514,3.9839,4.0722,4.1562,4.1782,4.0973,4.0947,4.0641,3.986,3.9804,3.9781,3.9712,3.9689,3.9735,3.9804,3.9804,3.9826,3.9911,3.9911,3.9933,3.9996,3.9996,4.0118,2.0035,0.0,0.0,0.0,0.0,0.0,0.0,0.0,0.0,0.0,0.0,0.0,0.0,0.0,0.0,0.0,0.0,0.0,0.0,0.0,0.0,0.0,0.0,0.0,0.0,0.0,0.0,0.0,0.0,0.0,0.0,0.0,0.0,0.0,3.5083,3.5151,3.515,3.52,3.5325,3.556,3.5574,3.6101,3.7122,3.7031,3.7031,3.7143,3.7105,3.702,3.6847,3.7076,3.7182,3.7259,3.7317,3.7354,3.7392,3.7484,3.754,3.7577,3.7577,3.7649,3.7739,3.7792,3.781,3.7845,3.8018,3.8068,3.8135,3.8252,3.8336,3.8401,3.8396,3.8566,3.8818,3.9227,3.9401,3.9471,3.9471,3.9471,3.9471,3.9471,3.9471,3.9471,3.9471,4.0027,4.0215,3.9564,4.0046,4.024,3.9639,4.0188,4.0731,4.1,4.1227,4.1307,4.1062,4.0448,4.0019,3.9886,3.9867,3.9889,3.9911,3.9911,3.9933,4.0015,4.0015,4.0015,4.0036,4.0036,4.0057,4.0077,4.0077,4.0098,2.0183,0.0,0.0,0.0,0.0,0.0,0.0,0.0,0.0,0.0,0.0,0.0,0.0,0.0,0.0,0.0,0.0,0.0,0.0,0.0,0.0,0.0,0.0,0.0,0.0,0.0,0.0,0.0,0.0,0.0,0.0,0.0,0.0,0.0,3.4673,3.4652,3.4668,3.4641,3.4782,3.5066,3.5047,3.5614,3.6595,3.6323,3.6302,3.6447,3.6468,3.6841,3.7392,3.7146,3.7199,3.7466,3.754,3.7577,3.7613,3.7721,3.7774,3.781,3.7845,3.7915,3.7985,3.8018,3.8086,3.8153,3.8219,3.8267,3.83,3.83,3.835,3.8433,3.8523,3.8718,3.8952,3.9127,3.9338,3.9526,3.9526,3.9599,3.9647,3.9647,3.9647,3.9647,3.9647,4.0127,4.0297,3.9746,4.0146,4.0321,3.9788,4.0235,4.0624,4.0624,4.0666,4.0514,4.0173,3.964,3.9399,3.9502,3.9483,3.9677,4.0099,4.0058,4.0057,4.0117,4.0117,4.0117,4.0117,4.0137,4.0138,4.0138,4.0177,4.0215,0.0,0.0,0.0,0.0,0.0,0.0,0.0,0.0,0.0,0.0,0.0,0.0,0.0,0.0,0.0,0.0,0.0,0.0,0.0,0.0,0.0,0.0,0.0,0.0,0.0,0.0,0.0,0.0,0.0,0.0,0.0,0.0,0.0,3.3857,3.4032,3.4165,3.4165,3.4096,3.4357,3.5013,3.5101,3.5199,3.5291,3.5028,3.5049,3.5279,3.5437,3.6344,3.7596,3.6986,3.7146,3.7739,3.7881,3.7934,3.7934,3.8002,3.7998,3.7962,3.8083,3.808,3.8077,3.815,3.83,3.8446,3.8478,3.8585,3.8688,3.8688,3.8718,3.8789,3.9053,3.9133,3.9043,3.8654,3.8995,3.9462,3.9534,3.969,3.9819,3.9819,3.9876,3.9933,3.9933,3.9933,3.9933,3.9933,3.9933,3.9933,3.9933,3.9989,4.0046,4.0046,4.011,3.981,3.8936,3.8822,3.8823,3.8821,3.8897,3.9334,4.0189,4.0139,4.0118,4.0138,4.0138,4.0138,4.0158,4.0215,4.0252,4.0251,4.0304,4.0386,0.0,0.0,0.0,0.0,0.0,0.0,0.0,0.0,0.0,0.0,0.0,0.0,0.0,0.0,0.0,0.0,0.0,0.0,0.0,0.0,0.0,0.0,0.0,0.0,0.0,0.0,0.0,0.0,0.0,0.0,0.0,0.0,0.0,3.4504,3.3664,3.3155,3.3055,3.2863,3.2823,0.0,3.3513,3.3811,3.3873,3.4794,3.5621,3.6378,3.709,3.7608,3.7915,3.7837,3.7889,3.8052,3.8156,3.8207,3.8223,3.8303,3.7949,3.7525,3.8196,3.8071,3.7753,3.8493,3.8785,3.8913,3.9119,3.9208,3.9257,3.9408,3.9505,3.9383,3.8731,3.8622,3.849,3.7766,3.825,3.8928,3.9089,3.9166,3.9185,3.9185,3.97,4.0139,4.0139,4.0139,4.0139,4.0139,4.0139,4.0139,4.0139,4.0788,4.1227,4.1227,4.1246,4.092,4.0101,3.9432,3.8789,3.8234,3.8839,3.9328,3.9581,4.0013,4.0304,4.0408,4.0415,4.0477,4.0572,4.0584,4.0584,4.0584,4.0616,4.0629,0.0,0.0,0.0,0.0,0.0,0.0,0.0,0.0,0.0,0.0,0.0,0.0,0.0,0.0,0.0,0.0,0.0,0.0,0.0,0.0,0.0,0.0,0.0,0.0,0.0,0.0,0.0,0.0,0.0,0.0,0.0,3.3903,3.3802,3.3853,3.3033,3.2578,3.2519,3.227,3.2118,3.2072,3.2763,3.3327,3.3755,3.4293,3.4975,3.5774,3.6326,3.6802,3.7179,3.721,3.7534,3.7959,3.7658,3.7779,3.8114,3.7812,3.7442,3.7182,3.7681,3.7612,3.7392,3.7891,3.8116,3.8196,3.8357,3.8407,3.8477,3.8582,3.8624,3.8552,3.8097,3.8017,3.7997,3.7662,3.789,3.8214,3.8362,3.845,3.852,3.852,3.8865,3.9152,3.9152,3.9152,3.9287,3.967,3.9727,3.9593,3.921,3.9917,4.0298,3.9934,3.9887,3.9707,3.9319,3.8902,3.8672,3.8731,3.9129,3.9594,4.0056,4.0372,4.0563,4.06,4.0602,4.0622,4.0694,4.0729,4.0754,4.0742,4.074,4.0791,0.0,0.0,0.0,0.0,0.0,0.0,0.0,0.0,0.0,0.0,0.0,0.0,0.0,0.0,0.0,0.0,0.0,0.0,0.0,0.0,0.0,0.0,0.0,0.0,0.0,0.0,0.0,0.0,0.0,3.3138,3.313,3.3015,3.2954,3.2974,3.2487,3.2197,3.2187,3.1931,3.1787,3.1763,3.2408,3.3078,3.378,3.3576,3.3979,3.4877,3.5183,3.5742,3.6416,3.6443,3.6972,3.7698,3.7038,3.7218,3.7778,3.7169,3.6859,3.6795,3.7046,3.7055,3.6984,3.7152,3.7272,3.7393,3.7413,3.7471,3.7528,3.7547,3.7564,3.7544,3.7446,3.7471,3.7509,3.7536,3.7406,3.7333,3.7543,3.7717,3.7829,3.7829,3.7964,3.8046,3.8046,3.8046,3.8277,3.8931,3.9027,3.8864,3.8348,3.8863,3.9075,3.8543,3.8472,3.8458,3.8382,3.8431,3.8704,3.9299,3.9463,3.9879,4.0607,4.0772,4.0837,4.0775,4.0757,4.0761,4.0762,4.0818,4.0859,4.0849,4.0846,4.0898,0.0,0.0,0.0,0.0,0.0,0.0,0.0,0.0,0.0,0.0,0.0,0.0,0.0,0.0,0.0,0.0,0.0,0.0,0.0,0.0,0.0,0.0,0.0,0.0,0.0,0.0,0.0,0.0,3.3269,3.3243,3.3193,3.3165,3.3189,3.3236,3.2352,3.1806,3.1685,3.1553,3.138,3.1215,3.1998,3.2392,3.247,3.26,3.3693,3.5509,3.6307,3.6705,3.6831,3.6944,3.7088,3.7205,3.7092,3.7115,3.7219,3.7106,3.672,3.631,3.703,3.6901,3.652,3.7294,3.7578,3.7678,3.7851,3.7945,3.8035,3.8146,3.8169,3.8029,3.7321,3.7159,3.6974,3.6254,3.6012,3.6153,3.6921,3.7109,3.7128,3.7128,3.7752,3.8246,3.8246,3.8271,3.8296,3.84,3.842,3.8665,3.9306,3.947,3.9768,4.0361,4.0427,4.0163,3.9546,3.9496,3.9286,3.8745,3.9372,3.984,4.0016,4.0681,4.1052,4.1052,4.098,4.1,4.1051,4.1064,4.1064,4.1068,4.1069,4.1071,0.0,0.0,0.0,0.0,0.0,0.0,0.0,0.0,0.0,0.0,0.0,0.0,0.0,0.0,0.0,0.0,0.0,0.0,0.0,0.0,0.0,0.0,0.0,0.0,0.0,0.0,0.0,0.0,3.1499,3.1562,3.1032,3.1514,3.1805,3.1846,3.1409,3.1162,3.1106,3.1003,3.1079,3.1333,3.1804,3.2216,3.2607,3.279,3.3182,3.3714,3.4207,3.4434,3.4472,3.5022,3.5608,3.6153,3.6134,3.6474,3.6871,3.6389,3.6036,3.5867,3.6255,3.6204,3.6017,3.645,3.6582,3.6597,3.6689,3.6736,3.6771,3.6826,3.6849,3.6757,3.6406,3.6317,3.6226,3.5835,3.5742,3.586,3.6249,3.6306,3.6264,3.6264,3.659,3.6994,3.7436,3.7137,3.7001,3.7455,3.7514,3.7653,3.8037,3.8512,3.8947,3.9252,3.9315,3.9414,3.957,3.9626,3.9708,3.9814,3.9741,3.9706,3.9726,3.9589,3.9541,3.9526,4.0062,4.0562,4.1033,4.0059,4.0059,4.0915,4.0472,4.0496,0.0,0.0,0.0,0.0,0.0,0.0,0.0,0.0,0.0,0.0,0.0,0.0,0.0,0.0,0.0,0.0,0.0,0.0,0.0,0.0,0.0,0.0,0.0,0.0,0.0,0.0,0.0,0.0,2.9522,2.9741,2.9305,2.9732,3.009,3.0305,3.0325,3.0208,2.9996,3.0156,3.056,3.1191,3.1375,3.1758,3.2273,3.2463,3.2265,3.1833,3.2417,3.2664,3.2699,3.3379,3.4251,3.5174,3.5168,3.5721,3.647,3.5828,3.562,3.566,3.5718,3.5698,3.5715,3.5775,3.5749,3.5703,3.5728,3.574,3.574,3.574,3.5737,3.5734,3.5734,3.5737,3.574,3.574,3.5749,3.5791,3.5804,3.5749,3.5737,3.5734,3.5734,3.591,3.6482,3.6108,3.5988,3.6811,3.6928,3.71,3.7523,3.8147,3.8615,3.8764,3.8839,3.9126,3.9774,3.9666,3.9824,4.0441,3.9693,3.9235,3.9235,3.8624,3.8364,3.8568,3.9074,3.9637,4.0292,3.921,3.9307,4.0461,3.9846,4.0005,0.0,0.0,0.0,0.0,0.0,0.0,0.0,0.0,0.0,0.0,0.0,0.0,0.0,0.0,0.0,0.0,0.0,0.0,0.0,0.0,0.0,0.0,0.0,0.0,0.0,0.0,0.0,0.0,2.8008,2.8384,2.9165,2.8468,2.8427,2.9248,2.9289,2.888,2.8042,2.887,2.9638,3.0355,3.0505,3.0559,3.0521,3.0664,3.0716,3.0781,3.2449,3.3121,3.309,3.3191,3.3754,3.4545,3.4545,3.5067,3.585,3.5791,3.5788,3.5797,3.5797,3.5744,3.5708,3.5778,3.5742,3.5717,3.5779,3.5785,3.5785,3.5785,3.5781,3.5774,3.5774,3.5781,3.5785,3.5785,3.5755,3.5725,3.5792,3.5803,3.5783,3.5786,3.5774,3.5786,3.5767,3.5717,3.5987,3.6858,3.6993,3.7602,3.9254,3.9497,3.982,4.0586,4.0664,4.0684,4.0731,3.9975,3.951,3.9558,3.8753,3.8278,3.8278,3.8239,3.8559,3.9335,3.847,3.8114,3.8354,3.9083,3.949,3.9568,3.9529,3.9976,0.0,0.0,0.0,0.0,0.0,0.0,0.0,0.0,0.0,0.0,0.0,0.0,0.0,0.0,0.0,0.0,0.0,0.0,0.0,0.0,0.0,0.0,0.0,0.0,0.0,0.0,0.0,0.0,0.0,2.7402,2.7172,2.7416,2.7723,2.8041,2.8007,2.7823,2.752,2.7951,2.8492,2.9158,2.9322,2.9392,2.9381,2.9591,2.9721,2.9809,3.0464,3.1055,3.1644,3.2791,3.3122,3.2992,3.4088,3.4685,3.5022,3.5549,3.5742,3.5734,3.5742,3.5722,3.5695,3.5723,3.569,3.5638,3.5662,3.5674,3.5666,3.5666,3.5674,3.5681,3.5681,3.5674,3.5654,3.556,3.5402,3.5273,3.5292,3.5388,3.5488,3.5479,3.5373,3.5293,3.5254,3.5254,3.5525,3.637,3.6487,3.7097,3.8738,3.8948,3.9272,4.0072,4.0168,4.0168,4.0168,3.9863,3.9674,3.9639,3.8856,3.836,3.8268,3.7772,3.7639,3.7925,3.808,3.8607,3.9552,3.8733,3.8883,3.9865,3.9307,3.95,0.0,0.0,0.0,0.0,0.0,0.0,0.0,0.0,0.0,0.0,0.0,0.0,0.0,0.0,0.0,0.0,0.0,0.0,0.0,0.0,0.0,0.0,0.0,0.0,0.0,0.0,0.0,0.0,0.0,0.0,2.5891,2.6233,2.655,2.6821,2.6522,2.6626,2.7153,2.7044,2.73,2.7926,2.8082,2.815,2.8137,2.8341,2.8501,2.8633,2.9264,2.9978,3.0781,3.1934,3.2226,3.2109,3.3496,3.4218,3.4567,3.5366,3.5672,3.5676,3.5665,3.5641,3.5626,3.5629,3.5554,3.5468,3.5435,3.5388,3.5355,3.534,3.5326,3.5307,3.5307,3.5307,3.5277,3.5181,3.5028,3.4905,3.4905,3.5257,3.5589,3.5553,3.5699,3.5704,3.5419,3.559,3.5856,3.6141,3.6388,3.6958,3.8058,3.821,3.8398,3.8947,3.8963,3.8963,3.8963,3.8674,3.8461,3.8436,3.764,3.7238,3.7416,3.6904,3.6885,3.745,3.7648,3.8294,3.9371,3.8118,3.8042,3.9085,3.8515,3.8817,0.0,0.0,0.0,0.0,0.0,0.0,0.0,0.0,0.0,0.0,0.0,0.0,0.0,0.0,0.0,0.0,0.0,0.0,0.0,0.0,0.0,0.0,0.0,0.0,0.0,0.0,0.0,0.0,2.4284,2.4652,2.5485,2.4852,2.4832,2.5612,2.4886,2.5241,2.6786,2.6024,2.6005,2.6728,2.6805,2.6786,2.6712,2.6798,2.6937,2.7214,2.8932,3.0017,3.0603,3.0618,3.1118,3.1933,3.2742,3.3587,3.4438,3.5253,3.5538,3.5534,3.5534,3.5482,3.5396,3.5396,3.5276,3.5089,3.5057,3.4975,3.485,3.4813,3.4756,3.4679,3.4679,3.4679,3.466,3.468,3.466,3.4659,3.4659,3.5438,3.6122,3.6065,3.6728,3.703,3.6176,3.6685,3.695,3.6196,3.6726,3.7256,3.7354,3.7373,3.7354,3.7354,3.7294,3.7253,3.7253,3.6411,3.5891,3.5891,3.5015,3.4895,3.5679,3.5698,3.6471,3.8121,3.7193,3.6949,3.7477,3.7193,3.7092,3.7088,3.7107,3.7953,2.2156,0.0,0.0,0.0,0.0,0.0,0.0,0.0,0.0,0.0,0.0,0.0,0.0,0.0,0.0,0.0,0.0,0.0,0.0,0.0,0.0,0.0,0.0,0.0,0.0,0.0,0.0,0.0,2.3819,2.3873,2.3732,2.3664,2.3807,2.4182,2.4107,2.4198,2.4505,2.4395,2.4569,2.5044,2.5141,2.5041,2.4849,2.5016,2.5157,2.5298,2.6005,2.7082,2.847,3.04,3.0944,3.0674,3.154,3.2336,3.3115,3.393,3.4189,3.4136,3.4031,3.362,3.3111,3.3111,3.308,3.3143,3.3695,3.3828,3.3942,3.4565,3.4637,3.4538,3.4496,3.4285,3.4041,3.4046,3.3776,3.3551,3.3551,3.4174,3.475,3.4791,3.4876,3.487,3.4623,3.4772,3.5051,3.5466,3.5708,3.6081,3.6658,3.6567,3.647,3.647,3.6224,3.6064,3.6064,3.5795,3.5597,3.5526,3.5296,3.5472,3.6191,3.5647,3.581,3.6862,3.6616,3.657,3.6687,3.6573,3.6656,3.6967,3.7448,3.7857,0.0,0.0,0.0,0.0,0.0,0.0,2.2866,2.2976,0.0,0.0,0.0,0.0,0.0,0.0,0.0,0.0,0.0,0.0,0.0,0.0,0.0,0.0,0.0,0.0,0.0,2.3335,2.3271,2.3122,2.3253,2.32,2.2902,2.3007,2.3135,2.3212,2.3364,2.3364,2.3236,2.3294,2.3419,2.3613,2.3638,2.3544,2.3345,2.343,2.3534,2.3661,2.4234,2.5041,2.61,2.8349,2.9396,2.9633,3.0487,3.1078,3.1555,3.2336,3.2579,3.2539,3.243,3.211,3.1757,3.1696,3.1896,3.2199,3.2623,3.2943,3.3253,3.3753,3.3744,3.3513,3.3505,3.3267,3.3008,3.2865,3.2852,3.2769,3.2474,3.298,3.3651,3.4174,3.4458,3.4493,3.4146,3.4365,3.4548,3.4365,3.4649,3.4906,3.5034,3.4918,3.4811,3.4811,3.463,3.4456,3.4456,3.4411,3.4365,3.4318,3.4336,3.4643,3.5381,3.4952,3.5238,3.6381,3.6024,3.5705,3.558,3.6071,3.6409,3.6582,3.6964,3.7238,0.0,0.0,0.0,0.0,0.0,0.0,2.3861,2.3908,2.3896,0.0,0.0,0.0,0.0,0.0,0.0,0.0,0.0,0.0,0.0,0.0,0.0,0.0,0.0,0.0,2.2758,2.2694,2.2677,2.2641,2.2591,2.2556,2.2576,2.2607,2.26,2.2556,2.2609,2.2626,2.2574,2.2548,2.2468,2.2334,2.2252,2.2158,2.2074,2.2005,2.2012,2.2163,2.3038,2.3512,2.3742,2.5195,2.6863,2.8562,2.9384,2.9727,2.9868,3.0533,3.0764,3.0757,3.0706,3.0677,3.0611,3.0578,3.1021,3.156,3.1593,3.2031,3.2524,3.2563,3.2262,3.1917,3.1917,3.1794,3.1616,3.1308,3.1669,3.1934,3.1325,3.1722,3.2491,3.3463,3.4494,3.4929,3.4159,3.4645,3.4645,3.3163,3.3553,3.375,3.3068,3.2947,3.2947,3.2929,3.2822,3.2777,3.2777,3.2699,3.2666,3.2666,3.2666,3.3022,3.3821,3.3768,3.4426,3.5954,3.5172,3.4689,3.4523,3.561,3.6076,3.5985,3.6056,3.6443,0.0,0.0,0.0,0.0,0.0,0.0,2.2551,2.3106,2.3876,0.0,0.0,0.0,0.0,0.0,0.0,0.0,0.0,0.0,0.0,0.0,0.0,0.0,0.0,0.0,2.2495,2.2459,2.2385,2.2231,2.1826,2.1625,2.1718,2.1602,2.1568,2.1645,2.1728,2.1732,2.1732,2.1648,2.1469,2.1301,2.1101,2.0863,2.0616,2.0532,2.0467,2.042,2.0878,2.1375,2.1919,2.2476,2.4252,2.6702,2.7469,2.8024,2.8496,2.8762,2.8737,2.8613,2.871,2.8325,2.7799,2.7787,2.8219,2.8888,2.9512,3.0212,3.0837,3.0974,3.0678,3.0256,3.0135,2.9922,2.973,2.9646,2.9567,2.9502,2.9371,2.9723,3.0145,3.0385,3.1852,3.3024,3.2847,3.2953,3.2953,3.2651,3.274,3.2808,3.2749,3.2553,3.2453,3.2502,3.2231,3.2002,3.2002,3.1839,3.1728,3.1728,3.1728,3.2073,3.2852,3.2317,3.2421,3.3317,3.3315,3.3939,3.5193,3.5179,3.5203,3.5227,3.5766,3.6104,0.0,0.0,0.0,2.2055,0.0,0.0,0.0,2.3258,2.3628,2.3685,0.0,0.0,0.0,0.0,0.0,0.0,0.0,0.0,0.0,0.0,0.0,0.0,0.0,0.0,2.1519,2.1472,2.1395,2.1318,2.0467,2.0247,2.0877,2.0542,2.0495,2.0846,2.0959,2.0959,2.0911,2.0636,2.0553,2.0585,2.0051,1.9858,1.9899,1.9621,1.9411,1.9251,1.951,1.969,1.9908,2.0451,2.1647,2.3314,2.4876,2.5862,2.6388,2.6441,2.6405,2.6313,2.633,2.6099,2.5851,2.6122,2.6768,2.7569,2.8207,2.8876,2.9478,2.9495,2.9127,2.874,2.8695,2.8543,2.8358,2.8185,2.8574,2.8886,2.8544,2.9261,2.9896,2.972,3.0648,3.1407,3.1321,3.135,3.1405,3.1405,3.1459,3.1534,3.1588,3.1493,3.1435,3.1456,3.1545,3.1489,3.1078,3.1261,3.1381,3.1299,3.1299,3.1466,3.1817,3.1483,3.165,3.2343,3.3143,3.3945,3.48,3.4592,3.4547,3.4729,3.5006,3.5081,0.0,0.0,0.0,0.0,0.0,2.2686,0.0,0.0,0.0,2.3374,0.0,0.0,0.0,0.0,0.0,0.0,0.0,0.0,0.0,0.0,0.0,0.0,0.0,0.0,0.0,2.0273,2.0159,2.0239,1.9135,1.8864,1.9788,1.9467,1.9458,1.9838,1.998,1.998,1.9838,1.951,1.9504,1.9722,1.9016,1.8852,1.917,1.8777,1.8513,1.8349,1.845,1.8335,1.809,1.8655,1.9183,1.985,2.2324,2.3615,2.4122,2.4071,2.4071,2.4045,2.4158,2.4204,2.4337,2.49,2.5661,2.6516,2.7042,2.7469,2.7756,2.7628,2.7245,2.6901,2.6901,2.6865,2.674,2.6486,2.738,2.8174,2.7603,2.8595,2.9509,2.9247,2.9485,2.9797,3.01,3.0206,3.0266,3.0266,3.0337,3.0424,3.044,3.0484,3.0527,3.0527,3.0964,3.1018,3.0359,3.077,3.0989,3.0898,3.0898,3.0898,3.0852,3.0852,3.1191,3.187,3.2899,3.3492,3.3687,3.3463,3.3684,3.4366,3.412,3.3921,0.0,0.0,0.0,0.0,2.152,0.0,0.0,0.0,2.2548,2.239,0.0,0.0,0.0,0.0,0.0,0.0,0.0,0.0,0.0,0.0,0.0,0.0,0.0,0.0,0.0,1.9269,1.8957,1.9317,1.8491,1.8072,1.8252,1.8351,1.8383,1.8271,1.8327,1.8299,1.8187,1.8198,1.8163,1.8052,1.7854,1.7747,1.7733,1.7544,1.7435,1.7338,1.738,1.7284,1.7146,1.6879,1.7041,1.7785,2.0321,2.1636,2.2144,2.2144,2.2098,2.2215,2.2781,2.3013,2.3065,2.3618,2.4174,2.4817,2.5438,2.5231,2.4789,2.4776,2.4393,2.3955,2.3955,2.3955,2.3968,2.3923,2.4531,2.513,2.5037,2.5868,2.6666,2.6619,2.6964,2.7968,3.0001,3.0239,3.0123,3.0123,3.0142,3.0192,3.0308,3.0456,3.0539,3.067,3.0503,3.0386,3.0308,3.0169,3.0048,3.0063,3.018,3.018,3.0063,3.0063,3.0371,3.1139,3.0821,3.1036,3.1794,3.1202,3.2038,3.4186,3.3518,3.3244,0.0,0.0,0.0,0.0,0.0,0.0,2.1114,0.0,2.1493,0.0,0.0,0.0,0.0,0.0,0.0,0.0,1.9536,0.0,0.0,0.0,0.0,0.0,0.0,0.0,0.0,0.0,0.0,0.0,1.6959,1.6587,1.7655,1.7421,1.7397,1.772,1.7747,1.772,1.7663,1.7424,1.7409,1.7624,1.6837,1.6587,1.6799,1.6188,1.5852,1.5764,1.5676,1.5543,1.5365,1.5219,1.5464,1.595,1.6943,1.8319,1.9726,1.9986,2.0215,2.0529,2.0814,2.1231,2.1847,2.2804,2.3495,2.3944,2.4195,2.4045,2.3787,2.3944,2.365,2.333,2.3586,2.3495,2.3255,2.3255,2.3854,2.4474,2.4745,2.5547,2.6205,2.6544,2.679,2.7197,2.8172,2.8339,2.832,2.8291,2.8388,2.8443,2.8499,2.8554,2.8594,2.8634,2.8961,2.8922,2.8417,2.8695,2.8742,2.857,2.8483,2.8483,2.8411,2.8411,2.854,2.8841,2.9018,2.9284,2.9661,2.935,2.975,3.0761,3.1327,3.1588,1.8724,0.0,0.0,0.0,0.0,0.0,0.0,0.0,0.0,0.0,0.0,0.0,0.0,0.0,0.0,0.0,0.0,1.8167,0.0,0.0,0.0,0.0,0.0,0.0,0.0,0.0,0.0,1.7103,1.5529,1.5222,1.6793,1.6484,1.6432,1.6777,1.6884,1.6871,1.6741,1.6378,1.638,1.6645,1.5732,1.5475,1.5784,1.5017,1.4674,1.4571,1.4422,1.4236,1.4071,1.4014,1.4169,1.437,1.4281,1.5369,1.7031,1.7746,1.8289,1.8761,1.8905,1.957,2.0519,2.1575,2.2091,2.236,2.236,2.2237,2.2199,2.2408,2.2348,2.2217,2.2669,2.272,2.2686,2.2739,2.3404,2.4188,2.4533,2.524,2.5887,2.6289,2.6296,2.6296,2.6296,2.6609,2.6883,2.687,2.6979,2.704,2.704,2.7101,2.7101,2.7101,2.7571,2.7591,2.6958,2.7485,2.7773,2.7595,2.7243,2.7072,2.7136,2.7072,2.7072,2.7072,2.7483,2.7775,2.8,2.7934,2.7868,2.784,2.9058,2.9648,0.0,0.0,0.0,1.889,0.0,0.0,0.0,0.0,1.8555,0.0,0.0,0.0,0.0,0.0,0.0,1.7859,0.0,0.0,0.0,0.0,0.0,0.0,0.0,0.0,0.0,0.0,0.0,1.586,1.4623,1.4287,1.5342,1.5531,1.544,1.4992,1.5311,1.5245,1.4771,1.4776,1.4698,1.4595,1.4563,1.4518,1.4549,1.434,1.4222,1.4222,1.4071,1.392,1.3768,1.3399,1.317,1.3075,1.3118,1.3447,1.4019,1.5463,1.635,1.6853,1.7359,1.8201,1.9071,1.9479,1.953,1.9431,1.9431,1.9299,1.9166,1.9121,1.9422,1.9787,2.0096,2.0873,2.1603,2.1875,2.2854,2.37,2.3723,2.4296,2.4838,2.4849,2.4861,2.4861,2.4861,2.5812,2.6629,2.6629,2.6629,2.6629,2.6629,2.6764,2.6886,2.6886,2.6777,2.6655,2.6642,2.6955,2.7201,2.7399,2.6791,2.6501,2.6599,2.6501,2.6445,2.6445,2.6252,2.6502,2.7168,2.7039,2.6832,2.6572,2.7156,2.7419,0.0,0.0,1.6223,1.6728,0.0,0.0,0.0,0.0,0.0,0.0,0.0,0.0,0.0,0.0,1.6892,1.7007,1.6859,0.0,0.0,0.0,0.0,0.0,0.0,0.0,0.0,0.0,0.0,1.4671,1.4186,1.4047,1.44,1.4514,1.4457,1.4297,1.4387,1.4452,1.4352,1.4302,1.4236,1.4318,1.3961,1.3773,1.3747,1.3362,1.3152,1.3094,1.2939,1.2745,1.2491,1.2147,1.195,1.1868,1.1582,1.1807,1.2581,1.4277,1.5379,1.6097,1.6957,1.7452,1.784,1.8521,1.8762,1.876,1.9007,1.9034,1.9106,1.9406,1.9592,1.9737,2.0159,2.0281,2.0333,2.0679,2.085,2.1172,2.1819,2.2088,2.2377,2.2765,2.282,2.2979,2.3372,2.3852,2.4492,2.5312,2.5382,2.5382,2.5241,2.53,2.5288,2.5288,2.5146,2.4992,2.5031,2.443,2.4122,2.4186,2.3687,2.3356,2.3419,2.3605,2.3718,2.3718,2.3941,2.4183,2.4415,2.4349,2.427,2.4165,2.4359,2.4981,1.5194,1.4926,0.0,1.5384,1.5217,0.0,1.5304,0.0,0.0,0.0,0.0,0.0,0.0,0.0,0.0,1.5947,1.6009,1.581,0.0,1.4428,0.0,0.0,0.0,0.0,0.0,0.0,1.3776,1.3957,1.3619,1.3478,0.0,0.0,1.3647,1.3563,1.36,1.3668,1.3672,1.3505,1.3348,1.3287,1.2946,1.2667,1.2473,1.2043,1.1873,1.181,1.1751,1.1582,1.136,1.1234,1.1115,1.0913,1.0764,1.107,1.1688,1.2946,1.382,1.4616,1.5387,1.5756,1.5995,1.6663,1.6978,1.7083,1.7358,1.7444,1.7529,1.8018,1.8399,1.8806,1.9357,1.9683,2.0042,2.038,2.0452,2.0524,2.1123,2.1257,2.1414,2.1704,2.1832,2.1918,2.2306,2.2381,2.2905,2.4189,2.4273,2.4127,2.3897,2.3666,2.3508,2.3508,2.335,2.3306,2.3554,2.2972,2.2628,2.2713,2.2234,2.192,2.192,2.2216,2.229,2.229,2.2494,2.2706,2.3033,2.2951,2.2867,2.2778,2.2778,2.3134]},{"header":{"parameterUnit":"m.s-1","parameterCategory":1,"la1":30.6,"la2":29.2853,"lo1":-89.7004,"lo2":-87.6739,"dy":0.0162,"dx":0.0183,"nx":112,"ny":82,"refTime":"2023-05-01T12:00:00:Z","depth":0,"parameterNumber":3,"parameterNumberName":"V-component_of_WINDS"},"data":[0.0,0.0,0.0,0.0,0.0,0.0,0.0,0.0,0.0,0.0,0.0,0.0,0.0,0.0,0.0,0.0,0.0,0.0,0.0,0.0,0.0,0.0,0.0,0.0,0.0,0.0,0.0,0.0,0.0,0.0,0.0,0.0,0.0,0.0,0.0,0.0,0.0,0.0,0.0,0.0,0.0,0.0,0.0,0.0,0.0,0.0,0.0,0.0,0.0,0.0,0.0,0.0,0.0,0.0,0.0,0.0,0.0,0.0,0.0,0.0,0.0,0.0,0.0,0.0,0.0,0.0,0.0,0.0,0.0,0.0,0.0,0.0,0.0,0.0,0.0,0.0,0.0,0.0,0.0,0.0,0.0,0.0,0.0,0.0,0.0,0.0,0.0,0.0,0.0,0.0,0.0,-0.2337,-0.0936,0.0395,0.1384,0.1815,0.2184,0.2546,0.0,0.0,0.0,0.0,0.0,0.0,0.0,0.0,0.0,0.0,0.0,0.0,0.0,0.0,0.0,0.0,0.0,0.0,0.0,0.0,0.0,0.0,0.0,0.0,0.0,0.0,0.0,0.0,0.0,0.0,0.0,0.0,0.0,0.0,0.0,0.0,0.0,0.0,0.0,0.0,0.0,0.0,0.0,0.0,0.0,0.0,0.0,0.0,0.0,0.0,0.0,0.0,0.0,0.0,0.0,0.0,0.0,0.0,0.0,0.0,0.0,0.0,0.0,0.0,0.0,0.0,0.0,0.0,0.0,0.0,0.0,0.0,0.0,0.0,0.0,0.0,0.0,0.0,0.0,0.0,0.0,0.0,0.0,0.0,0.0,0.0,0.0,0.0,0.0,0.0,0.0,0.0,0.0,0.0,0.0,0.0,0.0,0.0,0.0,0.0,0.0,0.0,0.0,0.0,-0.2168,-0.0788,-0.028,0.048,0.1621,0.1762,0.2098,0.2876,0.0,0.0,0.0,0.0,0.0,0.0,0.0,0.0,0.0,0.0,0.0,0.0,0.0,0.0,0.0,0.0,0.0,0.0,0.0,0.0,0.0,0.0,0.0,0.0,0.0,0.0,0.0,0.0,0.0,0.0,0.0,0.0,0.0,0.0,0.0,0.0,0.0,0.0,0.0,0.0,0.0,0.0,0.0,0.0,0.0,0.0,0.0,0.0,0.0,0.0,0.0,0.0,0.0,0.0,0.0,0.0,0.0,0.0,0.0,0.0,0.0,0.0,0.0,0.0,0.0,0.0,0.0,0.0,0.0,0.0,0.0,0.0,0.0,0.0,0.0,0.0,0.0,0.0,0.0,0.0,0.0,0.0,0.0,0.0,0.0,0.0,0.0,0.0,0.0,0.0,0.0,0.0,0.0,0.0,0.0,0.0,0.0,0.0,0.0,0.0,0.0,0.0,0.0,-0.268,-0.1743,-0.0616,-0.0096,0.0625,0.1715,0.1799,0.2131,0.2938,0.2949,0.0,0.0,0.0,0.0,0.0,0.0,0.0,0.0,0.0,0.0,0.0,0.0,0.0,0.0,0.0,0.0,0.0,0.0,0.0,0.0,0.0,0.0,0.0,0.0,0.0,0.0,0.0,0.0,0.0,0.0,0.0,0.0,0.0,0.0,0.0,0.0,0.0,0.0,0.0,0.0,0.0,0.0,0.0,0.0,0.0,0.0,0.0,0.0,0.0,0.0,0.0,0.0,0.0,0.0,0.0,0.0,0.0,0.0,0.0,0.0,0.0,0.0,0.0,0.0,0.0,0.0,0.0,0.0,0.0,0.0,0.0,0.0,0.0,0.0,0.0,0.0,0.0,0.0,0.0,0.0,0.0,0.0,0.0,0.0,0.0,0.0,0.0,0.0,0.0,0.0,0.0,0.0,0.0,0.0,0.0,0.0,0.0,0.0,0.0,0.0,0.0,0.0,-0.2265,-0.1568,-0.0593,0.0049,0.0738,0.1637,0.1811,0.2171,0.2901,0.3029,0.0,0.0,0.0,0.0,0.0,0.0,0.0,0.0,0.0,0.0,0.0,0.0,0.0,0.0,0.0,0.0,0.0,0.0,0.0,0.0,0.0,0.0,0.0,0.0,0.0,0.0,0.0,0.0,0.0,0.0,0.0,0.0,0.0,0.0,0.0,0.0,0.0,0.0,0.0,0.0,0.0,0.0,0.0,0.0,0.0,0.0,0.0,0.0,0.0,0.0,0.0,0.0,0.0,0.0,0.0,0.0,0.0,0.0,0.0,0.0,0.0,0.0,0.0,0.0,0.0,0.0,0.0,0.0,0.0,0.0,0.0,0.0,0.0,0.0,0.0,0.0,0.0,0.0,0.0,0.0,0.0,0.0,0.0,0.0,0.0,0.0,0.0,0.0,0.0,0.0,0.0,0.0,0.0,0.0,0.0,0.0,0.0,0.0,0.0,0.0,0.0,0.0,-0.2789,-0.1965,-0.0143,0.0255,0.0721,0.1443,0.1696,0.2053,0.2674,0.2882,0.0,0.0,0.0,0.0,0.0,0.0,0.0,0.0,0.0,0.0,0.0,0.0,0.0,0.0,0.0,0.0,0.0,0.0,0.0,0.0,0.0,0.0,0.0,0.0,0.0,0.0,0.0,0.0,0.0,0.0,0.0,0.0,0.0,0.0,0.0,0.0,0.0,0.0,0.0,0.0,0.0,0.0,0.0,0.0,0.0,0.0,0.0,0.0,0.0,0.0,0.0,0.0,0.0,0.0,0.0,0.0,0.0,0.0,0.0,0.0,0.0,0.0,0.0,0.0,0.0,0.0,0.0,0.0,0.0,0.0,0.0,0.0,0.0,0.0,0.0,0.0,0.0,0.0,0.0,0.0,0.0,0.0,0.0,0.0,0.0,0.0,0.0,0.0,0.0,0.0,0.0,0.0,0.0,0.0,0.0,0.0,0.0,0.0,0.0,0.0,0.0,0.0,-0.1643,-0.093,0.0,0.0668,0.0916,0.1436,0.1857,0.2342,0.299,0.0,0.0,0.0,0.0,0.0,0.0,0.0,0.0,0.0,0.0,0.0,0.0,0.0,0.0,0.0,0.0,0.0,0.0,0.0,0.0,0.0,0.0,0.0,0.0,0.0,0.0,0.0,0.0,0.0,0.0,0.0,0.0,0.0,0.0,0.0,0.0,0.0,0.0,0.0,0.0,0.0,0.0,0.0,0.0,0.0,0.0,0.0,0.0,0.0,0.0,0.0,0.0,0.0,0.0,0.0,0.0,0.0,0.0,0.0,0.0,0.0,0.0,0.0,0.0,0.0,0.0,0.0,0.0,0.0,0.0,0.0,0.0,0.0,0.0,0.0,0.0,0.0,0.0,0.0,0.0,0.0,0.0,0.0,0.0,0.0,0.0,0.0,0.0,0.0,0.0,0.0,0.0,0.0,0.0,0.0,0.0,0.0,0.0,0.0,0.0,0.0,0.0,-0.1533,-0.0723,0.0047,0.0,0.0842,0.1087,0.1467,0.1919,0.2506,0.3258,0.0,0.0,0.0,0.0,0.0,0.0,0.0,0.0,0.0,0.0,0.0,0.0,0.0,0.0,0.0,0.0,0.0,0.0,0.0,0.0,0.0,0.0,0.0,0.0,0.0,0.0,0.0,0.0,0.0,0.0,0.0,0.0,0.0,0.0,0.0,0.0,0.0,0.0,0.0,0.0,0.0,0.0,0.0,0.0,0.0,0.0,0.0,0.0,0.0,0.0,0.0,0.0,0.0,0.0,0.0,0.0,0.0,0.0,0.0,0.0,0.0,0.0,0.0,0.0,0.0,0.0,0.0,0.0,0.0,0.0,0.0,0.0,0.0,0.0,0.0,0.0,0.0,0.0,0.0,0.0,0.0,0.0,0.0,0.0,0.0,0.0,0.0,0.0,0.0,0.0,0.0,0.0,0.0,0.0,0.0,0.0,0.0,0.0,0.0,0.0,0.0,0.0,-0.1919,-0.023,0.0754,0.0421,0.0714,0.1091,0.1473,0.1915,0.2626,0.0,0.0,0.0,0.0,0.0,0.0,0.0,0.0,0.0,0.0,0.0,0.0,0.0,0.0,0.0,0.0,0.0,0.0,0.0,0.0,0.0,0.0,0.0,0.0,0.0,0.0,0.0,0.0,0.0,0.0,0.0,0.0,0.0,0.0,0.0,0.0,0.0,0.0,0.0,0.0,0.0,0.0,0.0,0.0,0.0,0.0,0.0,0.0,0.0,0.0,0.0,0.0,0.0,0.0,0.0,0.0,0.0,0.0,0.0,0.0,0.0,0.0,0.0,0.0,0.0,0.0,0.0,0.0,0.0,0.0,0.0,0.0,0.0,0.0,0.0,0.0,0.0,0.0,0.0,0.0,0.0,0.0,0.0,0.0,0.0,0.0,0.0,0.0,0.0,0.0,0.0,0.0,0.0,0.0,0.0,0.0,0.0,0.0,0.0,0.0,0.0,0.0,0.0,-0.166,-0.0096,0.0883,0.0765,0.1336,0.1689,0.1523,0.2317,0.3155,0.3921,0.0,0.0,0.0,0.0,0.0,0.0,0.0,0.0,0.0,0.0,0.0,0.0,0.0,0.0,0.0,0.0,0.0,0.0,0.0,0.0,0.0,0.0,0.0,0.0,0.0,0.0,0.0,0.0,0.0,0.0,0.0,0.0,0.0,0.0,0.0,0.0,0.0,0.0,0.0,0.0,0.0,0.0,0.0,0.0,0.0,0.0,0.0,0.0,0.0,0.0,0.0,0.0,0.0,0.0,0.0,0.0,0.0,0.0,0.0,0.0,0.0,0.0,0.0,0.0,0.0,0.0,0.0,0.0,0.0,0.0,0.0,0.0,0.0,0.0,0.0,0.0,0.0,0.0,0.0,0.0,0.0,0.0,0.0,0.0,0.0,0.0,0.0,0.0,0.0,0.0,0.0,0.0,0.0,0.0,0.0,0.0,0.0,0.0,0.0,0.0,0.0,0.0,-0.1292,-0.0049,0.0849,0.1222,0.1681,0.2025,0.2122,0.2829,0.3578,0.4471,0.0,0.0,0.0,0.0,0.0,0.0,0.0,0.0,0.0,0.0,0.0,0.0,0.0,0.0,0.0,0.0,0.0,0.0,0.0,0.0,0.0,0.0,0.0,0.0,0.0,0.0,0.0,0.0,0.0,0.0,0.0,0.0,0.0,0.0,0.0,0.0,0.0,0.0,0.0,0.0,0.0,0.0,0.0,0.0,0.0,0.0,0.0,0.0,0.0,0.0,0.0,0.0,0.0,0.0,0.0,0.0,0.0,0.0,0.0,0.0,0.0,0.0,0.0,0.0,0.0,0.0,0.0,0.0,0.0,0.0,0.0,0.0,0.0,0.0,0.0,0.0,0.0,0.0,0.0,0.0,0.0,0.0,0.0,0.0,0.0,0.0,0.0,0.0,0.0,0.0,0.0,0.0,0.0,0.0,0.0,0.0,0.0,0.0,0.0,0.0,0.0,0.0,-0.0895,-0.0049,0.0802,0.1722,0.1849,0.2206,0.3035,0.3345,0.3958,0.512,0.0,0.0,0.0,0.0,0.0,0.0,0.0,0.0,0.0,0.0,0.0,0.0,0.0,0.0,0.0,0.0,0.0,0.0,0.0,0.0,0.0,0.0,0.0,0.0,0.0,0.0,0.0,0.0,0.0,0.0,0.0,0.0,0.0,0.0,0.0,0.0,0.0,0.0,0.0,0.0,0.0,0.0,0.0,0.0,0.0,0.0,0.0,0.0,0.0,0.0,0.0,0.0,0.0,0.0,0.0,0.0,0.0,0.0,0.0,0.0,0.2624,0.0,0.0,0.0,0.0,0.0,0.0,0.0,0.0,0.0,0.0,0.0,0.0,0.0,0.0,0.0,0.0,0.0,0.0,0.0,0.0,0.0,0.0,0.0,0.0,0.0,0.0,0.0,0.0,0.0,0.0,0.0,0.0,0.0,0.0,0.0,0.0,0.0,0.0,0.0,0.0,0.0,-0.0998,0.005,0.1028,0.1944,0.2293,0.2756,0.3303,0.377,0.4368,0.5167,0.4792,0.0,0.0,0.0,0.0,0.0,0.0,0.0,0.0,0.0,0.0,0.0,0.0,0.0,0.0,0.0,0.0,0.0,0.0,0.0,0.0,0.0,0.0,0.0,0.0,0.0,0.0,0.0,0.0,0.0,0.0,0.0,0.0,0.0,0.0,0.0,0.0,0.0,0.0,0.0,0.0,0.0,0.0,0.0,0.0,0.0,0.0,0.0,0.0,0.0,0.0,0.0,0.0,0.0,0.0,0.0,0.0,0.0,0.0,0.0,0.0,0.2788,0.0,0.0,0.0,0.0,0.0,0.0,0.0,0.0,0.0,0.0,0.0,0.0,0.0,0.0,0.0,0.0,0.0,0.0,0.0,0.0,0.0,0.0,0.0,0.0,0.0,0.0,0.0,0.0,0.0,0.0,0.0,0.0,0.0,0.0,0.0,0.0,0.0,0.0,0.0,0.0,-0.0499,0.0604,0.1616,0.2327,0.2819,0.3347,0.3904,0.4443,0.4896,0.5266,0.5312,0.0,0.0,0.0,0.0,0.0,0.0,0.0,0.0,0.0,0.0,0.0,0.0,0.0,0.0,0.0,0.0,0.0,0.0,0.0,0.0,0.0,0.0,0.0,0.0,0.0,0.0,0.0,0.0,0.0,0.0,0.0,0.0,0.0,0.0,0.0,0.0,0.0,0.0,0.0,0.0,0.0,0.0,0.0,0.0,0.0,0.0,0.0,0.0,0.0,0.0,0.0,0.0,0.0,0.356,0.3665,0.3877,0.4003,0.4063,0.3941,0.3425,0.3026,0.2685,0.0,0.0,0.0,0.0,0.0,0.0,0.0,0.0,0.0,0.0,0.0,0.0,0.0,0.0,0.0,0.0,0.0,0.0,0.0,0.0,0.0,0.0,0.0,0.0,0.0,0.2682,0.2397,0.0,0.0,0.0,0.0,0.0,0.0,0.0,0.0,0.0,0.0,0.0,0.0,0.03,0.1375,0.2287,0.2789,0.3318,0.3868,0.45,0.4994,0.5358,0.5476,0.5965,0.6411,0.0,0.0,0.0,0.0,0.0,0.0,0.0,0.0,0.0,0.0,0.0,0.0,0.0,0.0,0.0,0.0,0.0,0.0,0.0,0.0,0.0,0.0,0.0,0.0,0.0,0.0,0.0,0.0,0.0,0.0,0.0,0.0,0.2938,0.2699,0.0,0.0,0.0,0.0,0.0,0.0,0.0,0.0,0.0,0.0,0.0,0.0,0.0,0.3738,0.3904,0.4066,0.412,0.4116,0.4116,0.4127,0.424,0.41,0.4266,0.4687,0.4738,0.0,0.3477,0.3477,0.0,0.0,0.0,0.0,0.0,0.0,0.0,0.0,0.0,0.0,0.0,0.0,0.0,0.0,0.0,0.0,0.0,0.0,0.0,0.0,0.0,0.0,0.2711,0.2854,0.3034,0.32,0.0,0.2637,0.2131,0.2279,0.1921,0.0,0.0,0.0,0.0,0.0,0.0,0.0,0.1411,0.197,0.2637,0.3387,0.3503,0.3848,0.4629,0.505,0.5408,0.5724,0.5856,0.6264,0.7026,0.6486,0.0,0.0,0.0,0.0,0.0,0.0,0.0,0.0,0.0,0.0,0.0,0.0,0.0,0.0,0.0,0.0,0.0,0.0,0.0,0.0,0.0,0.0,0.0,0.0,0.0,0.0,0.0,0.0,0.0,0.3287,0.3223,0.3299,0.3275,0.3242,0.0,0.0,0.0,0.0,0.0,0.0,0.0,0.0,0.0,0.4018,0.42,0.4383,0.4507,0.4558,0.4817,0.519,0.519,0.5398,0.5815,0.5792,0.5896,0.6075,0.6337,0.6082,0.5455,0.5079,0.477,0.4552,0.0,0.0,0.0,0.0,0.4066,0.3968,0.4109,0.4091,0.0,0.4125,0.0,0.0,0.0,0.0,0.0,0.0,0.0,0.0,0.0,0.0,0.0,0.3605,0.3706,0.3824,0.3886,0.3489,0.3086,0.0,0.2633,0.2311,0.1758,0.0,0.0,0.0,0.0,0.0,0.2075,0.2713,0.3308,0.3654,0.4034,0.4455,0.476,0.5481,0.5863,0.5821,0.6475,0.6984,0.7317,0.6875,0.6841,0.0,0.0,0.0,0.0,0.0,0.0,0.0,0.0,0.0,0.0,0.0,0.0,0.0,0.0,0.0,0.0,0.0,0.0,0.0,0.0,0.0,0.0,0.0,0.0,0.0,0.0,0.0,0.0,0.3397,0.337,0.3797,0.3562,0.3447,0.0,0.0,0.0,0.0,0.0,0.0,0.4014,0.4421,0.4672,0.4754,0.4986,0.5238,0.5396,0.5504,0.5832,0.6447,0.651,0.6873,0.7491,0.7502,0.7502,0.7486,0.7793,0.7709,0.7438,0.6519,0.5909,0.5631,0.5428,0.5277,0.5118,0.5022,0.5006,0.5013,0.4996,0.499,0.499,0.4941,0.0,0.4407,0.4087,0.0,0.0,0.0,0.0,0.3254,0.3486,0.3852,0.4151,0.4241,0.4304,0.4304,0.4304,0.4212,0.3925,0.0,0.3274,0.3181,0.2702,0.0,0.0,0.0,0.0,0.2792,0.2686,0.3431,0.4016,0.4083,0.4603,0.4914,0.4972,0.5897,0.6337,0.5979,0.7117,0.7707,0.7565,0.7251,0.7201,0.7445,0.0,0.0,0.0,0.0,0.0,0.0,0.0,0.0,0.0,0.0,0.0,0.0,0.0,0.0,0.0,0.0,0.0,0.0,0.0,0.0,0.0,0.0,0.0,0.0,0.0,0.0,0.0,0.0,0.0,0.364,0.3798,0.0,0.0,0.0,0.0,0.3999,0.4267,0.4539,0.4652,0.4862,0.5289,0.591,0.6028,0.6409,0.7077,0.7382,0.762,0.7737,0.7917,0.8223,0.8724,0.8495,0.8576,0.8826,0.8874,0.8851,0.867,0.7327,0.6665,0.6526,0.6237,0.619,0.6324,0.6283,0.6373,0.645,0.5919,0.576,0.5706,0.5605,0.5424,0.5159,0.4636,0.4419,0.0,0.0,0.4009,0.4146,0.4143,0.419,0.4227,0.4419,0.4508,0.4508,0.4508,0.4501,0.4355,0.0,0.3959,0.3807,0.336,0.0,0.3188,0.2675,0.312,0.3512,0.3463,0.4108,0.4665,0.481,0.4877,0.4938,0.5058,0.614,0.6665,0.6392,0.7571,0.8075,0.7708,0.7672,0.7542,0.7338,0.6568,0.0,0.0,0.0,0.0,0.0,0.0,0.0,0.0,0.0,0.0,0.0,0.0,0.0,0.0,0.0,0.0,0.0,0.0,0.0,0.0,0.0,0.0,0.0,0.0,0.0,0.0,0.0,0.0,0.4335,0.4557,0.0,0.4275,0.4496,0.4583,0.4481,0.4772,0.5118,0.5515,0.6028,0.6558,0.7104,0.7616,0.8052,0.8264,0.8614,0.8937,0.9287,0.9354,0.9659,1.0182,1.0079,1.0085,1.017,1.0378,1.0428,1.0331,0.9718,0.8921,0.8051,0.7851,0.7675,0.7543,0.7635,0.7624,0.7542,0.7567,0.7401,0.7234,0.6832,0.6416,0.5982,0.5356,0.488,0.4576,0.4367,0.4422,0.4514,0.4513,0.468,0.4856,0.4746,0.4871,0.4922,0.4757,0.4736,0.4703,0.4488,0.4285,0.4062,0.3907,0.3896,0.3918,0.3929,0.4128,0.4293,0.4274,0.4664,0.4944,0.4887,0.5097,0.5178,0.5075,0.627,0.6889,0.6539,0.7768,0.8404,0.8136,0.7948,0.7804,0.7802,0.702,0.6728,0.0,0.0,0.0,0.0,0.0,0.0,0.0,0.0,0.0,0.0,0.0,0.0,0.0,0.0,0.0,0.0,0.0,0.0,0.0,0.0,0.0,0.0,0.0,0.0,0.0,0.0,0.5011,0.5123,0.5659,0.5793,0.5171,0.531,0.5338,0.5271,0.553,0.5965,0.6615,0.7255,0.7802,0.8377,0.8876,0.9282,0.9576,0.9724,1.0059,1.0518,1.0588,1.0854,1.1301,1.1301,1.1256,1.1229,1.1375,1.1385,1.1279,1.1149,1.0617,0.9734,0.9427,0.9184,0.9034,0.914,0.9134,0.9028,0.8913,0.8659,0.8276,0.7704,0.7322,0.6969,0.6059,0.5582,0.5205,0.4826,0.483,0.4925,0.4922,0.51,0.521,0.5094,0.5154,0.5206,0.5094,0.5068,0.5011,0.4901,0.4625,0.4391,0.4389,0.4341,0.448,0.4731,0.4809,0.4813,0.4849,0.5055,0.5145,0.5087,0.5239,0.5384,0.5277,0.6366,0.6998,0.676,0.7949,0.854,0.8334,0.8122,0.8034,0.8037,0.7216,0.6887,0.7013,0.0,0.0,0.0,0.0,0.0,0.0,0.0,0.0,0.0,0.0,0.0,0.0,0.0,0.0,0.0,0.0,0.0,0.0,0.0,0.0,0.0,0.0,0.0,0.3605,0.4914,0.5921,0.5997,0.7081,0.7313,0.6156,0.6197,0.6292,0.6391,0.6614,0.7144,0.8037,0.8467,0.9052,0.9728,0.974,1.0135,1.0893,1.0834,1.0976,1.1306,1.1527,1.1735,1.2003,1.2003,1.2005,1.1884,1.1884,1.1724,1.145,1.145,1.145,1.1396,1.0815,1.0626,1.0738,1.0738,1.0792,1.0786,0.9908,0.9291,0.886,0.8291,0.8188,0.8117,0.6846,0.6492,0.6257,0.5447,0.5343,0.5444,0.543,0.5415,0.5476,0.5411,0.5411,0.5468,0.5404,0.5404,0.5404,0.5214,0.497,0.4752,0.4731,0.4697,0.4752,0.4904,0.5043,0.0,0.5138,0.527,0.5428,0.5428,0.5428,0.5491,0.5617,0.6506,0.713,0.7086,0.8091,0.8573,0.8205,0.8263,0.8165,0.7907,0.7194,0.6568,0.603,0.0,0.0,0.0,0.0,0.0,0.0,0.0,0.0,0.0,0.0,0.0,0.0,0.0,0.0,0.0,0.0,0.0,0.0,0.0,0.0,0.0,0.0,0.4775,0.4599,0.5387,0.6128,0.6465,0.722,0.7655,0.7459,0.7592,0.7762,0.7991,0.799,0.8473,0.9489,0.9237,0.9568,1.0759,1.1019,1.13,1.1603,1.1806,1.1952,1.2032,1.2111,1.2151,1.2231,1.2231,1.2184,1.2184,1.2184,1.2138,1.2058,1.2058,1.2058,1.2004,1.1416,1.1168,1.1242,1.1242,1.1283,1.1384,1.109,1.076,1.0463,1.033,0.9811,0.9101,0.859,0.8014,0.736,0.6373,0.6259,0.6375,0.588,0.6236,0.6557,0.6103,0.6258,0.6344,0.5852,0.5767,0.5707,0.5578,0.5505,0.5277,0.4906,0.4857,0.4904,0.505,0.5104,0.0,0.5284,0.5335,0.5425,0.5554,0.5554,0.562,0.5822,0.6494,0.7081,0.7368,0.8165,0.861,0.8478,0.8528,0.8386,0.8121,0.7893,0.7484,0.0,0.0,0.0,0.0,0.0,0.0,0.0,0.0,0.0,0.0,0.0,0.0,0.0,0.0,0.0,0.0,0.0,0.0,0.0,0.0,0.0,0.0,0.5529,0.5954,0.663,0.6844,0.7215,0.7923,0.8628,0.9018,0.8885,0.8947,0.9088,0.9369,0.9314,0.9647,1.0491,1.038,1.0642,1.1394,1.1629,1.1846,1.2051,1.2098,1.2184,1.2305,1.2305,1.2305,1.2305,1.2305,1.2305,0.0,1.2438,1.2418,1.2311,1.2438,1.2412,0.0,0.0,0.0,0.0,0.0,1.1673,1.1486,1.1611,1.146,1.1198,1.1018,1.0629,1.0077,0.959,0.9029,0.8373,0.724,0.6987,0.6912,0.6241,0.6469,0.6785,0.6351,0.6514,0.6676,0.6505,0.63,0.6107,0.6162,0.6037,0.0,0.5357,0.53,0.5307,0.5399,0.5352,0.5322,0.5477,0.5491,0.5488,0.5617,0.5683,0.5818,0.602,0.6469,0.0,0.0,0.0,0.863,0.8802,0.8575,0.0,0.0,0.0,0.7712,0.7021,0.0,0.0,0.0,0.4429,0.4141,0.0,0.0,0.0,0.0,0.0,0.0,0.0,0.0,0.0,0.0,0.0,0.0,0.0,0.0,0.0,0.0,0.7047,0.7375,0.9031,0.8799,0.8871,0.9862,1.0517,1.0736,1.0309,1.0269,1.0357,1.0565,1.0565,1.0779,1.122,0.0,0.0,0.0,0.0,1.213,1.2351,1.2098,1.2098,1.2351,1.2385,1.2385,1.2351,1.2425,1.2425,1.2365,1.2674,1.2565,1.2371,1.2681,1.2559,1.2351,1.2318,1.2278,1.2258,1.2291,1.1951,1.1447,1.1598,0.0,0.0,1.1014,1.1066,1.107,1.0196,0.9768,0.9338,0.8229,0.7723,0.7383,0.6858,0.6772,0.6768,0.668,0.6659,0.6841,0.717,0.6824,0.6552,0.6828,0.6573,0.618,0.6051,0.5841,0.5781,0.5866,0.5752,0.5617,0.5617,0.5617,0.5617,0.5683,0.0,0.0,0.6214,0.6454,0.6926,0.7746,0.8213,0.869,0.9064,0.8597,0.8446,0.8614,0.8215,0.7655,0.6931,0.6614,0.6013,0.5175,0.4577,0.4247,0.0,0.0,0.0,0.0,0.0,0.0,0.0,0.0,0.0,0.0,0.0,0.0,0.0,0.0,0.0,0.7808,0.8088,0.8796,1.0089,1.0305,1.0271,1.0317,1.0773,1.1155,1.1149,1.1357,1.1565,1.1642,1.1642,1.1735,1.2038,1.2029,0.0,1.264,1.2573,1.2661,1.2879,1.2681,1.2681,1.2886,0.0,0.0,1.2879,1.2886,1.2886,1.2872,1.254,1.2492,1.2721,1.2465,1.2492,1.2714,1.2398,1.2158,1.1984,1.2218,1.2084,1.1824,1.2118,1.2024,1.181,1.1919,1.1693,1.1381,1.1229,1.1037,0.0,0.9879,0.9586,0.9439,0.8913,0.8929,0.8953,0.8354,0.8449,0.8451,0.7639,0.7247,0.699,0.6747,0.6639,0.6571,0.6559,0.6148,0.5855,0.5885,0.5888,0.5822,0.5822,0.5822,0.5888,0.6083,0.6148,0.6214,0.635,0.6772,0.7339,0.7921,0.8623,0.9003,0.9064,0.8771,0.8661,0.8661,0.8613,0.812,0.7242,0.7061,0.6474,0.5593,0.5016,0.4718,0.0,0.0,0.0,0.0,0.0,0.0,0.0,0.0,0.0,0.0,0.0,0.7656,0.0,0.0,0.8398,0.9295,0.979,1.0461,1.1591,1.1944,1.1981,1.1403,1.1709,1.2018,1.2084,1.2365,1.2538,1.2538,1.2472,1.2574,1.2795,1.2613,1.2882,1.3614,1.323,1.3209,1.3431,1.3354,1.3354,1.3438,1.359,1.3583,1.3431,1.3515,1.3515,1.3431,1.3354,1.3276,1.3108,1.2889,1.2846,1.2966,1.2819,1.2572,1.2399,1.2472,1.2432,1.2405,1.2472,1.2432,1.2305,1.2305,1.2104,1.1864,1.1799,1.1629,1.137,1.0649,1.0367,1.0089,0.9378,0.9307,0.9351,0.881,0.8842,0.8891,0.861,0.8049,0.7605,0.7637,0.7242,0.6822,0.6818,0.6606,0.6451,0.63,0.6217,0.6116,0.6032,0.6017,0.6083,0.621,0.628,0.635,0.642,0.7138,0.7857,0.8376,0.8966,0.9274,0.9274,0.9016,0.8873,0.8873,0.8747,0.8263,0.7315,0.725,0.6713,0.582,0.5522,0.5212,0.0,0.0,0.0,0.0,0.0,0.0,0.0,0.0,0.7768,0.8306,0.8361,0.845,0.8839,0.893,0.946,1.0904,1.1435,1.1925,1.2788,1.321,1.314,1.2506,1.2688,1.2882,1.2829,1.3158,1.3405,1.329,1.3219,1.3212,1.3389,1.3265,1.3589,1.4525,1.3874,1.3684,1.3994,1.3915,1.3908,1.3994,1.405,1.405,1.4087,1.4173,1.4087,1.4008,1.41,1.3863,1.3423,1.3286,1.324,1.3293,1.3293,1.318,1.3071,1.2956,1.2916,1.2916,1.2916,1.2916,1.2799,1.2559,1.2478,1.2432,1.2204,1.2131,1.2052,1.1455,1.1075,1.0694,1.005,0.9763,0.9669,0.9433,0.9335,0.9324,0.9639,0.8891,0.8311,0.8492,0.7789,0.7149,0.7077,0.7105,0.6985,0.6777,0.6602,0.6462,0.6289,0.6266,0.6254,0.6218,0.635,0.6482,0.6679,0.7526,0.8247,0.8899,0.9356,0.9548,0.9484,0.9331,0.921,0.921,0.8999,0.8411,0.7502,0.7446,0.696,0.5994,0.5994,0.5766,1.0383,0.9541,0.0,0.8393,0.8433,0.8625,0.0,0.0,0.9727,1.0232,1.0299,1.0332,1.0551,1.0978,1.1434,1.2004,1.2205,1.2504,1.2914,1.2974,1.2903,1.2833,1.3182,1.3267,1.2995,1.3729,1.3926,1.3383,1.3622,1.3794,1.3653,1.4009,1.4481,1.4962,1.4367,1.4245,1.456,1.4121,1.4033,1.4289,1.4475,1.4735,1.4852,1.5131,1.486,1.423,1.3872,1.3474,1.3206,1.3206,1.336,1.3594,1.3594,1.3734,1.3874,1.3353,1.316,1.316,1.316,1.316,1.3153,1.312,1.3106,1.31,1.3066,1.306,1.306,1.2975,1.2798,1.2616,1.2537,1.2223,1.1864,1.1515,1.1175,1.0666,1.0153,0.9712,0.9124,0.8316,0.8061,0.7841,0.7265,0.7322,0.7309,0.7044,0.6924,0.6859,0.6688,0.6664,0.6603,0.637,0.6416,0.6811,0.7722,0.7922,0.8376,0.9356,0.9612,0.9676,0.9484,0.9646,0.9691,0.9691,0.9539,0.9,0.8094,0.797,0.7395,0.6359,0.6359,0.6125,1.1451,0.0,0.0,0.0,1.0073,1.0171,1.0403,1.0796,1.1255,1.1445,1.1473,1.1528,1.1769,1.2116,1.248,0.0,1.3315,1.3646,1.3354,1.3675,1.3726,1.3358,1.3628,1.3768,1.348,1.394,1.4244,1.4072,1.4128,1.4184,1.4239,1.4518,1.4815,1.5248,1.4838,1.4735,1.5054,1.4875,1.4792,1.4957,1.5087,1.5184,1.5248,1.5345,1.5255,1.4889,1.4469,1.4234,1.4295,1.3885,1.387,1.4054,1.3985,1.3975,1.4035,1.3621,1.3574,1.3694,1.352,1.346,1.346,1.346,1.3347,1.3213,1.3213,1.3213,1.3213,1.3213,1.3134,1.3048,1.2889,1.281,1.2587,1.235,1.2138,1.1868,1.1603,1.1176,1.0667,1.0302,0.9466,0.8765,0.8539,0.8137,0.7707,0.746,0.7244,0.7045,0.6871,0.6846,0.6814,0.6737,0.6542,0.6788,0.7626,0.7861,0.8376,0.9151,0.9606,0.9804,0.9798,0.9862,0.9926,0.9926,0.9862,0.9408,0.8689,0.8301,0.7657,0.6876,0.6548,0.627,1.2607,0.0,0.0,1.2077,1.2135,1.2166,1.2558,1.2824,1.2991,1.2789,1.2789,1.2825,1.2899,1.3035,1.3176,1.3644,1.4113,1.4223,1.3768,1.4135,1.423,1.3676,1.3813,1.3944,1.3967,1.4264,1.4409,1.4365,1.4494,1.4653,1.4873,1.4911,1.5131,1.5416,1.5196,1.5189,1.5423,1.5431,1.5431,1.5431,1.5431,1.5431,1.5431,1.5438,1.5354,1.5264,1.4824,1.4741,1.4915,1.4419,1.4243,1.4398,1.4328,1.4166,1.4062,1.3924,1.3985,1.4055,1.3841,1.3768,1.3768,1.3768,1.3627,1.3454,1.3454,1.3454,1.3454,1.3454,1.3454,1.3373,1.3292,1.3205,1.3104,1.2946,1.2766,1.2747,1.2664,1.232,1.1908,1.1742,1.0772,0.9958,0.9715,0.8987,0.8294,0.8171,0.7725,0.7289,0.7058,0.7056,0.7023,0.7023,0.6721,0.6819,0.7495,0.7865,0.8336,0.8989,0.9514,0.9862,0.9926,1.0047,1.011,1.011,0.9989,0.96,0.8888,0.8366,0.7751,0.7025,0.6693,0.6522,0.0,0.0,1.345,1.4504,1.4572,1.4563,1.5056,1.5275,1.5102,1.4448,1.4515,1.4482,1.4103,1.3768,1.377,1.4774,1.4416,1.403,1.4073,1.4033,1.3887,1.355,1.3521,1.377,0.0,1.475,1.4641,1.4159,1.488,1.5333,1.534,1.5409,1.5409,1.5431,1.5423,1.5423,1.5431,1.5431,1.5431,1.5431,1.5431,1.5431,1.5431,1.5369,1.5278,1.5082,1.4566,1.4482,1.4734,1.4482,1.4391,1.4391,1.465,1.4412,1.4082,1.4307,1.423,1.4088,1.4075,1.4075,1.4075,1.4075,1.4068,1.4062,1.4062,1.4062,1.4062,1.4062,1.4062,1.4062,1.4062,1.3886,1.3639,1.3612,1.33,1.2977,1.2868,1.273,1.2406,1.1822,1.1662,1.1341,1.0536,0.9801,0.9313,0.9078,0.8341,0.7618,0.7261,0.7062,0.7023,0.7023,0.7015,0.7149,0.7646,0.801,0.8425,0.8969,0.9604,0.9926,0.9804,1.0117,1.0301,1.0301,0.9989,0.9408,0.849,0.8177,0.7569,0.6688,0.6688,0.6777,1.4739,0.0,1.5132,1.599,1.6158,1.6258,1.6489,1.6513,1.6376,1.5767,1.487,1.4143,1.3956,1.387,1.381,1.3963,1.4644,1.4892,1.4103,1.4336,1.434,1.3587,1.3689,0.0,0.0,0.0,0.0,1.4983,1.5216,1.5431,1.5431,1.5431,1.5431,1.5431,1.5431,1.5431,1.5431,1.5431,1.5431,1.5431,1.5431,1.5431,1.5431,1.5438,1.5347,1.5257,1.4999,1.4915,1.4915,1.4566,1.4482,1.4566,1.4566,1.4482,1.4489,1.4398,1.4398,1.4237,1.4166,1.4088,1.4088,1.4088,1.4088,1.4088,1.4088,1.4088,1.4088,1.4088,1.4088,1.4088,1.4088,1.4004,1.3971,1.3961,1.3851,1.3741,1.3732,1.3622,1.3457,1.3112,1.2689,1.2266,1.1763,1.1169,1.0442,0.9633,0.8513,0.7671,0.7427,0.724,0.7179,0.7293,0.7167,0.7073,0.7338,0.8031,0.8565,0.8938,0.9712,1.0258,1.0386,1.0469,1.0498,1.0498,1.0371,0.9913,0.9134,0.8619,0.7952,0.7238,0.6899,0.6717,1.5879,1.6421,1.6919,1.7746,1.8009,1.8032,1.8144,1.8013,1.7604,1.664,1.5463,1.455,1.4351,1.3787,1.352,1.4086,1.4507,1.4683,1.4241,1.4509,1.4545,1.3916,1.4026,0.0,0.0,0.0,0.0,1.5136,1.5282,1.5431,1.5431,1.5431,1.5431,1.5431,1.5431,1.5431,1.5431,1.5431,1.5431,1.5431,1.5431,1.5431,1.5431,1.5431,1.5431,1.5431,1.5173,1.5173,1.5173,1.4824,1.4741,1.4824,1.4741,1.4741,1.4734,1.465,1.4566,1.4482,1.4166,1.4088,1.4088,1.4088,1.4088,1.4088,1.4088,1.4088,1.4088,1.4088,1.4088,1.4088,1.4088,1.4088,1.4088,1.4088,1.4088,1.4088,1.4088,1.4088,1.4082,1.3913,1.3483,1.3137,1.2881,1.2186,1.1241,0.9911,0.8932,0.8179,0.7684,0.7427,0.7362,0.7472,0.7281,0.7163,0.722,0.8141,0.8777,0.892,0.9934,1.056,1.0741,1.0771,1.0803,1.0803,1.0704,1.0187,0.9267,0.8657,0.8017,0.718,0.6967,0.6814,1.7301,1.7949,1.8629,1.9671,1.9947,1.9932,1.9913,1.9582,1.8807,1.7115,1.6227,1.5677,0.0,0.0,1.3132,1.4948,1.4096,1.3484,1.4362,1.4509,1.4501,0.0,0.0,0.0,0.0,0.0,0.0,1.4793,0.0,1.5431,1.5431,1.5431,1.5431,1.5431,1.5431,1.5431,1.5431,1.5452,1.546,1.5369,1.5369,1.5362,1.5431,1.5431,1.5431,1.5431,1.5173,1.5257,1.5347,1.5173,1.509,1.509,1.5347,1.5082,1.4741,1.4999,1.4915,1.4657,1.425,1.4088,1.4088,1.4088,1.4088,1.4088,1.4088,1.4088,1.4088,1.4088,1.4088,1.4088,1.4088,1.4088,1.4088,1.4088,1.4088,1.4088,1.4088,1.4088,1.4088,1.4088,1.4088,1.3997,1.3737,1.2966,1.1849,1.0095,0.9625,0.9009,0.794,0.7598,0.7484,0.7484,0.7484,0.7415,0.7253,0.8392,0.9098,0.8886,1.0107,1.0867,1.088,1.1005,1.1136,1.1149,1.0888,1.014,0.8991,0.8504,0.7726,0.6781,0.6958,0.7062,1.8486,1.9117,1.9642,2.0264,2.0401,2.0324,1.9774,1.9151,1.8337,1.7437,1.5927,1.4816,0.0,0.0,0.0,1.4646,1.5072,0.0,1.483,1.5028,0.0,0.0,0.0,1.4853,1.4852,1.486,0.0,0.0,1.5379,1.5431,1.5431,1.5431,1.5431,1.5431,1.5431,1.5431,1.5431,1.6361,1.6297,1.5397,1.5397,1.5375,1.5431,1.5431,1.5431,1.5431,1.5347,1.5257,1.5173,1.509,1.509,1.509,1.5173,1.5173,1.5173,1.509,1.4915,1.465,1.4405,1.4321,1.4321,1.4166,1.4088,1.4088,1.4088,1.4088,1.4088,1.4088,1.4088,1.4088,1.4088,1.4088,1.4088,1.4088,1.4088,1.4088,1.4088,1.4088,1.3997,1.3822,1.3822,1.3822,1.3997,1.3222,1.251,1.2014,1.0605,0.9174,0.7957,0.7598,0.7484,0.7484,0.7642,0.7625,0.7423,0.8259,0.8661,0.8544,0.9488,1.0189,1.0534,1.0818,1.1135,1.1348,1.1077,1.0703,1.0024,0.9124,0.8364,0.7728,0.736,0.7183,1.9551,2.0019,2.0303,2.0752,2.0566,2.009,1.9447,1.8634,1.7716,1.6751,1.5524,0.0,0.0,0.0,0.0,0.0,0.0,0.0,1.5255,1.587,1.6002,0.0,1.5748,0.0,1.5479,1.5627,1.5703,0.0,1.5514,1.5431,1.5431,1.5431,1.5431,1.5431,1.538,1.5411,1.544,1.669,1.6898,1.6213,1.6189,1.6085,1.574,1.5848,1.594,1.584,0.0,1.5755,1.5669,1.5669,1.5589,1.5466,1.5466,1.5471,1.5431,1.5257,1.5173,1.4999,1.465,1.4566,1.4657,1.425,1.4088,1.4088,1.4088,1.4088,1.4088,1.4088,1.4088,1.4088,1.4088,1.4088,1.4088,1.4088,1.4088,1.4088,1.4088,1.4088,1.4088,1.3913,1.3913,1.3913,1.4088,1.3652,1.3137,1.279,1.1624,1.0372,0.8987,0.8158,0.7729,0.7727,0.7876,0.7842,0.7673,0.831,0.8719,0.8548,0.9291,0.9949,1.0572,1.0779,1.1171,1.1662,1.1543,1.1128,1.0425,0.9465,0.8644,0.8018,0.7432,0.7224,2.0439,2.0654,2.0752,2.1143,2.0566,1.9701,1.9029,1.8046,1.6967,1.5647,0.0,1.4785,1.4608,0.0,1.4373,1.5505,0.0,1.5483,1.5871,1.6788,1.7104,1.6093,1.7188,1.7521,1.6327,1.6632,1.6706,1.6245,1.5914,1.5673,1.559,1.5492,1.5423,1.5398,1.5575,1.5676,1.5609,1.6775,1.7303,1.7262,1.7296,1.6877,1.6161,1.647,1.6566,1.6367,0.0,0.0,1.6309,1.6265,1.6089,1.5848,1.5848,1.5679,1.5431,1.5431,1.5347,1.5257,1.4908,1.4908,1.4915,1.4334,1.4166,1.4166,1.4166,1.4166,1.4166,1.4088,1.4088,1.4088,1.4088,1.4088,1.4088,1.4088,1.4088,1.4088,1.4088,1.4088,1.4088,1.4088,1.4088,1.4088,1.4088,1.4088,1.3828,1.3045,1.2667,1.1916,1.0386,0.9108,0.8243,0.8159,0.8119,0.8031,0.7786,0.8434,0.8849,0.8695,0.9249,0.999,1.0791,1.0947,1.1282,1.1996,1.1979,1.1488,1.0683,0.9822,0.8948,0.8103,0.7625,0.7331,2.0977,2.1123,2.1143,2.1221,2.0566,1.9619,1.8426,1.7444,0.0,0.0,0.0,1.4785,1.4608,1.508,0.0,1.6256,0.0,0.0,0.0,0.0,1.7429,0.0,0.0,0.0,0.0,0.0,0.0,0.0,0.0,1.7359,1.6804,1.595,1.5394,1.5419,1.6395,1.7003,1.6973,1.7229,1.7342,1.7296,1.7334,1.7086,1.6573,1.647,1.6463,1.6352,1.6104,0.0,1.5972,1.5701,1.5562,1.5511,1.5511,1.5474,1.5431,1.5431,1.5264,1.5173,1.509,1.4915,1.4741,1.4398,1.4489,1.4573,1.4405,1.4314,1.4321,1.4166,1.4088,1.4088,1.4088,1.4088,1.4088,1.4088,1.4088,1.4088,1.4088,1.4088,1.4088,1.4088,1.4088,1.4088,1.4088,1.4088,1.4004,1.3913,1.3178,1.2385,1.1505,1.0074,0.8992,0.8413,0.8349,0.8165,0.7829,0.8053,0.8416,0.8646,0.9202,0.9946,1.1013,1.1443,1.186,1.2224,1.2104,1.1931,1.1704,1.0923,1.0079,0.9255,0.8703,0.8121,2.1607,2.1487,2.1289,2.1514,2.04,1.8975,1.792,0.0,0.0,0.0,0.0,1.4334,1.4334,0.0,0.0,0.0,0.0,0.0,0.0,0.0,0.0,0.0,0.0,0.0,0.0,0.0,0.0,0.0,0.0,1.8327,1.761,1.6168,1.5405,1.543,1.6022,1.659,1.7251,1.7274,1.7296,1.7305,1.7078,1.6914,1.6713,1.6448,1.6367,1.636,1.6213,0.0,1.614,1.5987,1.5826,1.5679,1.5679,1.5577,1.5431,1.5431,1.5347,1.5257,1.5173,1.5082,1.4999,1.4824,1.4741,1.465,1.4482,1.4398,1.4398,1.4166,1.4088,1.4088,1.4088,1.4088,1.4088,1.4088,1.4088,1.4088,1.4088,1.4088,1.4088,1.4088,1.4088,1.4088,1.4088,1.4088,1.4088,1.4088,1.3743,1.3171,1.2451,1.1665,1.0573,0.9025,0.8848,0.8672,0.8269,0.824,0.8241,0.8259,0.8789,0.9493,1.0425,1.115,1.1722,1.2298,1.2224,1.2077,1.2003,1.1335,1.0657,1.0056,0.9155,0.8475,2.2086,2.1794,2.1435,2.168,2.0176,1.8369,1.7334,1.5898,0.0,0.0,1.3546,1.3811,1.4005,0.0,0.0,0.0,0.0,0.0,0.0,0.0,0.0,0.0,0.0,0.0,0.0,0.0,0.0,0.0,0.0,0.0,1.862,1.7257,1.6474,1.6474,1.6514,1.6604,1.6922,1.6898,1.6907,1.7014,1.6713,1.6595,1.6628,1.6477,1.6367,1.6367,1.6301,0.0,0.0,1.6199,1.603,1.5811,1.5811,1.5657,1.5431,1.5431,1.5431,1.5347,1.5257,1.5257,1.5347,1.5257,1.4999,1.4824,1.4566,1.4482,1.4398,1.4166,1.4088,1.4088,1.4088,1.4088,1.4088,1.4088,1.4088,1.4088,1.4088,1.4088,1.4088,1.4088,1.4088,1.4088,1.4088,1.4088,1.4088,1.4088,1.4088,1.3828,1.313,1.2847,1.2046,1.013,0.9784,0.956,0.896,0.8791,0.8604,0.8319,0.8732,0.9427,1.0344,1.1021,1.1636,1.2298,1.2305,1.2231,1.2077,1.1558,1.1111,1.0588,0.9453,0.8775,2.2004,2.202,2.1738,2.1387,1.9951,1.8203,1.6562,0.0,0.0,1.3034,1.3061,1.3413,1.3679,0.0,0.0,0.0,0.0,0.0,0.0,0.0,0.0,0.0,0.0,0.0,0.0,0.0,0.0,0.0,0.0,0.0,2.0356,2.0188,2.0102,2.0116,2.0152,1.8668,1.5623,1.5566,1.5834,1.6241,1.6183,1.6271,1.6411,1.6382,1.6367,1.6352,1.6074,0.0,0.0,1.5635,1.5496,1.5474,1.5474,1.546,1.5431,1.5431,1.5431,1.5431,1.5347,1.5347,1.5431,1.5347,1.5347,1.5257,1.4824,1.465,1.4573,1.4166,1.4088,1.4088,1.4088,1.4088,1.4088,1.4088,1.4088,1.4088,1.4088,1.4088,1.4088,1.4088,1.4088,1.4088,1.4088,1.4088,1.4088,1.4088,1.4088,1.3828,1.313,1.3021,1.265,1.1861,1.1453,1.0759,0.9724,0.961,0.9658,0.997,1.0013,1.0679,1.2037,1.2117,1.2198,1.2305,1.2305,1.2298,1.2305,1.2231,1.1781,1.1037,1.0201,0.9372,2.1233,2.146,2.1387,2.0947,1.9346,1.7568,1.6338,0.0,1.3799,1.2988,1.3256,1.3724,1.3888,0.0,0.0,0.0,0.0,0.0,0.0,0.0,0.0,0.0,0.0,0.0,0.0,0.0,0.0,0.0,0.0,0.0,2.0605,2.0615,2.0349,1.9808,1.9848,1.9434,1.8574,1.6736,1.6433,1.7509,1.6996,1.6818,1.6808,1.6808,1.6703,1.6522,1.6223,0.0,0.0,1.586,1.5606,1.5452,1.5643,1.5606,1.5431,1.5431,1.5431,1.5431,1.5431,1.5431,1.5431,1.5431,1.5431,1.5347,1.4824,1.465,1.4482,1.4166,1.4088,1.4088,1.4088,1.4088,1.4088,1.4088,1.4088,1.4088,1.4088,1.4088,1.4088,1.4088,1.4088,1.4088,1.4088,1.4088,1.4088,1.4088,1.4088,1.3997,1.3737,1.3652,1.3568,1.3307,1.2343,1.136,1.0213,0.9948,0.9636,0.914,0.9813,1.0438,1.1043,1.1855,1.2305,1.2305,1.2305,1.2305,1.2305,1.2305,1.2077,1.1632,1.0421,0.9669,2.0113,2.0574,2.0713,2.0137,1.8584,1.6924,0.0,0.0,1.3176,1.291,1.3097,1.3423,1.3768,1.4395,0.0,0.0,0.0,1.5781,0.0,0.0,0.0,0.0,0.0,0.0,0.0,0.0,0.0,0.0,0.0,0.0,0.0,2.0566,2.0353,1.9674,1.965,2.001,2.0604,1.8472,1.7696,1.8113,1.7427,1.7064,1.684,1.6827,1.6737,1.6607,0.0,0.0,0.0,1.6212,1.5885,1.5529,1.5757,1.5628,1.5431,1.5431,1.5489,1.5555,1.546,1.5496,1.5555,1.546,1.5347,1.5257,1.4908,1.4741,1.4573,1.4328,1.425,1.4166,1.4166,1.4166,1.4088,1.4088,1.4088,1.4088,1.4088,1.4088,1.4088,1.4088,1.4088,1.4088,1.4088,1.4088,1.4088,1.4088,1.4088,1.4088,1.4088,1.4088,1.4088,1.4088,1.3222,1.2167,1.1149,1.0877,1.0346,0.9271,0.987,1.0385,1.0524,1.1484,1.2003,1.2224,1.2305,1.2305,1.2224,1.2224,1.215,1.1929,1.0496,0.9518,1.8755,1.9433,1.9727,1.8867,1.7695,1.6396,0.0,0.0,1.2707,1.2713,1.2283,1.2204,1.3122,1.371,1.4198,1.4727,0.0,0.0,0.0,0.0,0.0,0.0,0.0,0.0,0.0,0.0,0.0,0.0,0.0,0.0,0.0,2.0566,2.0596,2.0566,2.0566,2.0575,2.0601,2.0572,1.9426,1.7191,1.7038,1.6747,1.6327,1.6171,1.6327,0.0,0.0,0.0,0.0,1.6699,1.6216,1.5733,1.5741,1.5582,1.5431,1.5431,1.5635,1.5862,1.554,1.5643,1.5862,1.5533,1.5257,1.509,1.509,1.509,1.5006,1.4741,1.4566,1.4398,1.4398,1.4243,1.4088,1.4088,1.4088,1.4088,1.4088,1.4088,1.4088,1.4088,1.4088,1.4088,1.4088,1.4088,1.4088,1.4088,1.4088,1.4088,1.4088,1.4088,1.4088,1.4088,1.4088,1.3703,1.2731,1.2706,1.2152,1.1002,1.0734,1.0852,1.1347,1.1186,1.1409,1.2003,1.2224,1.2224,1.2003,1.2003,1.2003,1.1929,1.0346,0.8841,1.6246,1.6977,1.7255,1.6957,1.6133,1.5215,1.4502,0.0,1.2273,1.2302,1.2085,1.1991,1.2271,1.2887,1.3539,1.4129,1.4899,0.0,0.0,0.0,0.0,0.0,0.0,0.0,0.0,0.0,0.0,0.0,0.0,0.0,0.0,2.0566,2.0576,2.0596,2.0596,2.0615,2.0596,2.0123,1.9634,1.9215,1.8774,1.8448,1.8255,1.8482,0.0,0.0,0.0,0.0,0.0,1.6695,1.6405,1.6343,1.6227,1.5889,1.546,1.5679,1.5826,1.5935,1.6038,1.6001,1.5899,1.5796,1.5522,1.5347,1.5347,1.5082,1.4824,1.4734,1.4566,1.4398,1.4398,1.4243,1.4088,1.4088,1.4088,1.4088,1.4088,1.4088,1.4088,1.4088,1.4088,1.4088,1.4088,1.4088,1.4088,1.4088,1.4088,1.4088,1.4088,1.4088,1.4088,1.4088,1.4088,1.3789,1.2999,1.2228,1.1344,1.0461,0.9943,0.9927,1.053,1.0887,1.1484,1.2157,1.2157,1.2077,1.2003,1.1855,1.1329,1.0346,0.982,0.8841,0.0,1.4808,1.5182,1.5138,1.4525,0.0,0.0,0.0,1.1519,1.1719,1.155,1.1402,1.161,1.2281,1.2902,1.3354,1.4255,0.0,0.0,0.0,0.0,0.0,0.0,0.0,0.0,0.0,0.0,0.0,0.0,0.0,0.0,2.0566,2.0566,2.0566,2.0566,2.0566,2.0566,2.0159,1.9966,2.0051,1.9642,1.9321,1.9076,1.9265,0.0,0.0,0.0,0.0,0.0,1.7328,1.6884,1.6746,1.6352,1.5852,1.5467,1.5796,1.5987,1.6111,1.6301,1.6243,1.6067,1.595,1.5694,1.5431,1.5347,1.5173,1.4908,1.4908,1.4657,1.451,1.4549,1.4331,1.4115,1.4314,1.4331,1.4243,1.4243,1.4243,1.4166,1.4088,1.4088,1.4088,1.4088,1.4088,1.4088,1.4088,1.4088,1.4088,1.4088,1.4088,1.4088,1.4088,1.4088,1.3913,1.3476,1.2443,1.1499,1.0614,0.9769,0.9562,1.0291,1.0558,1.1105,1.2077,1.2003,1.1929,1.1781,1.1632,1.0875,0.9523,0.9523,0.8765,0.0,0.0,0.0,0.0,0.0,0.0,0.0,0.0,0.0,0.0,1.0702,1.0506,1.1032,1.1733,1.2287,1.2368,1.3549,0.0,0.0,0.0,0.0,0.0,0.0,0.0,0.0,0.0,0.0,0.0,0.0,0.0,0.0,2.0566,2.0566,2.0566,2.0566,2.0566,2.0566,2.0566,2.0437,2.0068,1.9776,1.9476,1.9006,1.8896,0.0,0.0,0.0,0.0,0.0,1.8326,1.7523,1.6952,1.6087,1.5604,1.5467,1.5818,1.6126,1.6374,1.6396,1.6389,1.6316,1.5987,1.5672,1.5347,1.5173,1.5257,1.5347,1.509,1.4915,1.4719,1.4854,1.4467,1.424,1.4695,1.4617,1.4398,1.4398,1.4398,1.4321,1.4173,1.4088,1.4088,1.4088,1.4088,1.4088,1.4088,1.4088,1.4088,1.4088,1.4088,1.4088,1.4088,1.4088,1.4088,1.4088,1.3222,1.233,1.1477,1.0259,0.9802,1.0528,1.0198,1.0524,1.1732,1.1868,1.1781,1.1409,1.1409,1.0657,0.9296,0.9296,0.8618,0.9525,0.0,1.0945,1.1173,1.1143,0.0,0.0,0.0,0.0,0.0,0.0,0.9903,1.031,1.0697,1.1241,1.1969,1.3083,0.0,0.0,0.0,0.0,0.0,0.0,0.0,0.0,0.0,0.0,0.0,0.0,0.0,0.0,2.0566,2.0566,2.0566,2.0605,2.0605,2.0566,2.0566,2.0528,2.0468,2.0371,2.0303,2.0222,2.0136,0.0,0.0,0.0,0.0,1.925,1.7913,1.7515,1.7627,1.6354,1.5643,1.5496,1.606,1.6309,1.6404,1.6652,1.6579,1.6279,1.5723,1.5322,1.5173,1.509,1.509,1.509,1.4908,1.465,1.4496,1.4494,1.4298,1.4102,1.426,1.422,1.4166,1.4166,1.4166,1.4166,1.4088,1.4088,1.4088,1.4088,1.4088,1.4088,1.4088,1.4088,1.4088,1.4088,1.3913,1.3822,1.3822,1.3822,1.3822,1.3822,1.296,1.233,1.1981,1.099,1.0685,1.1335,1.1235,1.1484,1.2335,1.1815,1.1409,1.1186,1.1186,1.0507,0.9296,0.915,0.8394,0.8311,0.8804,0.9451,0.9695,0.9585,0.9429,0.0,0.0,0.0,0.0,0.0,0.0,0.9848,0.0,0.0,0.0,0.0,0.0,0.0,0.0,0.0,0.0,0.0,0.0,0.0,0.0,0.0,0.0,0.0,0.0,0.0,2.0566,2.0566,2.0566,2.0518,2.0518,2.0566,2.0596,2.0596,2.0566,2.0489,2.0489,2.0489,2.0333,2.001,0.0,0.0,0.0,1.9478,1.8455,1.7941,1.7789,1.6604,1.5829,1.5489,1.5979,1.6162,1.6206,1.6521,1.6426,1.5901,1.5324,1.4999,1.4915,1.4824,1.4741,1.4741,1.4566,1.4482,1.4432,1.4406,1.426,1.4122,1.4433,1.4352,1.4243,1.4243,1.4243,1.4243,1.4088,1.4088,1.4088,1.4088,1.4088,1.4088,1.4088,1.4088,1.4088,1.3913,1.3822,1.3652,1.3561,1.3568,1.3568,1.3568,1.3052,1.2559,1.2242,1.1193,1.0859,1.1353,1.1251,1.1443,1.2011,1.1484,1.1186,1.1111,1.1037,1.0513,0.9533,0.9079,0.8394,0.7641,0.8004,0.8344,0.8502,0.8159,0.7818,0.0,0.0,0.0,0.0,0.0,0.0,0.0,0.0,0.0,0.0,0.0,0.0,0.0,0.0,0.0,0.0,0.0,0.0,0.0,0.0,0.0,0.0,0.0,0.0,0.0,2.0489,2.0489,2.0489,2.0264,2.0264,2.0489,2.0449,2.0459,2.0576,2.0342,2.0264,2.0264,2.002,1.9863,0.0,0.0,0.0,1.9863,1.9204,1.8487,1.7772,1.6878,1.6237,1.571,1.5959,1.6078,1.6286,1.6548,1.6176,1.5611,1.5154,1.4985,1.4817,1.465,1.4482,1.4314,1.4314,1.4314,1.4375,1.4382,1.4269,1.4233,1.4661,1.4603,1.4314,1.4314,1.4314,1.4321,1.4166,1.4088,1.4004,1.4004,1.3997,1.3997,1.3997,1.3997,1.3913,1.3652,1.3652,1.3561,1.3398,1.3313,1.3313,1.3313,1.3228,1.2966,1.2534,1.1472,1.1001,1.1422,1.1277,1.1254,1.1403,1.1253,1.1103,1.1103,1.0877,1.0517,0.9948,0.9106,0.8413,0.7459,0.7276,0.7098,0.7451,0.7291,0.7176,0.0,0.0,0.0,0.0,0.0,0.0,0.0,0.0,0.0,0.0,0.0,0.0,0.0,0.0,0.0,0.0,0.0,0.0,0.0,0.0,0.0,0.0,0.0,0.0,0.0,2.002,2.002,2.002,2.0106,2.0106,2.002,1.9923,1.9942,2.0234,2.0039,1.9942,1.9942,1.9942,1.9863,1.9863,0.0,1.9942,1.9863,1.9054,1.8656,1.8496,1.7602,1.7196,1.7074,1.6599,1.6892,1.7584,1.7633,1.692,1.6125,1.6476,1.6139,1.5484,1.5311,1.4741,1.4166,1.4166,1.4166,1.4179,1.4142,1.4122,1.4102,1.4226,1.4206,1.4166,1.4166,1.4166,1.4173,1.4088,1.3913,1.3737,1.3737,1.3652,1.3483,1.3483,1.3483,1.3483,1.3476,1.3307,1.3137,1.3137,1.3137,1.3137,1.3137,1.3137,1.3052,1.2966,1.2838,1.2698,1.2681,1.2543,1.2129,1.1473,1.1313,1.1082,1.0927,1.0927,1.0639,1.0188,0.9389,0.8666,0.7013,0.6591,0.618,0.6503,0.6447,0.0,0.0,0.0,0.0,0.0,0.0,0.0,0.0,0.0,0.0,0.0,0.0,0.0,0.0,0.0,0.0,0.0,0.0,0.0,0.0,0.0,0.0,0.0,0.0,0.0,0.0,0.0,1.9863,1.9863,1.991,1.985,1.991,1.9618,1.9696,2.0058,1.9882,1.9803,1.9715,1.9627,1.9539,1.9539,0.0,1.9706,1.9539,1.9311,1.8904,1.8416,1.8006,1.7683,1.7375,1.7129,1.7193,1.7359,1.7276,1.6841,1.6221,1.6064,1.5741,1.5325,1.4824,1.4412,1.4088,1.4088,1.4088,1.4088,1.4088,1.4088,1.4088,1.3913,1.3906,1.3822,1.3743,1.3743,1.3743,1.3743,1.3652,1.3561,1.3561,1.3483,1.3398,1.3398,1.3398,1.3392,1.3222,1.3137,1.2966,1.2711,1.2796,1.2881,1.2705,1.2711,1.279,1.2881,1.2747,1.2612,1.249,1.2261,1.1825,1.135,1.1265,1.1186,1.1027,1.0948,1.0765,1.0622,0.973,0.8996,0.6613,0.6108,0.5563,0.0,0.0,0.0,0.0,0.0,0.0,0.0,0.0,0.0,0.0,0.0,0.0,0.0,0.0,0.0,0.0,0.0,0.0,0.0,0.0,0.0,0.0,0.0,0.0,0.0,0.0,0.0,0.0,0.0,1.9784,1.9784,1.9557,1.9585,1.979,1.9436,1.9487,1.9784,1.9645,1.9566,1.9557,1.939,1.9301,1.9301,1.9478,1.939,1.9222,1.9399,1.9073,1.8425,1.8425,1.8014,1.744,1.761,1.7286,1.6796,1.7115,1.6952,1.655,1.6072,1.5741,1.5492,1.4741,1.4328,1.4166,1.3997,1.3913,1.3913,1.3997,1.3997,1.3913,1.3652,1.3652,1.3568,1.3398,1.3398,1.3398,1.3398,1.3392,1.3307,1.3307,1.3307,1.3222,1.3222,1.3222,1.3137,1.2966,1.2966,1.282,1.2451,1.2543,1.2543,1.2371,1.2371,1.2433,1.2454,1.2349,1.2159,1.1997,1.1811,1.1508,1.112,1.112,1.112,1.0952,1.0795,1.0822,1.0794,1.0048,0.9216,0.6517,0.5952,0.5335,0.5736,0.0,0.0,0.0,0.0,0.0,0.0,0.0,0.0,0.0,0.0,0.0,0.0,0.0,0.0,0.0,0.0,0.0,0.0,0.0,0.0,0.0,0.0,0.0,0.0,0.0,0.0,0.0,0.0,0.0,1.9301,1.9152,1.91,1.9304,1.927,1.9323,1.9301,1.9301,1.9301,1.9301,1.9301,1.9301,1.9301,1.9301,1.9231,1.9002,1.9002,1.8931,1.87,1.87,1.8112,1.7521,1.8282,1.7538,1.6378,1.8031,1.8031,1.744,1.7942,1.7781,1.7025,1.5951,1.5137,1.4489,1.3646,1.3483,1.3483,1.3652,1.3737,1.3652,1.3483,1.3392,1.3392,1.3398,1.3398,1.3398,1.3398,1.3222,1.3137,1.3137,1.2875,1.279,1.279,1.279,1.2705,1.2448,1.2448,1.2457,1.2357,1.238,1.238,1.2386,1.2386,1.219,1.1774,1.1929,1.2015,1.2015,1.1997,1.1702,1.1044,1.1039,1.0789,1.0371,1.0376,1.0483,1.0682,0.999,0.9209,0.6083,0.5676,0.5107,0.533,0.0,0.0,0.0,0.0,0.0,0.0,0.0,0.0,0.0,0.0,0.0,0.0,0.0,0.0,0.0,0.0,0.0,0.0,0.0,0.0,0.0,0.0,0.0,0.0,0.0,0.0,0.0,0.0,0.0,1.8922,1.8851,1.886,1.8958,1.8896,1.8772,1.8514,1.8816,1.8931,1.9029,1.8931,1.8922,1.8922,1.8922,1.8851,1.8772,1.8772,1.8772,1.87,1.87,1.8531,1.8273,1.8612,1.8121,1.7375,1.804,1.7878,1.7375,1.7212,1.696,1.6632,1.5801,1.5304,1.5061,1.4734,1.4643,1.4475,1.373,1.3476,1.3483,1.3228,1.3222,1.3137,1.2966,1.296,1.296,1.296,1.2875,1.2875,1.2875,1.2763,1.273,1.2729,1.2677,1.2638,1.2472,1.2363,1.2318,1.1995,1.1925,1.1925,1.1925,1.1925,1.1793,1.1262,1.1596,1.1682,1.1424,1.1424,1.1209,1.0862,1.0771,1.0691,1.052,1.052,1.056,1.0727,1.0381,0.9767,0.5336,0.4977,0.45,0.0,0.0,0.0,0.0,0.0,0.0,0.0,0.0,0.0,0.0,0.0,0.0,0.0,0.0,0.0,0.0,0.0,0.0,0.0,0.0,0.0,0.0,0.0,0.0,0.0,0.0,0.0,0.0,0.0,0.0,0.0,1.8373,1.8523,1.8638,1.8567,1.8346,1.7971,1.8353,1.8629,1.8807,1.8709,1.87,1.8612,1.87,1.855,1.8356,1.8559,1.8531,1.8362,1.829,1.829,1.829,1.829,1.8129,1.7797,1.7797,1.7635,1.731,1.6894,1.664,1.6476,1.5726,1.5477,1.5311,1.5068,1.4977,1.4727,1.347,1.3307,1.347,1.3222,1.2973,1.2717,1.254,1.2454,1.2454,1.2454,1.2454,1.2454,1.2454,1.2522,1.2493,1.2484,1.2441,1.24,1.2221,1.2198,1.206,1.1717,1.1707,1.163,1.1647,1.1549,1.1255,1.0835,1.1073,1.1154,1.0901,1.0901,1.0814,1.0554,1.0554,1.0554,1.0467,1.0467,1.0467,1.0381,1.0381,0.9854,0.4207,0.3862,0.0,0.0,0.0,0.0,0.0,0.0,0.0,0.0,0.0,0.0,0.0,0.0,0.0,0.0,0.0,0.0,0.0,0.0,0.0,0.0,0.0,0.0,0.0,0.0,0.0,0.0,0.0,0.0,0.0,0.0,0.0,0.0,1.7672,1.7995,1.8482,1.8179,1.8021,1.7985,1.7985,1.8227,1.87,1.87,1.8612,1.8442,1.8612,1.8232,1.7587,1.8117,1.8112,1.77,1.7473,1.7392,1.7392,1.7392,1.7392,1.7392,1.7392,1.7392,1.74,1.7392,1.7221,1.6886,1.5982,1.5567,1.5228,1.4334,1.4075,1.3886,1.2954,1.3203,1.3626,1.3392,1.2631,1.1957,1.1957,1.1957,1.1957,1.1957,1.1957,1.1957,1.1957,1.1957,1.1957,1.1957,1.1957,1.1963,1.1699,1.1705,1.1706,1.1677,1.1722,1.1587,1.1363,1.1163,1.0795,1.0309,1.0294,1.0381,1.0641,1.0727,1.0554,1.0294,1.0294,1.0207,0.9951,0.9951,0.9864,0.9602,0.9602,0.9078,0.3894,0.0,0.0,0.0,0.0,0.0,0.0,0.0,0.0,0.0,0.0,0.0,0.0,0.0,0.0,0.0,0.0,0.0,0.0,0.0,0.0,0.0,0.0,0.0,0.0,0.0,0.0,0.0,0.0,0.0,0.0,0.0,0.0,0.0,1.6546,1.6766,1.686,1.7646,1.7613,1.6771,1.6968,1.7316,1.7806,1.7861,1.7861,1.7716,1.7797,1.7658,1.7476,1.7585,1.7635,1.7473,1.7302,1.7221,1.7139,1.6984,1.6812,1.673,1.673,1.6566,1.6409,1.6237,1.6147,1.6064,1.565,1.5477,1.5311,1.5068,1.4908,1.4741,1.4643,1.4132,1.3366,1.218,1.1671,1.1505,1.1505,1.1505,1.1505,1.1505,1.1505,1.1505,1.1505,1.1478,1.1532,1.1532,1.1483,1.1444,1.1273,1.1051,1.0914,1.089,1.095,1.0875,1.0811,1.0838,1.0629,1.013,1.0125,1.0038,0.9951,0.9951,0.9864,0.9607,0.9607,0.9607,0.9519,0.9519,0.9432,0.9345,0.9345,0.9257,0.2612,0.0,0.0,0.0,0.0,0.0,0.0,0.0,0.0,0.0,0.0,0.0,0.0,0.0,0.0,0.0,0.0,0.0,0.0,0.0,0.0,0.0,0.0,0.0,0.0,0.0,0.0,0.0,0.0,0.0,0.0,0.0,0.0,0.0,1.4986,1.5519,1.5435,1.6246,1.6497,1.6259,1.588,1.5856,1.6293,1.6938,1.7121,1.6995,1.6812,1.6887,1.7139,1.6831,1.6855,1.6976,1.6812,1.673,1.6648,1.6402,1.6229,1.6147,1.6064,1.5899,1.5831,1.565,1.5484,1.5318,1.5151,1.4977,1.4894,1.4894,1.4817,1.4657,1.4307,1.3711,1.3033,1.2431,1.1746,1.1241,1.1241,1.0982,1.0809,1.0809,1.0809,1.0809,1.0809,1.0752,1.0798,1.0743,1.0757,1.071,1.0661,1.0499,1.0317,1.0317,1.0233,1.0195,1.0109,1.0067,0.9823,0.9484,0.9479,0.9343,0.9074,0.934,0.9432,0.9262,0.9262,0.9262,0.9262,0.9174,0.9082,0.899,0.8907,0.864,0.0,0.0,0.0,0.0,0.0,0.0,0.0,0.0,0.0,0.0,0.0,0.0,0.0,0.0,0.0,0.0,0.0,0.0,0.0,0.0,0.0,0.0,0.0,0.0,0.0,0.0,0.0,0.0,0.0,0.0,0.0,0.0,0.0,1.1575,1.3149,1.3977,1.3977,1.4298,1.5028,1.6049,1.4629,1.4132,1.4528,1.5779,1.6343,1.6357,1.587,1.5992,1.6542,1.5986,1.5959,1.6312,1.6079,1.6004,1.6004,1.5741,1.5545,1.553,1.5387,1.5289,1.5191,1.522,1.4894,1.4566,1.4482,1.4139,1.3795,1.3795,1.3711,1.3451,1.2407,1.2151,1.231,1.3121,1.2202,1.1037,1.0778,1.0265,0.9836,0.9836,0.985,0.9864,0.9864,0.9864,0.9864,0.9864,0.9864,0.9864,0.9864,0.9878,0.9892,0.9892,0.963,0.9374,0.9079,0.8963,0.8696,0.834,0.8268,0.8181,0.7994,0.8807,0.917,0.9082,0.9082,0.899,0.8903,0.8732,0.8464,0.8281,0.8017,0.7485,0.0,0.0,0.0,0.0,0.0,0.0,0.0,0.0,0.0,0.0,0.0,0.0,0.0,0.0,0.0,0.0,0.0,0.0,0.0,0.0,0.0,0.0,0.0,0.0,0.0,0.0,0.0,0.0,0.0,0.0,0.0,0.0,0.0,0.9326,1.0533,1.1335,1.1624,1.3028,1.3848,0.0,1.3455,1.3233,1.3343,1.4501,1.5304,1.5818,1.5744,1.5771,1.5899,1.5576,1.5501,1.5567,1.5416,1.534,1.5249,1.4992,1.4662,1.4405,1.4566,1.4234,1.3741,1.382,1.3639,1.3209,1.2522,1.2174,1.1815,1.13,1.0956,1.0737,1.0378,1.0258,1.0223,1.0208,0.9981,0.9616,0.9024,0.8773,0.8687,0.8687,0.8801,0.8899,0.8899,0.8899,0.8899,0.8899,0.8899,0.8899,0.8899,0.8856,0.8857,0.8857,0.8767,0.8418,0.7523,0.7486,0.7102,0.6056,0.5978,0.6141,0.6535,0.7778,0.8017,0.7034,0.7217,0.6864,0.5883,0.6065,0.6065,0.5794,0.5708,0.562,0.0,0.0,0.0,0.0,0.0,0.0,0.0,0.0,0.0,0.0,0.0,0.0,0.0,0.0,0.0,0.0,0.0,0.0,0.0,0.0,0.0,0.0,0.0,0.0,0.0,0.0,0.0,0.0,0.0,0.0,0.0,0.7052,0.7339,0.7196,0.8389,0.9111,0.9248,1.0719,1.169,1.2151,1.2087,1.1966,1.187,1.2736,1.3689,1.4636,1.4309,1.4219,1.4272,1.4191,1.394,1.3629,1.3428,1.3378,1.331,1.2928,1.2619,1.2351,1.2334,1.204,1.17,1.1675,1.1472,1.1133,1.0637,1.0381,1.004,0.9709,0.9541,0.9344,0.9146,0.9391,0.9474,0.8695,0.8661,0.8647,0.8154,0.7823,0.7575,0.7575,0.7643,0.7699,0.7699,0.7699,0.7726,0.7801,0.7812,0.7786,0.771,0.7759,0.7742,0.7672,0.7393,0.718,0.7022,0.6685,0.6039,0.4927,0.4891,0.4949,0.5185,0.5764,0.6334,0.7068,0.634,0.5528,0.4636,0.5001,0.5275,0.5364,0.4912,0.4648,0.0,0.0,0.0,0.0,0.0,0.0,0.0,0.0,0.0,0.0,0.0,0.0,0.0,0.0,0.0,0.0,0.0,0.0,0.0,0.0,0.0,0.0,0.0,0.0,0.0,0.0,0.0,0.0,0.0,0.3483,0.4068,0.464,0.4925,0.4928,0.5948,0.6624,0.6768,0.7887,0.8965,0.9939,1.0296,1.0509,1.0489,1.0748,1.17,1.3127,1.2459,1.222,1.2362,1.2282,1.1924,1.1436,1.1324,1.1201,1.1101,1.0746,1.0482,1.0204,1.01,0.9842,0.9651,0.9781,0.9552,0.915,0.9068,0.891,0.875,0.8496,0.8328,0.8237,0.8045,0.8479,0.8746,0.7211,0.6848,0.6919,0.7383,0.699,0.6585,0.6585,0.6609,0.6709,0.6709,0.6709,0.6749,0.6865,0.6881,0.6678,0.6331,0.6329,0.6364,0.6105,0.5664,0.549,0.5993,0.5401,0.4667,0.3698,0.3626,0.3577,0.3553,0.3209,0.4022,0.6367,0.5095,0.4194,0.3566,0.402,0.4385,0.4654,0.3933,0.3578,0.0,0.0,0.0,0.0,0.0,0.0,0.0,0.0,0.0,0.0,0.0,0.0,0.0,0.0,0.0,0.0,0.0,0.0,0.0,0.0,0.0,0.0,0.0,0.0,0.0,0.0,0.0,0.0,0.1453,0.1597,0.1812,0.1956,0.1885,0.1742,0.2404,0.3063,0.382,0.4786,0.5816,0.692,0.7608,0.8604,0.9695,0.8507,0.9107,1.1111,1.0841,1.0872,1.0997,1.0681,1.046,1.0405,1.0374,1.0293,1.006,1.0029,0.9582,0.9053,0.9233,0.8859,0.8515,0.9385,0.9456,0.9133,0.8478,0.8325,0.7998,0.6812,0.6216,0.5853,0.5828,0.6218,0.6022,0.373,0.2124,0.2053,0.56,0.6044,0.5798,0.5798,0.5979,0.6229,0.6229,0.6319,0.6408,0.6254,0.6257,0.5692,0.4392,0.4148,0.3917,0.3442,0.3359,0.2985,0.2246,0.207,0.1544,0.0592,0.0515,0.0522,0.0524,0.0444,0.0448,0.0448,0.17,0.17,0.0537,0.0896,0.0896,0.0717,0.0627,0.0538,0.0,0.0,0.0,0.0,0.0,0.0,0.0,0.0,0.0,0.0,0.0,0.0,0.0,0.0,0.0,0.0,0.0,0.0,0.0,0.0,0.0,0.0,0.0,0.0,0.0,0.0,0.0,0.0,-0.055,-0.0138,0.0406,0.0756,0.0833,0.0764,0.1028,0.1361,0.1698,0.2372,0.3267,0.4404,0.4824,0.5463,0.6264,0.6448,0.7432,0.8955,0.8846,0.8745,0.8755,0.8651,0.8385,0.8015,0.8011,0.7919,0.7837,0.7569,0.725,0.6891,0.7047,0.6792,0.6513,0.7168,0.5876,0.4008,0.3694,0.3618,0.346,0.2817,0.2496,0.2409,0.2386,0.254,0.2454,0.133,-0.0156,-0.1174,-0.0316,0.1268,0.2456,0.2456,0.2559,0.2668,0.2782,0.2841,0.2831,0.2783,0.2788,0.2468,0.1494,0.1345,0.119,0.0685,0.0343,0.0086,-0.0086,-0.0432,-0.1213,-0.2348,-0.2257,-0.2168,-0.2169,-0.2161,-0.2332,-0.2851,-0.1137,-0.0619,-0.1343,-0.1749,-0.1749,-0.1339,-0.2121,-0.2388,0.0,0.0,0.0,0.0,0.0,0.0,0.0,0.0,0.0,0.0,0.0,0.0,0.0,0.0,0.0,0.0,0.0,0.0,0.0,0.0,0.0,0.0,0.0,0.0,0.0,0.0,0.0,0.0,-0.2518,-0.1949,-0.1344,-0.0908,-0.0657,-0.0661,-0.0662,-0.0659,-0.0458,-0.0066,0.06,0.1566,0.1782,0.2221,0.2894,0.4202,0.5038,0.5613,0.6522,0.6869,0.6801,0.6791,0.6503,0.6123,0.6043,0.5817,0.545,0.5115,0.4768,0.4457,0.4465,0.4304,0.399,0.4155,0.2265,-0.0156,-0.1014,-0.1248,-0.1248,-0.1248,-0.1326,-0.1404,-0.1404,-0.1326,-0.1248,-0.1248,-0.2265,-0.3446,-0.4714,-0.3049,-0.1326,-0.1404,-0.1404,-0.1411,-0.1274,-0.134,-0.1414,-0.1366,-0.137,-0.1458,-0.1638,-0.1666,-0.1686,-0.1862,-0.229,-0.2393,-0.1997,-0.2513,-0.3309,-0.4251,-0.4084,-0.3951,-0.3951,-0.3974,-0.4202,-0.465,-0.359,-0.2946,-0.2818,-0.3603,-0.3612,-0.2918,-0.3925,-0.4293,0.0,0.0,0.0,0.0,0.0,0.0,0.0,0.0,0.0,0.0,0.0,0.0,0.0,0.0,0.0,0.0,0.0,0.0,0.0,0.0,0.0,0.0,0.0,0.0,0.0,0.0,0.0,0.0,-0.4061,-0.4052,-0.3969,-0.3874,-0.3742,-0.3786,-0.3921,-0.3738,-0.3009,-0.278,-0.2528,-0.2123,-0.1599,-0.0667,0.0599,0.154,0.1274,0.0201,0.3841,0.5617,0.5909,0.5554,0.5497,0.5626,0.5626,0.4772,0.3452,0.3446,0.2817,0.2111,0.2111,0.1639,0.1013,0.0468,0.0156,-0.0623,-0.3761,-0.4711,-0.4711,-0.4711,-0.5029,-0.5347,-0.5347,-0.5029,-0.4711,-0.4711,-0.4787,-0.4862,-0.4951,-0.4873,-0.487,-0.5268,-0.5347,-0.5268,-0.5266,-0.5338,-0.5378,-0.5755,-0.5776,-0.5536,-0.4994,-0.4937,-0.4713,-0.4176,-0.4184,-0.4186,-0.4101,-0.4202,-0.4327,-0.442,-0.4415,-0.4446,-0.4446,-0.4441,-0.4564,-0.4656,-0.5407,-0.5272,-0.4116,-0.428,-0.4325,-0.4333,-0.4329,-0.4378,0.0,0.0,0.0,0.0,0.0,0.0,0.0,0.0,0.0,0.0,0.0,0.0,0.0,0.0,0.0,0.0,0.0,0.0,0.0,0.0,0.0,0.0,0.0,0.0,0.0,0.0,0.0,0.0,0.0,-0.57,-0.5652,-0.5329,-0.5076,-0.5071,-0.5254,-0.5282,-0.51,-0.4677,-0.4513,-0.4553,-0.4644,-0.3739,-0.2055,-0.2134,-0.1948,-0.1432,-0.0532,0.1084,0.3117,0.3013,0.3043,0.3177,0.3207,0.2882,0.2295,0.163,0.117,0.078,0.0156,-0.0234,-0.0779,-0.289,-0.3673,-0.3982,-0.5171,-0.5491,-0.541,-0.541,-0.5491,-0.5572,-0.5572,-0.5491,-0.5488,-0.5951,-0.6402,-0.6777,-0.678,-0.6479,-0.6257,-0.6416,-0.6876,-0.718,-0.7173,-0.7173,-0.7308,-0.7565,-0.7672,-0.7716,-0.7881,-0.7924,-0.7901,-0.788,-0.7899,-0.7899,-0.7899,-0.7929,-0.7982,-0.8155,-0.8082,-0.8066,-0.8309,-0.8201,-0.8172,-0.8234,-0.8617,-0.803,-0.6353,-0.6395,-0.6681,-0.7299,-0.7197,-0.7232,0.0,0.0,0.0,0.0,0.0,0.0,0.0,0.0,0.0,0.0,0.0,0.0,0.0,0.0,0.0,0.0,0.0,0.0,0.0,0.0,0.0,0.0,0.0,0.0,0.0,0.0,0.0,0.0,0.0,0.0,-0.7059,-0.6601,-0.6374,-0.6501,-0.649,-0.6639,-0.7022,-0.6493,-0.6428,-0.6833,-0.6937,-0.6305,-0.5088,-0.5381,-0.4706,-0.3516,-0.4243,-0.2887,-0.0067,0.0,0.007,0.007,-0.0073,-0.0224,-0.0453,-0.1312,-0.148,-0.1402,-0.2025,-0.2414,-0.2882,-0.4849,-0.587,-0.6254,-0.6328,-0.6479,-0.6553,-0.663,-0.6707,-0.6703,-0.6703,-0.6703,-0.6857,-0.7238,-0.7766,-0.8219,-0.8219,-0.7816,-0.7484,-0.7557,-0.8078,-0.8489,-0.8422,-0.8544,-0.8608,-0.8593,-0.8736,-0.8873,-0.9225,-0.9262,-0.9396,-0.962,-0.9715,-0.9715,-0.9715,-0.9822,-0.9947,-1.0119,-0.9998,-1.0065,-1.0376,-1.0321,-1.0316,-1.0474,-1.0706,-1.035,-0.9361,-0.8713,-0.8783,-0.9383,-0.9247,-0.9409,0.0,0.0,0.0,0.0,0.0,0.0,0.0,0.0,0.0,0.0,0.0,0.0,0.0,0.0,0.0,0.0,0.0,0.0,0.0,0.0,0.0,0.0,0.0,0.0,0.0,0.0,0.0,0.0,-0.8302,-0.8189,-0.8281,-0.7955,-0.7889,-0.8076,-0.7847,-0.8019,-0.8639,-0.8393,-0.845,-0.8878,-0.8451,-0.8381,-0.8486,-0.7938,-0.7155,-0.6283,-0.7079,-0.5971,-0.3487,-0.3353,-0.3271,-0.3356,-0.402,-0.4496,-0.4763,-0.5269,-0.5074,-0.452,-0.452,-0.4908,-0.5369,-0.5369,-0.622,-0.7298,-0.7452,-0.7914,-0.8447,-0.868,-0.8827,-0.9049,-0.9049,-0.9049,-0.9044,-0.8808,-0.8964,-0.9125,-0.9125,-0.8918,-0.8672,-0.8825,-0.9072,-0.9233,-0.9187,-0.9402,-0.947,-0.9025,-0.9242,-0.9375,-0.9227,-0.9232,-0.9227,-0.9227,-0.9385,-0.9548,-0.9548,-0.9756,-0.9954,-0.9954,-1.004,-1.0171,-1.0484,-1.0489,-1.063,-1.1111,-1.1549,-1.2184,-1.3179,-1.1283,-1.0374,-1.046,-1.0465,-1.0704,-0.5268,0.0,0.0,0.0,0.0,0.0,0.0,0.0,0.0,0.0,0.0,0.0,0.0,0.0,0.0,0.0,0.0,0.0,0.0,0.0,0.0,0.0,0.0,0.0,0.0,0.0,0.0,0.0,-0.9503,-0.9524,-1.0319,-0.9984,-0.974,-0.9647,-0.9194,-0.9228,-0.9838,-0.9425,-0.9678,-1.0631,-1.0349,-1.0436,-1.074,-0.998,-0.9343,-0.8896,-0.8638,-0.8215,-0.7695,-0.5634,-0.4763,-0.4721,-0.4996,-0.5339,-0.5765,-0.6519,-0.6723,-0.679,-0.7389,-0.753,-0.7568,-0.7568,-0.7789,-0.811,-0.8401,-0.8591,-0.8778,-0.902,-0.9281,-0.9497,-0.9648,-1.0237,-1.0896,-1.0816,-1.163,-1.2378,-1.2378,-1.2608,-1.222,-1.0388,-1.0579,-1.0995,-1.1,-1.1047,-1.1136,-1.1182,-1.1259,-1.1376,-1.1558,-1.197,-1.2203,-1.2203,-1.2739,-1.3126,-1.3126,-1.3294,-1.3487,-1.3726,-1.3726,-1.3973,-1.4439,-1.4222,-1.4287,-1.4706,-1.4794,-1.4961,-1.529,-1.3041,-1.2443,-1.3272,-1.3722,-1.4248,0.0,0.0,0.0,0.0,0.0,0.0,-0.8097,-0.8762,0.0,0.0,0.0,0.0,0.0,0.0,0.0,0.0,0.0,0.0,0.0,0.0,0.0,0.0,0.0,0.0,0.0,-1.0635,-1.0913,-1.1403,-1.072,-1.0695,-1.1669,-1.1283,-1.0973,-1.0947,-1.0525,-1.0525,-1.0897,-1.0677,-1.092,-1.1645,-1.1593,-1.1739,-1.2088,-1.1618,-1.1225,-1.0908,-1.0537,-1.0436,-1.0479,-0.9074,-0.8014,-0.7251,-0.746,-0.7677,-0.7941,-0.8664,-0.9035,-0.9177,-0.976,-0.974,-0.9558,-0.9691,-0.9904,-1.0307,-1.0521,-1.0863,-1.1288,-1.1458,-1.1784,-1.2198,-1.2278,-1.2853,-1.3504,-1.3697,-1.403,-1.4419,-1.4885,-1.4856,-1.4197,-1.2438,-1.2627,-1.2982,-1.2852,-1.2934,-1.3003,-1.2934,-1.2955,-1.3051,-1.3099,-1.3404,-1.3625,-1.3625,-1.4079,-1.4449,-1.4449,-1.4607,-1.4764,-1.4922,-1.493,-1.5153,-1.566,-1.547,-1.5597,-1.6103,-1.6039,-1.6272,-1.6591,-1.4941,-1.4526,-1.534,-1.569,-1.6191,0.0,0.0,0.0,0.0,0.0,0.0,-0.8449,-0.9058,-0.9413,0.0,0.0,0.0,0.0,0.0,0.0,0.0,0.0,0.0,0.0,0.0,0.0,0.0,0.0,0.0,-1.1347,-1.1688,-1.2058,-1.2615,-1.1886,-1.1742,-1.245,-1.2147,-1.1953,-1.1994,-1.1895,-1.1904,-1.2003,-1.2052,-1.2199,-1.2444,-1.2589,-1.2793,-1.2938,-1.3092,-1.2966,-1.2667,-1.2704,-1.2567,-1.2425,-1.2976,-1.203,-1.0325,-1.0695,-1.0893,-1.1019,-1.1416,-1.1579,-1.1653,-1.1787,-1.1699,-1.1597,-1.1738,-1.2376,-1.3072,-1.3248,-1.4011,-1.4822,-1.4925,-1.5475,-1.6087,-1.6087,-1.6287,-1.6546,-1.6999,-1.6486,-1.6096,-1.7008,-1.6426,-1.5584,-1.5162,-1.4909,-1.4736,-1.45,-1.4706,-1.4706,-1.4248,-1.4329,-1.4413,-1.4122,-1.4155,-1.4155,-1.4148,-1.4442,-1.4593,-1.4593,-1.4816,-1.4887,-1.4887,-1.4887,-1.5049,-1.5413,-1.5389,-1.5689,-1.6291,-1.6401,-1.6826,-1.7685,-1.6985,-1.6727,-1.6876,-1.6909,-1.7188,0.0,0.0,0.0,0.0,0.0,0.0,-0.7875,-0.8639,-0.9465,0.0,0.0,0.0,0.0,0.0,0.0,0.0,0.0,0.0,0.0,0.0,0.0,0.0,0.0,0.0,-1.215,-1.2258,-1.2472,-1.29,-1.305,-1.2929,-1.2539,-1.3564,-1.3873,-1.3199,-1.325,-1.3318,-1.3318,-1.3527,-1.381,-1.4032,-1.4367,-1.4744,-1.5186,-1.5332,-1.5353,-1.5318,-1.4892,-1.4967,-1.5348,-1.5018,-1.3931,-1.2522,-1.2955,-1.3517,-1.3975,-1.3873,-1.4016,-1.4266,-1.4158,-1.3968,-1.3709,-1.3778,-1.4224,-1.4719,-1.4956,-1.5477,-1.6138,-1.7081,-1.7801,-1.836,-1.8557,-1.8971,-1.9307,-1.9437,-1.9663,-1.9899,-2.0092,-1.9673,-1.9204,-1.9079,-1.6936,-1.5137,-1.5056,-1.5105,-1.5105,-1.4966,-1.5007,-1.4952,-1.4752,-1.518,-1.5392,-1.5242,-1.5895,-1.6394,-1.6394,-1.6751,-1.6959,-1.6959,-1.6959,-1.7143,-1.7468,-1.7183,-1.7238,-1.7715,-1.8657,-1.9496,-2.0216,-1.92,-1.862,-1.8534,-1.9017,-1.9298,0.0,0.0,0.0,-0.7756,0.0,0.0,0.0,-0.922,-0.9969,-0.9932,0.0,0.0,0.0,0.0,0.0,0.0,0.0,0.0,0.0,0.0,0.0,0.0,0.0,0.0,-1.3841,-1.3878,-1.3961,-1.4043,-1.3805,-1.385,-1.4348,-1.4317,-1.4351,-1.4529,-1.4675,-1.4744,-1.4642,-1.4993,-1.5139,-1.5163,-1.5736,-1.6009,-1.6114,-1.6391,-1.6579,-1.6735,-1.6371,-1.6522,-1.6928,-1.6859,-1.661,-1.6249,-1.5696,-1.5848,-1.6409,-1.6362,-1.642,-1.6602,-1.6613,-1.6467,-1.6311,-1.6722,-1.7053,-1.7395,-1.7883,-1.8396,-1.887,-1.9523,-2.0206,-2.0785,-2.0848,-2.1121,-2.1466,-2.1725,-2.1827,-2.1966,-2.2503,-2.215,-2.182,-2.2092,-2.0575,-1.8871,-1.7541,-1.7288,-1.7229,-1.7229,-1.717,-1.7033,-1.6973,-1.7189,-1.7335,-1.7257,-1.7938,-1.8272,-1.8124,-1.8506,-1.8763,-1.8899,-1.8899,-1.9,-1.9212,-1.901,-1.9111,-1.9626,-2.071,-2.1417,-2.1745,-2.1302,-2.0964,-2.0661,-2.1034,-2.1288,0.0,0.0,0.0,0.0,0.0,-0.9688,0.0,0.0,0.0,-1.0407,0.0,0.0,0.0,0.0,0.0,0.0,0.0,0.0,0.0,0.0,0.0,0.0,0.0,0.0,0.0,-1.5416,-1.5469,-1.546,-1.475,-1.4938,-1.6312,-1.5278,-1.5066,-1.6065,-1.6107,-1.6107,-1.6065,-1.6371,-1.6439,-1.633,-1.6972,-1.7124,-1.6886,-1.7206,-1.7491,-1.7719,-1.7585,-1.7706,-1.8011,-1.8412,-1.9017,-1.9592,-1.824,-1.812,-1.8677,-1.8806,-1.8806,-1.8871,-1.9044,-1.9081,-1.91,-1.9806,-2.0229,-2.0531,-2.1222,-2.1752,-2.2177,-2.2273,-2.2862,-2.3385,-2.3385,-2.3456,-2.3658,-2.4058,-2.3906,-2.3851,-2.4745,-2.4531,-2.4325,-2.476,-2.4414,-2.328,-2.0687,-2.0183,-2.0128,-2.0128,-1.9985,-1.9852,-1.9863,-1.9796,-1.973,-1.973,-2.0204,-2.0336,-2.0094,-2.0463,-2.0804,-2.0939,-2.0939,-2.0939,-2.1006,-2.1006,-2.1237,-2.1801,-2.2717,-2.3234,-2.3261,-2.3649,-2.3368,-2.2424,-2.2691,-2.2988,0.0,0.0,0.0,0.0,-1.1024,0.0,0.0,0.0,-1.1926,-1.222,0.0,0.0,0.0,0.0,0.0,0.0,0.0,0.0,0.0,0.0,0.0,0.0,0.0,0.0,0.0,-1.5743,-1.5906,-1.6718,-1.665,-1.656,-1.6652,-1.7491,-1.7908,-1.7799,-1.7544,-1.7517,-1.7717,-1.765,-1.7771,-1.8131,-1.8327,-1.8458,-1.8525,-1.865,-1.8779,-1.8921,-1.8884,-1.8945,-1.9043,-1.9332,-1.9864,-2.046,-2.0144,-2.0442,-2.1014,-2.1014,-2.1062,-2.1081,-2.1619,-2.1743,-2.1887,-2.2609,-2.3243,-2.3757,-2.4351,-2.5012,-2.5558,-2.5544,-2.6044,-2.6605,-2.6605,-2.6605,-2.662,-2.6686,-2.7006,-2.7305,-2.7443,-2.7499,-2.7493,-2.7565,-2.7201,-2.5967,-2.3334,-2.2994,-2.3114,-2.3114,-2.3024,-2.2959,-2.2838,-2.264,-2.2495,-2.2283,-2.2674,-2.2897,-2.2838,-2.315,-2.337,-2.3382,-2.3263,-2.3263,-2.3382,-2.3382,-2.3622,-2.4002,-2.4847,-2.5358,-2.5632,-2.6531,-2.5484,-2.2627,-2.347,-2.3822,0.0,0.0,0.0,0.0,0.0,0.0,-1.3129,0.0,-1.3627,0.0,0.0,0.0,0.0,0.0,0.0,0.0,-1.6248,0.0,0.0,0.0,0.0,0.0,0.0,0.0,0.0,0.0,0.0,0.0,-1.6959,-1.6806,-1.781,-1.804,-1.8252,-1.843,-1.8539,-1.843,-1.8131,-1.8522,-1.875,-1.8817,-1.9369,-1.9507,-1.9325,-1.9814,-2.0108,-2.0177,-2.0246,-2.0348,-2.0483,-2.0567,-2.0994,-2.1654,-2.1686,-2.1929,-2.2395,-2.279,-2.2849,-2.27,-2.2915,-2.3169,-2.3531,-2.4562,-2.5306,-2.5902,-2.6175,-2.6471,-2.6886,-2.7424,-2.7447,-2.7437,-2.7861,-2.7631,-2.7348,-2.7348,-2.7684,-2.8154,-2.8591,-2.8876,-2.9231,-2.961,-2.9493,-2.9038,-2.7927,-2.6543,-2.5612,-2.5585,-2.5449,-2.5387,-2.5325,-2.5262,-2.5187,-2.5112,-2.551,-2.5701,-2.5475,-2.5837,-2.6222,-2.641,-2.6445,-2.6445,-2.6494,-2.6494,-2.6614,-2.6777,-2.7417,-2.779,-2.7902,-2.8343,-2.7864,-2.6506,-2.617,-2.6039,-1.4894,0.0,0.0,0.0,0.0,0.0,0.0,0.0,0.0,0.0,0.0,0.0,0.0,0.0,0.0,0.0,0.0,-1.7089,0.0,0.0,0.0,0.0,0.0,0.0,0.0,0.0,0.0,-1.8501,-1.7398,-1.7434,-1.9148,-1.8796,-1.8737,-1.9214,-1.9509,-1.9494,-1.909,-1.9606,-1.9782,-1.9662,-2.0227,-2.0351,-2.0112,-2.0764,-2.1055,-2.1103,-2.1181,-2.1306,-2.1462,-2.1477,-2.1818,-2.234,-2.2744,-2.311,-2.3549,-2.4092,-2.4271,-2.423,-2.4416,-2.4937,-2.568,-2.6761,-2.7524,-2.7984,-2.7984,-2.8082,-2.8286,-2.894,-2.8863,-2.8693,-2.8885,-2.882,-2.8648,-2.8332,-2.8773,-2.9343,-2.9894,-3.0348,-3.0851,-3.133,-3.1477,-3.1477,-3.1477,-2.9682,-2.8205,-2.8191,-2.806,-2.8001,-2.8001,-2.7942,-2.7942,-2.7942,-2.8302,-2.8446,-2.8161,-2.8711,-2.9139,-2.9334,-2.9342,-2.9287,-2.9228,-2.9287,-2.9287,-2.9287,-2.9731,-3.0047,-3.0158,-3.0219,-3.0413,-3.065,-2.9058,-2.8258,0.0,0.0,0.0,-1.7083,0.0,0.0,0.0,0.0,-1.7531,0.0,0.0,0.0,0.0,0.0,0.0,-1.6874,0.0,0.0,0.0,0.0,0.0,0.0,0.0,0.0,0.0,0.0,0.0,-1.8406,-1.8466,-1.9046,-2.0452,-2.0333,-2.0304,-2.054,-2.0597,-2.0887,-2.1392,-2.1103,-2.0991,-2.1039,-2.0799,-2.083,-2.107,-2.126,-2.1386,-2.1386,-2.1462,-2.1538,-2.1612,-2.1866,-2.2027,-2.2197,-2.3187,-2.4011,-2.4652,-2.4746,-2.5176,-2.5828,-2.6477,-2.763,-2.8951,-2.9711,-3.0074,-3.0208,-3.0208,-3.0293,-3.0377,-3.0452,-3.0931,-3.1209,-3.0076,-3.08,-3.158,-3.0386,-3.1027,-3.1883,-3.1914,-3.2388,-3.2812,-3.2827,-3.2843,-3.2843,-3.2843,-3.1875,-3.1041,-3.1041,-3.1041,-3.1041,-3.1041,-3.0925,-3.0793,-3.0793,-3.094,-3.1071,-3.1056,-3.1841,-3.2273,-3.208,-3.1647,-3.1304,-3.1144,-3.1304,-3.1377,-3.1377,-3.1564,-3.1865,-3.2377,-3.2511,-3.3135,-3.4164,-3.1516,-3.0319,0.0,0.0,-1.9506,-1.9075,0.0,0.0,0.0,0.0,0.0,0.0,0.0,0.0,0.0,0.0,-1.9009,-1.8642,-1.8724,0.0,0.0,0.0,0.0,0.0,0.0,0.0,0.0,0.0,0.0,-1.9294,-1.9436,-1.9968,-2.1149,-2.1118,-2.1134,-2.1195,-2.1229,-2.1326,-2.1581,-2.1404,-2.1306,-2.1228,-2.1395,-2.1516,-2.1579,-2.1911,-2.2106,-2.2118,-2.2186,-2.2298,-2.2419,-2.2607,-2.2712,-2.2799,-2.323,-2.4208,-2.5372,-2.5493,-2.5849,-2.6397,-2.6875,-2.7394,-2.8003,-2.9213,-2.9593,-2.9733,-3.027,-3.046,-3.0576,-3.1056,-3.1355,-3.1586,-3.1644,-3.1682,-3.1764,-3.1843,-3.1802,-3.1987,-3.2964,-3.3372,-3.3649,-3.4071,-3.4152,-3.4068,-3.3848,-3.3439,-3.2949,-3.2398,-3.2342,-3.2342,-3.2453,-3.2382,-3.2367,-3.2367,-3.2477,-3.2866,-3.3521,-3.425,-3.4611,-3.4542,-3.3986,-3.3668,-3.3601,-3.4185,-3.451,-3.451,-3.4997,-3.5352,-3.5524,-3.5594,-3.5813,-3.6166,-3.5278,-3.4383,-2.044,-2.0733,0.0,-2.0322,-2.0471,0.0,-2.0309,0.0,0.0,0.0,0.0,0.0,0.0,0.0,0.0,-1.9958,-1.9682,-1.9265,0.0,-1.7897,0.0,0.0,0.0,0.0,0.0,0.0,-1.8961,-1.984,-2.0192,-2.0754,0.0,0.0,-2.1735,-2.1811,-2.1764,-2.1768,-2.188,-2.1823,-2.1782,-2.1682,-2.1978,-2.2163,-2.2272,-2.253,-2.2686,-2.2807,-2.3188,-2.323,-2.3035,-2.3422,-2.3435,-2.3271,-2.362,-2.4575,-2.5796,-2.5823,-2.6407,-2.7201,-2.7759,-2.8135,-2.8561,-2.9753,-3.0316,-3.066,-3.1155,-3.1308,-3.1462,-3.2173,-3.2519,-3.2737,-3.3026,-3.3084,-3.3028,-3.3095,-3.289,-3.3006,-3.3968,-3.4184,-3.427,-3.4733,-3.4769,-3.4738,-3.4513,-3.4464,-3.4118,-3.3293,-3.3256,-3.3361,-3.3503,-3.3642,-3.3729,-3.3729,-3.3815,-3.439,-3.5587,-3.6058,-3.639,-3.6705,-3.6105,-3.5771,-3.5771,-3.6254,-3.6552,-3.6552,-3.7068,-3.7419,-3.7586,-3.7636,-3.787,-3.8287,-3.8287,-3.7936]}]]